[[{"header":{"parameterUnit":"m.s-1","parameterCategory":1,"la1":30.6,"la2":28.766,"lo1":-90.7593,"lo2":-88.6598,"dx":0.0162,"dy":0.0183,"nx":116,"ny":114,"refTime":"2022-12-14T06:00:00:Z","depth":0,"parameterNumber":2,"parameterNumberName":"U-component_of_WINDS"},"data":[0.0,0.0,0.0,0.0,0.0,0.0,0.0,0.0,0.0,0.0,0.0,0.0,0.0,0.0,0.0,0.0,0.0,0.0,0.0,0.0,0.0,0.0,0.0,0.0,0.0,0.0,0.0,0.0,0.0,0.0,0.0,0.0,0.0,0.0,0.0,0.0,0.0,0.0,0.0,0.0,0.0,0.0,0.0,0.0,0.0,0.0,0.0,0.0,0.0,0.0,0.0,0.0,0.0,0.0,0.0,0.0,0.0,0.0,0.0,0.0,0.0,0.0,0.0,0.0,0.0,0.0,0.0,0.0,0.0,0.0,0.0,0.0,0.0,0.0,0.0,0.0,0.0,0.0,0.0,0.0,0.0,0.0,0.0,0.0,0.0,0.0,0.0,0.0,0.0,0.0,0.0,0.0,0.0,0.0,0.0,0.0,0.0,0.0,0.0,0.0,0.0,0.0,0.0,0.0,0.0,0.0,0.0,0.0,0.0,0.0,0.0,0.0,0.0,0.0,0.0,0.0,0.0,0.0,0.0,0.0,0.0,0.0,0.0,0.0,0.0,0.0,0.0,0.0,0.0,0.0,0.0,0.0,0.0,0.0,0.0,0.0,0.0,0.0,0.0,0.0,0.0,0.0,0.0,0.0,0.0,0.0,0.0,0.0,0.0,0.0,0.0,0.0,0.0,0.0,0.0,0.0,0.0,0.0,0.0,0.0,0.0,0.0,0.0,0.0,0.0,0.0,0.0,0.0,0.0,0.0,0.0,0.0,0.0,0.0,0.0,0.0,0.0,0.0,0.0,0.0,0.0,0.0,0.0,0.0,0.0,0.0,0.0,0.0,0.0,0.0,0.0,0.0,0.0,0.0,0.0,0.0,0.0,0.0,0.0,0.0,0.0,0.0,0.0,0.0,0.0,0.0,0.0,0.0,0.0,0.0,0.0,0.0,0.0,0.0,0.0,0.0,0.0,0.0,0.0,0.0,0.0,0.0,0.0,0.0,0.0,0.0,0.0,0.0,0.0,0.0,0.0,0.0,0.0,0.0,0.0,0.0,0.0,0.0,0.0,0.0,0.0,0.0,0.0,0.0,0.0,0.0,0.0,0.0,0.0,0.0,0.0,0.0,0.0,0.0,0.0,0.0,0.0,0.0,0.0,0.0,0.0,0.0,0.0,0.0,0.0,0.0,0.0,0.0,0.0,0.0,0.0,0.0,0.0,0.0,0.0,0.0,0.0,0.0,0.0,0.0,0.0,0.0,0.0,0.0,0.0,0.0,0.0,0.0,0.0,0.0,0.0,0.0,0.0,0.0,0.0,0.0,0.0,0.0,0.0,0.0,0.0,0.0,0.0,0.0,0.0,0.0,0.0,0.0,0.0,0.0,0.0,0.0,0.0,0.0,0.0,0.0,0.0,0.0,0.0,0.0,0.0,0.0,0.0,0.0,0.0,0.0,0.0,0.0,0.0,0.0,0.0,0.0,0.0,0.0,0.0,0.0,0.0,0.0,0.0,0.0,0.0,0.0,0.0,0.0,0.0,0.0,0.0,0.0,0.0,0.0,0.0,0.0,0.0,0.0,0.0,0.0,0.0,0.0,0.0,0.0,0.0,0.0,0.0,0.0,0.0,0.0,0.0,0.0,0.0,0.0,0.0,0.0,0.0,0.0,0.0,0.0,0.0,0.0,0.0,0.0,0.0,0.0,0.0,0.0,0.0,0.0,0.0,0.0,0.0,0.0,0.0,0.0,0.0,0.0,0.0,0.0,0.0,0.0,0.0,0.0,0.0,0.0,0.0,0.0,0.0,0.0,0.0,0.0,0.0,0.0,0.0,0.0,0.0,0.0,0.0,0.0,0.0,0.0,0.0,0.0,0.0,0.0,0.0,0.0,0.0,0.0,0.0,0.0,0.0,0.0,0.0,0.0,0.0,0.0,0.0,0.0,0.0,0.0,0.0,0.0,0.0,0.0,0.0,0.0,0.0,0.0,0.0,0.0,0.0,0.0,0.0,0.0,0.0,0.0,0.0,0.0,0.0,0.0,0.0,0.0,0.0,0.0,0.0,0.0,0.0,0.0,0.0,0.0,0.0,0.0,0.0,0.0,0.0,0.0,0.0,0.0,0.0,0.0,0.0,0.0,0.0,0.0,0.0,0.0,0.0,0.0,0.0,0.0,0.0,0.0,0.0,0.0,0.0,0.0,0.0,0.0,0.0,0.0,0.0,0.0,0.0,0.0,0.0,0.0,0.0,0.0,0.0,0.0,0.0,0.0,0.0,0.0,0.0,0.0,0.0,0.0,0.0,0.0,0.0,0.0,0.0,0.0,0.0,0.0,0.0,0.0,0.0,0.0,0.0,0.0,0.0,0.0,0.0,0.0,0.0,0.0,0.0,0.0,0.0,0.0,0.0,0.0,0.0,0.0,0.0,0.0,0.0,0.0,0.0,0.0,0.0,0.0,0.0,0.0,0.0,0.0,0.0,0.0,0.0,0.0,0.0,0.0,0.0,0.0,0.0,0.0,0.0,0.0,0.0,0.0,0.0,0.0,0.0,0.0,0.0,0.0,0.0,0.0,0.0,0.0,0.0,0.0,0.0,0.0,0.0,0.0,0.0,0.0,0.0,0.0,0.0,0.0,0.0,0.0,0.0,0.0,0.0,0.0,0.0,0.0,0.0,0.0,0.0,0.0,0.0,0.0,0.0,0.0,0.0,0.0,0.0,0.0,0.0,0.0,0.0,0.0,0.0,0.0,0.0,0.0,0.0,0.0,0.0,0.0,0.0,0.0,0.0,0.0,0.0,0.0,0.0,0.0,0.0,0.0,0.0,0.0,0.0,0.0,0.0,0.0,0.0,0.0,0.0,0.0,0.0,0.0,0.0,0.0,0.0,0.0,0.0,0.0,0.0,0.0,0.0,0.0,0.0,0.0,0.0,0.0,0.0,0.0,0.0,0.0,0.0,0.0,0.0,0.0,0.0,0.0,0.0,0.0,0.0,0.0,0.0,0.0,0.0,0.0,0.0,0.0,0.0,0.0,0.0,0.0,0.0,0.0,0.0,0.0,0.0,0.0,0.0,0.0,0.0,0.0,0.0,0.0,0.0,0.0,0.0,0.0,0.0,0.0,0.0,0.0,0.0,0.0,0.0,0.0,0.0,0.0,0.0,0.0,0.0,0.0,0.0,0.0,0.0,0.0,0.0,0.0,0.0,0.0,0.0,0.0,0.0,0.0,0.0,0.0,0.0,0.0,0.0,0.0,0.0,0.0,0.0,0.0,0.0,0.0,0.0,0.0,0.0,0.0,0.0,0.0,0.0,0.0,0.0,0.0,0.0,0.0,0.0,0.0,0.0,0.0,0.0,0.0,0.0,0.0,0.0,0.0,0.0,0.0,0.0,0.0,0.0,0.0,0.0,0.0,0.0,0.0,0.0,0.0,0.0,0.0,0.0,0.0,0.0,0.0,0.0,0.0,0.0,0.0,0.0,0.0,0.0,0.0,0.0,0.0,0.0,0.0,0.0,0.0,0.0,0.0,0.0,0.0,0.0,0.0,0.0,0.0,0.0,0.0,0.0,0.0,0.0,0.0,0.0,0.0,0.0,0.0,0.0,0.0,0.0,0.0,0.0,0.0,0.0,0.0,0.0,0.0,0.0,0.0,0.0,0.0,0.0,0.0,0.0,0.0,0.0,0.0,0.0,0.0,0.0,0.0,0.0,0.0,0.0,0.0,0.0,0.0,0.0,0.0,0.0,0.0,0.0,0.0,0.0,0.0,0.0,0.0,0.0,0.0,0.0,0.0,0.0,0.0,0.0,0.0,0.0,0.0,0.0,0.0,0.0,0.0,0.0,0.0,0.0,0.0,0.0,0.0,0.0,0.0,0.0,0.0,0.0,0.0,0.0,0.0,0.0,0.0,0.0,0.0,0.0,0.0,0.0,0.0,0.0,0.0,0.0,0.0,0.0,0.0,0.0,0.0,0.0,0.0,0.0,0.0,0.0,0.0,0.0,0.0,0.0,0.0,0.0,0.0,0.0,0.0,0.0,0.0,0.0,0.0,0.0,0.0,0.0,0.0,0.0,0.0,0.0,0.0,0.0,0.0,0.0,0.0,0.0,0.0,0.0,0.0,0.0,0.0,0.0,0.0,0.0,0.0,0.0,0.0,0.0,0.0,0.0,0.0,0.0,0.0,0.0,0.0,0.0,0.0,0.0,0.0,0.0,0.0,0.0,0.0,0.0,0.0,0.0,0.0,0.0,0.0,0.0,0.0,0.0,0.0,0.0,0.0,0.0,0.0,0.0,0.0,0.0,0.0,0.0,0.0,0.0,0.0,0.0,0.0,0.0,0.0,0.0,0.0,0.0,0.0,0.0,0.0,0.0,0.0,0.0,0.0,0.0,0.0,0.0,0.0,0.0,0.0,0.0,0.0,0.0,0.0,0.0,0.0,0.0,0.0,0.0,0.0,0.0,0.0,0.0,0.0,0.0,0.0,0.0,0.0,0.0,0.0,0.0,0.0,0.0,0.0,0.0,0.0,0.0,0.0,0.0,0.0,0.0,0.0,0.0,0.0,0.0,0.0,0.0,0.0,0.0,0.0,0.0,0.0,0.0,0.0,0.0,0.0,0.0,0.0,0.0,0.0,0.0,0.0,0.0,0.0,0.0,0.0,0.0,0.0,0.0,0.0,0.0,0.0,0.0,0.0,0.0,0.0,0.0,0.0,0.0,0.0,0.0,0.0,0.0,0.0,0.0,0.0,0.0,0.0,0.0,0.0,0.0,0.0,0.0,0.0,0.0,0.0,0.0,0.0,0.0,0.0,0.0,0.0,0.0,0.0,0.0,0.0,0.0,0.0,0.0,0.0,0.0,0.0,0.0,0.0,0.0,0.0,0.0,0.0,0.0,0.0,0.0,0.0,0.0,0.0,0.0,0.0,0.0,0.0,0.0,0.0,0.0,0.0,0.0,0.0,0.0,0.0,0.0,0.0,0.0,0.0,0.0,0.0,0.0,0.0,0.0,0.0,0.0,0.0,0.0,0.0,0.0,0.0,0.0,0.0,0.0,0.0,0.0,0.0,0.0,0.0,0.0,0.0,0.0,0.0,0.0,0.0,0.0,0.0,0.0,0.0,0.0,0.0,0.0,0.0,0.0,0.0,0.0,0.0,0.0,0.0,0.0,0.0,0.0,0.0,0.0,0.0,0.0,0.0,0.0,0.0,0.0,0.0,0.0,0.0,0.0,0.0,0.0,0.0,0.0,0.0,0.0,0.0,0.0,0.0,0.0,0.0,0.0,0.0,0.0,0.0,0.0,0.0,0.0,0.0,0.0,0.0,0.0,0.0,0.0,0.0,0.0,0.0,0.0,0.0,0.0,0.0,0.0,0.0,0.0,0.0,0.0,0.0,0.0,0.0,0.0,0.0,0.0,0.0,0.0,0.0,0.0,0.0,0.0,0.0,0.0,0.0,0.0,0.0,0.0,0.0,0.0,0.0,0.0,0.0,0.0,0.0,0.0,0.0,0.0,0.0,0.0,0.0,0.0,0.0,0.0,0.0,0.0,0.0,0.0,0.0,0.0,0.0,0.0,0.0,0.0,0.0,0.0,0.0,0.0,0.0,0.0,0.0,0.0,0.0,0.0,0.0,0.0,0.0,0.0,0.0,0.0,0.0,0.0,0.0,0.0,0.0,0.0,0.0,0.0,0.0,0.0,0.0,0.0,0.0,0.0,0.0,0.0,0.0,0.0,0.0,0.0,0.0,0.0,0.0,0.0,0.0,0.0,0.0,0.0,0.0,0.0,0.0,0.0,0.0,0.0,0.0,0.0,0.0,0.0,0.0,0.0,0.0,0.0,0.0,0.0,0.0,0.0,0.0,0.0,0.0,0.0,0.0,0.0,0.0,0.0,0.0,0.0,0.0,0.0,0.0,0.0,0.0,0.0,0.0,0.0,0.0,0.0,0.0,0.0,0.0,0.0,0.0,0.0,0.0,0.0,0.0,0.0,0.0,0.0,0.0,0.0,0.0,0.0,0.0,0.0,0.0,0.0,0.0,0.0,0.0,0.0,0.0,0.0,0.0,0.0,0.0,0.0,0.0,0.0,0.0,0.0,0.0,0.0,0.0,0.0,0.0,1.6899,1.5892,0.0,0.0,0.0,0.0,0.0,0.0,0.0,0.0,0.0,0.0,0.0,0.0,0.0,0.0,0.0,0.0,0.0,0.0,0.0,0.0,0.0,0.0,0.0,1.6286,1.6933,1.7486,1.7547,0.0,0.0,0.0,0.0,0.0,0.0,0.0,0.0,0.0,1.4935,1.588,1.657,1.7756,1.9315,1.8338,1.7641,1.7262,0.0,0.0,0.0,0.0,0.0,0.0,0.0,0.0,0.0,0.0,0.0,0.0,0.0,0.0,0.0,0.0,0.0,0.0,0.0,0.0,0.0,0.0,0.0,0.0,0.0,0.0,0.0,0.0,0.0,0.0,0.0,0.0,0.0,0.0,0.0,0.0,0.0,0.0,0.0,0.0,0.0,0.0,0.0,0.0,0.0,0.0,0.0,0.0,0.0,0.0,0.0,0.0,0.0,0.0,0.0,0.0,0.0,0.0,0.0,0.0,0.0,0.0,0.0,0.0,0.0,0.0,0.0,0.0,0.0,0.0,1.6941,1.6369,0.0,0.0,0.0,0.0,0.0,0.0,0.0,0.0,0.0,0.0,0.0,0.0,0.0,0.0,0.0,0.0,0.0,0.0,0.0,0.0,0.0,1.5329,1.6102,1.6809,1.7516,1.8315,1.8376,1.8161,1.7577,1.7364,0.0,0.0,0.0,0.0,1.5167,1.5427,1.6374,1.81,1.8682,1.9872,2.1585,2.1642,2.1368,2.0723,1.8654,0.0,0.0,0.0,0.0,0.0,0.0,0.0,0.0,0.0,0.0,0.0,0.0,0.0,0.0,0.0,0.0,0.0,0.0,0.0,0.0,0.0,0.0,0.0,0.0,0.0,0.0,0.0,0.0,0.0,0.0,0.0,0.0,0.0,0.0,0.0,0.0,0.0,0.0,0.0,0.0,0.0,0.0,0.0,0.0,0.0,0.0,0.0,0.0,0.0,0.0,0.0,0.0,0.0,0.0,0.0,0.0,0.0,0.0,0.0,0.0,0.0,0.0,0.0,1.7135,1.7527,1.7016,1.6571,1.6911,1.7677,1.6834,1.6939,1.7553,1.6364,0.0,0.0,0.0,0.0,0.0,0.0,0.0,0.0,0.0,0.0,0.0,0.0,0.0,0.0,0.0,0.0,0.0,0.0,0.0,1.4806,1.6041,1.6809,1.773,1.9055,1.9148,1.9117,1.9025,1.8407,0.0,0.0,0.0,0.0,1.621,1.7486,1.8355,1.8873,2.1729,2.3572,2.4384,2.4307,2.4539,2.4907,2.1816,2.0773,2.1236,0.0,0.0,0.0,0.0,0.0,0.0,0.0,0.0,0.0,0.0,0.0,0.0,0.0,0.0,0.0,0.0,0.0,0.0,0.0,0.0,0.0,0.0,0.0,0.0,0.0,0.0,0.0,0.0,0.0,0.0,0.0,0.0,0.0,0.0,0.0,0.0,0.0,0.0,0.0,0.0,0.0,1.9239,2.0177,0.0,0.0,0.0,0.0,0.0,0.0,0.0,0.0,0.0,0.0,0.0,0.0,0.0,1.8259,1.7181,1.7584,1.7357,1.6487,1.7225,1.7522,1.7385,1.7328,1.7483,1.7696,1.7581,0.0,1.72,1.7012,0.0,0.0,0.0,0.0,0.0,0.0,0.0,0.0,0.0,0.0,0.0,0.0,0.0,0.0,0.0,0.0,0.0,0.0,0.0,0.0,0.0,1.878,2.0307,2.1641,2.2254,2.2043,2.0848,2.0338,0.0,0.0,0.0,1.7056,1.6542,1.8306,2.0214,2.2194,2.444,2.5662,2.5952,2.5952,2.6068,2.6271,2.4878,2.3804,2.2991,2.18,0.0,0.0,0.0,0.0,0.0,0.0,0.0,0.0,0.0,0.0,0.0,0.0,0.0,0.0,0.0,0.0,0.0,0.0,0.0,0.0,0.0,0.0,0.0,0.0,0.0,0.0,0.0,0.0,0.0,0.0,0.0,0.0,0.0,0.0,0.0,0.0,0.0,0.0,0.0,1.972,2.0273,2.1236,2.0628,2.0246,0.0,0.0,0.0,0.0,0.0,0.0,0.0,0.0,0.0,2.0599,1.9274,1.8528,1.831,1.8182,1.7834,1.7278,1.7656,1.7688,1.7461,1.7598,1.7598,1.7598,1.7647,1.7552,1.7312,1.7064,1.6758,1.6268,0.0,0.0,0.0,0.0,1.59,1.6149,0.0,0.0,0.0,0.0,0.0,0.0,0.0,0.0,0.0,0.0,0.0,0.0,1.8591,2.0836,2.2697,2.385,2.4642,2.4354,2.2572,2.1799,2.0377,1.8122,1.7884,1.7599,1.7173,1.9696,2.2415,2.5198,2.6356,2.6922,2.6794,2.6794,2.6794,2.6794,2.6794,2.5981,2.4588,2.3558,2.1721,1.9378,0.0,0.0,0.0,0.0,0.0,0.0,0.0,0.0,0.0,0.0,0.0,0.0,0.0,0.0,0.0,0.0,0.0,0.0,0.0,0.0,0.0,0.0,0.0,0.0,0.0,0.0,0.0,0.0,0.0,0.0,0.0,0.0,0.0,0.0,0.0,0.0,0.0,2.0803,2.1284,2.1892,2.1773,2.1436,0.0,0.0,0.0,0.0,0.0,0.0,2.2203,2.0525,2.0133,2.1366,1.9634,1.8934,1.9383,1.8746,1.8248,1.7896,1.8021,1.7943,1.7642,1.7764,1.7764,1.7713,1.7834,1.7891,1.7896,1.7271,1.6949,1.6769,1.6281,1.6057,1.6046,1.6468,1.6688,1.6922,0.0,0.0,0.0,0.0,0.0,0.0,0.0,0.0,0.0,0.0,0.0,1.8622,2.0042,2.2238,2.3881,2.4561,2.4926,2.4766,2.3967,2.1967,2.0479,1.9719,1.9026,1.8687,1.8688,2.2475,2.5137,2.6501,2.7171,2.7255,2.6794,2.6794,2.6794,2.6794,2.6794,2.6736,2.6562,2.4855,2.3342,2.1893,1.9163,0.0,0.0,0.0,0.0,0.0,0.0,0.0,0.0,0.0,0.0,0.0,0.0,0.0,0.0,0.0,0.0,0.0,0.0,0.0,0.0,0.0,0.0,0.0,0.0,0.0,0.0,0.0,0.0,0.0,0.0,0.0,0.0,0.0,0.0,0.0,0.0,0.0,0.0,2.2173,2.2606,0.0,0.0,0.0,0.0,2.2333,2.1549,2.1913,2.3768,2.2221,2.1739,2.2715,2.1178,2.0018,1.9383,1.8746,1.8323,1.81,1.81,1.8082,1.8064,1.8064,1.8212,1.8341,1.8341,1.8713,1.9146,1.7934,1.7128,1.6674,1.6961,1.7042,1.689,1.7293,1.7697,1.8045,0.0,0.0,0.0,1.7119,1.6485,1.604,1.5987,1.5721,1.5549,1.5795,1.8007,1.9885,2.0844,2.3912,2.6146,2.6839,2.77,2.7685,2.6455,2.4365,2.282,2.1977,2.0733,2.1138,2.3443,2.5006,2.6413,2.771,2.753,2.7225,2.6794,2.6794,2.6794,2.6794,2.6794,2.6794,2.6765,2.6116,2.4544,2.2346,2.1355,1.9672,0.0,0.0,0.0,0.0,0.0,0.0,0.0,0.0,0.0,0.0,0.0,0.0,0.0,0.0,0.0,0.0,0.0,0.0,0.0,0.0,0.0,0.0,0.0,0.0,0.0,0.0,0.0,0.0,0.0,0.0,0.0,0.0,0.0,0.0,0.0,0.0,0.0,2.3484,2.3436,0.0,2.329,2.329,2.3361,2.3414,2.3468,2.3816,2.4472,2.2769,2.1935,2.2232,2.0599,1.9752,1.9728,1.9511,1.9353,1.9292,1.9292,1.9146,1.8889,1.9044,1.9044,1.8948,1.9121,1.9195,1.9288,1.8861,1.8453,1.8173,1.8156,1.799,1.7734,1.8137,1.8375,1.8616,0.0,0.0,0.0,1.6895,1.6649,1.649,1.6409,1.6301,1.6496,1.7145,1.9522,2.1538,2.2685,2.5863,2.8112,2.8513,2.9424,2.9243,2.7704,2.5605,2.3883,2.2741,2.1869,2.3006,2.65,2.6816,2.7501,2.8575,2.8046,2.753,2.6997,2.687,2.6794,2.6794,2.6794,2.6794,2.6794,2.6794,2.5441,2.333,2.292,2.1398,1.9233,0.0,0.0,0.0,0.0,0.0,0.0,0.0,0.0,0.0,0.0,0.0,0.0,0.0,0.0,0.0,0.0,0.0,0.0,0.0,0.0,0.0,0.0,0.0,0.0,0.0,0.0,0.0,0.0,0.0,0.0,0.0,0.0,0.0,0.0,2.2702,2.3496,2.4058,2.4154,2.4065,2.4093,2.4283,2.4307,2.4261,2.4518,2.4729,2.4729,2.2957,2.197,2.2116,2.0428,1.9714,2.0118,2.0136,2.0136,2.0136,2.0136,1.9989,1.9714,1.9795,1.9795,1.9714,1.9894,1.9887,1.9916,1.9916,1.985,1.9672,1.9237,1.9118,1.9202,1.9388,1.9809,2.0411,0.0,0.0,1.7041,1.6857,1.6805,1.6727,1.6436,1.6441,1.7133,1.9057,2.1303,2.3474,2.5498,2.7973,2.947,2.9515,2.977,2.92,2.7496,2.5445,2.3615,2.2001,2.2483,2.4263,2.7474,2.7922,2.8455,2.9074,2.8575,2.8046,2.75,2.6997,2.6846,2.6794,2.6794,2.6794,2.6794,2.6794,2.6096,2.4912,2.3823,2.2644,2.1448,0.0,0.0,0.0,0.0,0.0,0.0,0.0,0.0,0.0,0.0,0.0,0.0,0.0,0.0,0.0,0.0,0.0,0.0,0.0,0.0,0.0,0.0,0.0,0.0,0.0,0.0,0.0,0.0,0.0,0.0,0.0,0.0,0.0,2.3087,2.3472,2.3809,2.3809,2.4699,2.5037,2.442,2.4825,2.4992,2.4801,2.4562,2.449,2.449,2.2756,2.1983,2.2381,2.0809,2.0136,2.0539,2.0539,2.0539,2.0558,2.0558,2.0558,2.0558,2.0558,2.0558,2.0558,2.0558,2.0778,2.1126,2.1126,2.1213,2.1139,2.0264,2.0504,2.1271,2.1191,2.209,2.3381,1.7344,1.7272,1.7208,1.7041,1.6882,1.6779,1.6701,1.7065,1.7893,1.9468,2.1819,2.4006,2.581,2.7917,2.9289,2.947,2.977,2.9232,2.757,2.5561,2.4023,2.3116,2.5495,2.7358,2.8414,2.9049,2.9278,2.9074,2.8935,2.8384,2.75,2.7378,2.7152,2.6794,2.6794,2.6794,2.6794,2.6794,2.634,2.5632,2.5298,2.445,2.331,0.0,0.0,0.0,0.0,0.0,0.0,0.0,0.0,0.0,0.0,0.0,0.0,0.0,0.0,0.0,0.0,0.0,0.0,0.0,0.0,0.0,0.0,0.0,0.0,0.0,0.0,0.0,0.0,0.0,0.0,0.0,2.3544,2.4145,2.3616,2.427,2.4752,2.4891,2.5085,2.5063,2.492,2.4898,2.4778,2.4562,2.4418,2.4273,2.4273,2.3005,2.2257,2.2381,2.1096,2.0539,2.0943,2.0943,2.1089,2.1401,2.1401,2.1401,2.1401,2.1401,2.1401,2.1401,2.1401,2.1789,2.2582,2.2582,2.293,2.3473,2.224,2.1768,2.1824,2.2453,2.3318,2.4219,1.7555,1.7462,1.7368,1.7208,1.7109,1.6952,1.6831,1.7359,1.8604,2.0797,2.2722,2.4815,2.7254,2.8678,2.9502,2.9649,2.9814,2.907,2.7112,2.5329,2.4632,2.5148,2.7106,2.8501,2.9211,2.9708,2.977,2.9425,2.8982,2.8432,2.7799,2.7378,2.7049,2.6794,2.6794,2.6794,2.6794,2.6794,2.6606,2.6286,2.6286,2.5546,2.4449,2.4123,2.3823,2.3441,2.2481,2.1952,2.1714,2.1459,0.0,0.0,0.0,0.0,0.0,0.0,0.0,0.0,0.0,0.0,0.0,0.0,0.0,0.0,0.0,0.0,0.0,0.0,0.0,0.0,0.0,0.0,0.0,0.0,2.4314,2.4747,2.4458,2.4869,2.5182,2.53,2.5182,2.5111,2.5111,2.4849,2.4657,2.449,2.4345,2.4292,2.4476,2.3165,2.2725,2.3499,2.1704,2.1133,2.1957,2.154,2.1493,2.1731,2.2069,2.2069,2.1731,2.2069,2.2069,2.1731,2.2157,2.258,2.3086,2.3541,2.3973,2.4382,0.0,0.0,0.0,0.0,2.493,2.4993,1.7905,1.7749,1.7589,1.7368,1.732,1.7199,1.6926,1.7583,1.926,2.2579,2.3839,2.5747,2.9175,2.9726,2.9858,2.9902,2.9902,2.8941,2.6599,2.5278,2.5438,2.741,2.78,2.8563,2.987,2.9902,2.9902,2.9902,2.8935,2.8432,2.8384,2.7408,2.6922,2.687,2.6846,2.6794,2.6794,2.6794,2.6794,2.6794,2.6794,2.615,2.5189,2.5189,2.5189,2.5107,2.4532,2.4013,2.3519,2.3053,0.0,0.0,0.0,0.0,0.0,0.0,0.0,0.0,0.0,0.0,0.0,0.0,0.0,0.0,0.0,0.0,0.0,0.0,0.0,0.0,0.0,0.0,0.0,0.0,2.4963,2.53,2.53,2.53,2.53,2.53,2.5182,2.504,2.504,2.4706,2.449,2.449,2.4319,2.4453,2.4889,2.3479,0.0,0.0,0.0,2.2025,2.326,2.2422,2.1998,2.1998,2.2843,2.2843,2.2087,2.2843,2.2755,2.2087,2.2931,2.3347,2.3434,2.4317,2.4744,2.4744,2.4659,2.5168,2.6091,2.688,2.6657,2.5945,1.7927,1.7861,1.7772,1.7589,1.7392,1.7344,1.7448,1.8449,2.0217,2.316,2.4583,2.6484,2.9491,2.9681,2.9649,2.9858,2.9902,2.9211,2.751,2.7065,2.7097,2.7648,2.8822,2.961,2.9902,2.9902,2.9902,2.9902,2.9681,2.938,2.8935,2.8288,2.778,2.7327,2.6974,2.6794,2.6794,2.6794,2.6794,2.6794,2.6794,2.6659,2.6447,2.6447,2.6447,2.6365,2.5739,2.5464,2.5354,2.5215,2.4449,2.3716,2.4552,2.3767,0.0,0.0,0.0,0.0,0.0,0.0,0.0,0.0,0.0,0.0,0.0,0.0,0.0,0.0,0.0,0.0,0.0,0.0,0.0,2.4506,2.4963,2.53,2.53,2.53,2.5253,2.5182,2.4992,2.4778,2.4634,2.4562,2.4418,2.4273,2.4568,2.482,2.4912,2.4679,2.4703,2.506,2.4241,2.3978,2.4231,2.4059,2.3973,2.3973,2.4145,0.0,2.3973,2.4145,2.4145,2.3973,2.4145,2.4659,2.5316,2.5484,2.6008,2.6633,2.5841,2.6091,2.6962,2.7149,2.7116,2.6874,1.8121,1.8057,1.8005,1.7772,1.7681,1.7579,1.7612,1.8751,2.0401,2.2529,2.4347,2.6122,2.7892,2.8298,2.8363,2.8155,2.8003,2.7923,2.7923,2.7721,2.7962,2.8757,2.9513,2.9902,2.9902,2.9902,2.9902,2.9902,2.9637,2.938,2.9074,2.8528,2.8143,2.7849,2.7378,2.7152,2.7152,2.687,2.6794,2.6794,2.6794,2.6794,2.6794,2.6794,2.6794,2.6794,2.6447,2.634,2.6315,2.6217,2.577,2.5406,2.58,2.5108,2.4068,0.0,0.0,0.0,0.0,0.0,0.0,0.0,0.0,0.0,0.0,0.0,0.0,0.0,0.0,2.3761,2.3761,0.0,2.4915,2.4915,2.5131,2.53,2.53,2.5253,2.5182,2.5111,2.4921,2.4729,2.449,2.4418,2.4365,2.4545,2.4774,2.5142,2.567,2.5281,2.5414,2.6169,2.5062,2.4744,2.5168,2.4744,2.4488,2.4509,2.4914,2.4914,2.4488,2.4914,2.4914,2.4488,2.4999,2.54,2.5819,2.634,2.6798,2.7149,2.6693,2.6798,2.7231,2.7231,2.7231,2.7149,1.8481,1.8364,1.8168,1.8005,1.7905,1.7861,1.7726,1.8958,2.0377,2.1797,2.3806,2.5414,2.6247,2.6847,2.6947,2.6345,2.633,2.6841,2.8024,2.8144,2.866,2.987,2.9902,2.9902,2.9902,2.9902,2.9902,2.9902,2.947,2.9289,2.9212,2.8701,2.8432,2.8432,2.7898,2.765,2.76,2.7255,2.7026,2.6922,2.6922,2.687,2.6794,2.6794,2.6794,2.6794,2.6794,2.6794,2.6794,2.663,2.6525,2.6472,2.634,2.5879,2.5411,2.5688,2.4883,0.0,0.0,0.0,0.0,0.0,0.0,0.0,0.0,2.4177,2.4032,2.3562,2.4097,2.4675,2.4675,2.5035,2.53,2.53,2.5441,2.5441,2.53,2.5253,2.5253,2.4969,2.4849,2.4634,2.449,2.4273,2.4384,2.4866,2.5004,2.5486,2.6404,2.5901,2.6043,2.7126,2.5779,2.5337,2.6091,2.5337,2.4999,2.4999,2.5757,2.5673,2.5084,2.5757,2.5673,2.5084,2.5757,2.6091,2.6091,2.688,2.7231,2.7231,2.7231,2.7231,2.7231,2.7231,2.7231,2.7172,1.9234,1.8745,1.819,1.8168,1.8027,1.7927,1.8126,1.9269,2.0645,2.1967,2.3583,2.5007,2.618,2.6345,2.6378,2.6312,2.7255,2.7925,2.8089,2.9088,2.974,2.9902,2.9902,2.9902,2.9902,2.9902,2.9902,2.9902,2.9814,2.9814,2.9814,2.9289,2.9028,2.8982,2.8432,2.8192,2.8192,2.8143,2.7879,2.7429,2.7429,2.7152,2.6794,2.6794,2.6794,2.6794,2.6794,2.6794,2.6794,2.6765,2.6659,2.6472,2.634,2.6179,2.6214,2.7228,2.7001,2.6608,2.7806,2.7188,2.6195,2.6193,2.5742,2.5422,0.0,2.566,2.5234,2.5102,2.5131,2.5228,2.5228,2.5276,2.53,2.53,2.5861,2.6,2.5253,2.5652,2.5652,2.4706,2.4562,2.4418,2.4273,2.42,2.4384,2.4866,2.5348,2.5876,2.6427,2.6806,2.6999,2.7231,2.6962,2.6962,2.7044,2.6985,2.688,2.688,2.6962,2.6962,2.688,2.6962,2.6962,2.688,2.6962,2.7044,2.7044,2.7149,2.7231,2.7231,2.7231,2.7231,2.7231,2.7231,2.7231,2.7218,1.9423,1.9212,1.9091,1.9418,1.9075,1.8606,1.8258,1.9384,2.0514,2.108,2.248,2.3647,2.4143,2.4211,2.4211,2.4211,2.6152,2.732,2.732,2.9297,3.0393,3.0393,3.0258,3.013,3.013,2.9989,2.9902,2.9902,2.9902,2.9902,2.9902,2.9681,2.956,2.9515,2.8982,2.8795,2.8748,2.8432,2.8143,2.7947,2.7947,2.7879,2.768,2.768,2.7479,2.7211,2.7307,2.7263,0.0,2.7209,2.7046,2.6743,2.6346,2.6125,2.6187,2.7454,2.7312,2.6973,2.7842,2.785,2.7643,2.7549,2.7352,2.7126,2.693,2.6646,2.6263,2.5465,2.5652,2.5931,2.5931,2.6277,2.6595,2.6595,2.6867,2.6799,2.6277,2.6346,2.6208,2.5535,2.5394,2.504,2.4273,2.4453,2.482,2.5348,2.5853,2.6381,2.6887,2.7116,2.7231,2.7231,2.7231,2.7231,2.7231,2.7231,2.7231,2.7231,2.7231,2.7231,2.7231,2.7231,2.7394,2.7777,2.7777,2.7777,2.7777,2.7777,2.7777,2.78,2.8105,2.8222,2.8093,2.7405,2.7415,2.769,1.9808,1.9759,1.9756,2.035,2.0016,1.9406,1.8625,1.9395,2.0084,2.0084,2.1428,2.2461,2.2694,2.2729,2.2729,2.2729,2.5012,2.6555,2.6792,2.911,3.0603,3.0804,3.0601,3.0435,3.0435,3.0172,3.0033,3.0033,2.9946,2.9902,2.9902,2.9902,2.9902,2.9858,2.947,2.9335,2.9289,2.8935,2.8654,2.8528,2.8528,2.8432,2.8288,2.8288,2.8046,2.771,2.7735,2.754,2.7216,2.7151,2.6938,2.6636,2.6068,2.5875,2.616,2.7621,2.8071,2.8061,2.8138,2.8437,2.8622,2.8396,2.8234,2.7962,2.7618,2.7272,2.6681,2.5795,2.5861,2.6139,2.6346,2.6824,2.7271,2.7471,2.7604,2.7471,2.696,2.6892,2.6688,2.6139,2.6124,2.58,2.4966,2.5222,2.5639,2.6086,2.6714,2.7214,2.7672,2.7696,2.7696,2.7696,2.7696,2.7615,2.7476,2.7476,2.7394,2.7231,2.7394,2.7476,2.7452,2.7615,2.8018,2.8474,2.8474,2.8474,2.8498,2.8643,2.8715,2.8763,2.9292,2.9484,2.933,2.848,2.8184,2.8195,2.0675,2.0294,1.9886,2.0488,2.057,2.0281,1.9383,1.9292,1.9326,1.9326,2.0694,2.1901,2.2599,2.2729,2.2729,2.2729,2.4505,2.5978,2.6758,2.8639,3.0068,3.0771,3.0804,3.0804,3.0804,3.0477,3.0309,3.0309,3.0033,2.9902,2.9902,2.9902,2.9902,2.9902,2.9858,2.9858,2.9858,2.9858,2.956,2.9074,2.9074,2.8795,2.8288,2.8288,2.8288,2.824,2.7978,2.7306,2.6491,2.617,2.6064,2.604,2.5416,2.5537,2.6273,2.8127,2.9926,3.1086,2.9789,2.9454,2.9279,2.8682,2.8026,2.7696,2.8325,2.743,2.644,2.6346,2.5791,2.5581,2.6277,2.6414,2.6688,2.7338,2.7802,2.767,2.6799,2.6934,2.6892,2.6,2.6399,2.6648,2.6648,2.6648,2.6822,2.7299,2.7912,2.8516,2.8978,2.9003,2.9003,2.9003,2.9003,2.8791,2.8179,2.8179,2.7857,2.7231,2.7857,2.8179,2.8179,2.8791,2.9081,2.9081,2.9081,2.9081,2.9131,2.9671,2.9973,3.0022,3.054,3.0737,3.0737,3.0713,2.9822,2.8746,2.1071,2.1032,2.1207,2.2389,2.221,2.1583,2.0696,1.9848,1.9554,2.0219,2.1743,0.0,0.0,0.0,0.0,0.0,2.423,2.551,2.6299,2.8357,2.9928,3.0714,3.1002,3.1123,3.1123,3.0804,3.0642,3.0642,3.0518,3.0477,3.0477,3.0477,3.0351,3.0172,3.0172,3.0044,2.9902,2.9902,2.9814,2.9637,2.9637,2.9515,2.9476,3.0401,2.9848,2.87,0.0,2.9134,2.7721,2.6683,2.6578,2.6794,2.5816,2.5721,2.6188,2.765,2.9111,3.0115,2.97,2.9887,3.0137,2.9914,2.9665,2.958,2.9738,2.9349,2.8966,2.8412,2.8525,2.8733,2.9008,2.8919,2.8879,2.9143,2.8984,2.8585,2.7775,2.8381,2.8585,2.7644,2.8036,2.838,2.8371,2.8027,2.7826,2.7964,2.8537,2.8885,2.9081,2.9081,2.9081,2.9081,2.9081,2.9003,2.8791,2.8791,2.8712,2.8474,2.8712,2.8791,2.8767,2.9003,2.9514,3.0256,3.0256,3.0561,3.0939,3.1115,3.1191,3.1266,3.177,3.1996,3.1938,3.2424,3.1956,3.1048,2.1752,2.1897,2.2185,2.3082,2.2865,0.0,0.0,0.0,0.0,0.0,0.0,0.0,0.0,0.0,0.0,0.0,0.0,2.4843,2.6155,2.7794,2.9179,3.0213,3.0516,3.0646,3.0646,3.0345,3.0292,3.0594,3.0442,3.0537,3.0804,3.0804,3.0683,3.0477,3.0351,3.0182,3.0044,2.9946,3.0064,3.0214,3.0032,2.9902,2.9999,3.0895,3.0041,0.0,2.9405,2.9138,2.8168,2.6988,2.676,2.6799,2.609,2.6428,2.7226,2.8337,2.9383,3.0171,3.027,3.0572,3.0881,3.0881,3.0881,3.0834,3.0798,3.061,3.0241,2.98,2.9896,3.0104,3.0378,3.0281,3.04,3.1043,3.076,3.0187,2.9631,3.0041,3.006,2.9056,2.9548,2.9908,2.9766,2.9602,2.9328,2.8948,2.9426,2.9781,2.9781,2.9781,2.9781,2.9781,2.9781,2.9626,2.9394,2.9394,2.9394,2.9394,2.9394,2.9549,2.9806,3.0007,3.0519,3.1188,3.1472,3.178,3.214,3.2371,3.2448,3.25,3.3039,3.3245,3.3213,3.3597,3.3445,3.2968,2.2684,2.283,2.2811,0.0,0.0,0.0,0.0,0.0,0.0,0.0,0.0,0.0,0.0,0.0,0.0,0.0,0.0,0.0,2.6205,2.6879,2.7866,2.9317,2.942,2.9455,2.9489,2.9211,2.9408,3.0156,2.982,3.0074,3.0778,3.0778,3.0811,3.0804,3.0518,3.0351,3.0309,3.0044,3.0291,3.0765,3.0129,2.9837,2.9805,2.987,2.8984,2.7639,2.7328,2.7525,2.779,2.7038,2.6523,2.6267,2.6347,2.7594,2.9251,3.0131,3.0729,3.1237,3.15,3.1565,3.1565,3.1527,3.1527,3.1527,3.1583,3.1059,3.0556,3.0556,2.9977,2.9697,3.0364,3.0501,3.1089,3.2877,3.2506,3.2074,3.2119,3.1809,3.1189,3.0014,3.0794,3.1243,3.086,3.1395,3.1272,3.019,3.0672,3.0973,3.0973,3.0973,3.0973,3.0973,3.0973,3.0672,3.0037,3.0037,3.0037,3.0037,3.0037,3.0368,3.1052,3.1601,3.1785,3.1889,3.2515,3.2751,3.2829,3.3404,3.3639,3.3692,3.4188,3.4397,3.4397,3.4397,3.4397,3.423,0.0,0.0,0.0,0.0,0.0,0.0,0.0,0.0,0.0,0.0,0.0,0.0,0.0,0.0,0.0,0.0,0.0,0.0,2.4169,2.5216,2.651,2.8014,2.8449,2.8937,2.9489,2.942,2.9489,2.9695,2.9591,2.9966,3.072,3.072,3.0882,3.1162,3.1083,3.0925,3.0642,3.0309,3.0018,2.969,2.9274,2.8725,2.8369,2.9513,2.8898,2.7602,2.8531,2.8075,2.6985,2.6626,2.723,2.8128,2.8373,2.8769,2.9418,3.0543,3.1013,3.1275,3.1846,3.2033,3.2082,3.2129,3.2174,3.2286,3.2764,3.2709,3.2542,3.2542,3.2402,3.2194,3.1957,3.1433,3.117,3.1446,3.1249,3.103,3.088,3.1487,3.1829,3.1557,3.2553,3.3167,3.2835,3.3409,3.3146,3.169,3.1172,3.0973,3.0973,3.0973,3.0973,3.0973,3.0973,3.0898,3.0748,3.0748,3.0748,3.0748,3.0748,3.1057,3.1627,3.1784,3.2306,3.3143,3.33,3.3587,3.3979,3.4136,3.4188,3.4214,3.4345,3.4397,3.4397,3.4397,3.4397,3.4314,0.0,0.0,0.0,0.0,0.0,0.0,0.0,0.0,0.0,0.0,0.0,0.0,0.0,0.0,0.0,0.0,0.0,0.0,0.0,2.4644,2.5464,2.6527,2.7217,2.7719,2.8006,2.8006,2.8351,2.9041,2.8351,2.8765,3.0179,2.9834,3.0005,3.0512,3.0364,3.018,2.9989,2.9676,2.9523,0.0,0.0,2.8451,2.8188,2.9009,2.8338,2.7069,2.7971,2.7826,2.7252,2.7952,2.8756,2.959,3.0045,3.0172,3.0388,3.1482,3.1781,3.1961,3.2767,3.299,3.31,3.3408,3.3311,3.3289,3.3876,3.3646,3.3311,3.3237,3.3042,3.2736,3.2117,3.1861,3.1875,3.2278,3.2307,3.2364,3.2609,3.3135,3.3445,3.3533,3.4282,3.4823,3.4737,3.4794,3.4512,3.3784,3.2591,3.1809,3.1468,3.1836,3.1955,3.1955,3.1955,3.1955,3.1955,3.1955,3.209,3.2434,3.2434,3.2732,3.3301,3.3598,3.4086,3.4736,3.4927,3.5197,3.5494,3.5494,3.5494,3.5494,3.5494,3.5494,3.5494,3.5494,3.5494,3.5494,0.0,0.0,0.0,0.0,0.0,0.0,0.0,0.0,0.0,2.2275,2.2721,2.2978,2.2978,2.3088,0.0,0.0,0.0,0.0,0.0,0.0,2.4728,2.5227,2.5875,2.6155,2.5996,2.5996,2.6692,2.8075,2.6661,2.7075,2.9179,2.8558,2.8661,2.9351,2.9143,2.907,2.9034,2.8777,2.8929,2.9326,2.8724,2.8423,2.8323,0.0,2.752,2.6449,2.6841,2.7387,2.8198,2.9906,3.0526,3.0658,3.1305,3.1582,3.1835,3.2695,3.3002,3.3216,3.4044,3.4243,3.4297,3.4824,3.4543,3.4312,3.4692,3.3965,3.3249,3.3177,3.2739,3.2178,3.1641,3.2055,3.2845,3.3903,3.4276,3.465,3.5321,3.5394,3.5339,3.5583,3.6026,3.636,3.6523,3.6142,3.5846,3.5927,3.4625,3.341,3.2472,3.3043,3.3368,3.3283,3.3213,3.3269,3.3354,3.3354,3.3663,3.4325,3.4325,3.4663,3.5356,3.5845,3.6127,3.624,3.6669,3.6894,3.6894,3.6894,3.6894,3.6894,3.6894,3.6894,3.6894,3.6894,3.6894,3.6894,0.0,0.0,0.0,0.0,0.0,0.0,0.0,0.0,0.0,0.0,2.3805,2.3014,0.0,0.0,0.0,0.0,0.0,0.0,0.0,0.0,0.0,2.4954,2.4944,2.5084,2.5422,2.5422,2.5796,2.6523,2.5626,2.604,2.7661,2.7558,2.7868,2.8627,2.9145,2.942,2.9386,2.9068,2.8689,2.8249,2.7864,2.732,2.6751,2.6751,0.0,0.0,2.7661,2.8458,2.9261,3.0672,3.1185,3.1336,3.2013,3.2598,3.3213,3.3986,3.4542,3.5095,3.5296,3.5379,3.5344,3.4978,3.481,3.4662,3.4198,3.3504,3.2966,3.2976,3.2411,3.1941,3.1886,3.2535,3.3136,3.32,3.3839,3.4698,3.5663,3.579,3.6143,3.7135,3.7811,3.8159,3.794,3.8371,3.806,3.6821,3.7029,3.6271,3.4341,3.4412,3.4184,3.363,3.3492,3.3677,3.4257,3.4115,3.4353,3.5046,3.5046,3.5384,3.593,3.6043,3.6352,3.6754,3.6838,3.6894,3.6894,3.6894,3.6894,3.6894,3.6894,3.6894,3.6894,3.6894,3.6894,3.6894,0.0,0.0,0.0,0.0,0.0,0.0,0.0,2.4242,2.4947,2.6117,2.5504,2.4968,2.4911,2.41,2.3419,0.0,0.0,0.0,0.0,0.0,0.0,2.4317,2.4604,2.4813,2.4933,2.5358,2.5667,2.5883,0.0,2.596,2.6874,2.6904,2.7261,2.7833,2.8213,2.8351,2.8351,2.815,2.7946,2.7603,2.747,2.7165,2.6859,2.6859,0.0,0.0,2.8628,2.9204,2.9527,3.0778,3.147,3.1874,3.2261,3.2844,3.3552,3.426,3.4937,3.5554,3.598,3.61,3.6006,3.5816,3.5559,3.5096,3.4422,3.3508,3.2783,3.2347,3.1781,3.1395,3.1426,3.2361,3.3094,3.3018,3.3891,3.5016,3.6164,3.632,3.691,3.8476,3.8903,3.9184,3.9419,3.9419,3.9253,3.8841,3.8811,3.7956,3.5974,3.5898,3.5562,3.4942,3.52,3.5457,3.5644,3.5897,3.6324,3.6866,3.6866,3.7215,3.7812,3.7812,3.7957,3.8219,3.8219,3.8219,3.8219,3.8219,3.8219,3.8219,3.8219,3.8219,3.8219,3.8219,3.8219,3.8219,0.0,0.0,0.0,0.0,0.0,0.0,0.0,2.5838,2.6321,2.7325,2.723,2.7059,2.7015,2.4911,2.3456,0.0,0.0,0.0,0.0,0.0,0.0,0.0,0.0,0.0,0.0,0.0,0.0,2.5989,2.5922,0.0,0.0,0.0,0.0,0.0,2.7244,2.7282,2.7282,2.7282,2.7282,0.0,0.0,2.7489,0.0,0.0,0.0,0.0,0.0,2.9854,2.9822,3.0955,3.1637,3.2131,3.2499,3.3256,3.4104,3.4696,3.5443,3.6222,3.6569,3.6662,3.6662,3.6538,3.6163,3.5579,3.4509,3.3517,3.2586,3.1826,3.118,3.0921,3.1276,3.2258,3.3123,3.3123,3.4282,3.5639,3.6723,3.7122,3.7958,3.9689,3.991,4.0194,4.0857,4.0287,4.0127,4.0684,4.0084,3.9062,3.7545,3.7389,3.7075,3.6557,3.7044,3.7248,3.7268,3.7714,3.825,3.8672,3.8672,3.8972,3.9409,3.9409,3.9409,3.9409,3.9409,3.9409,3.9409,3.9409,3.9409,3.9409,3.9409,3.9409,3.9409,3.9409,3.9409,3.9439,0.0,0.0,0.0,0.0,0.0,0.0,0.0,2.6321,2.7362,2.8961,2.8457,2.7992,2.7968,2.6351,2.4928,0.0,0.0,0.0,0.0,0.0,0.0,0.0,0.0,0.0,0.0,0.0,0.0,2.6861,2.6233,0.0,0.0,0.0,0.0,0.0,0.0,2.7282,2.7282,2.7282,0.0,0.0,0.0,0.0,0.0,0.0,0.0,0.0,0.0,3.059,3.0722,3.1611,3.1943,3.2159,3.2878,3.4392,3.5948,3.6013,3.698,3.793,3.7445,3.7298,3.7178,3.6662,3.6476,3.5892,3.3952,3.2972,3.2272,3.1589,3.0891,3.0807,3.2057,3.2885,3.3376,3.3376,3.5063,3.6597,3.7336,3.8473,3.9787,4.1138,4.1299,4.1561,4.2269,4.1723,4.133,4.1393,4.0789,4.0071,3.9327,3.8719,3.8319,3.8258,3.8188,3.8458,3.8971,3.8895,3.9152,3.9606,3.9606,3.9493,3.9409,3.9409,3.9409,3.9409,3.9409,3.9409,3.9409,3.9409,3.9409,3.9409,3.9409,3.9409,3.9409,3.9409,3.9409,3.9499,0.0,0.0,0.0,0.0,0.0,0.0,2.621,2.6693,2.7511,2.9184,2.9109,2.866,2.8153,2.7002,2.5578,2.3749,0.0,0.0,0.0,0.0,0.0,0.0,0.0,0.0,0.0,0.0,2.6695,2.6763,2.744,0.0,0.0,0.0,0.0,0.0,0.0,2.7612,2.7754,2.7582,0.0,0.0,0.0,0.0,0.0,0.0,0.0,0.0,0.0,0.0,3.1418,3.1743,3.2139,3.2536,3.2832,3.4074,3.5504,3.6097,3.6907,3.7704,3.7898,3.7969,3.7911,3.7621,3.7245,3.6388,3.426,3.2982,3.1987,3.0842,3.0494,3.072,3.1613,3.2905,3.3873,3.3873,3.5622,3.7123,3.7821,3.874,3.9911,4.1277,4.1469,4.1755,4.2425,4.2269,4.2078,4.2078,4.182,4.1595,4.1309,3.9897,3.8939,3.8508,3.8842,3.9112,3.9222,3.9581,3.9777,3.9839,3.9839,3.9869,3.9798,3.9798,3.9798,3.9798,3.9625,3.9553,3.9553,3.9409,3.9409,3.9409,3.9409,3.9679,4.0008,4.0008,4.0277,4.0636,0.0,0.0,0.0,0.0,0.0,2.5185,2.6764,2.6953,2.7549,2.9225,2.9204,2.8792,2.8194,2.7136,2.5801,2.4096,2.3654,0.0,0.0,0.0,0.0,0.0,0.0,0.0,0.0,0.0,2.7684,2.7331,2.8493,2.8659,0.0,0.0,2.8515,2.8272,0.0,0.0,0.0,0.0,0.0,0.0,0.0,0.0,0.0,0.0,0.0,0.0,0.0,0.0,0.0,0.0,0.0,3.2665,3.2792,3.3544,3.4609,3.5775,3.6799,3.7617,3.8123,3.8449,3.8557,3.8334,3.776,3.6637,3.4471,3.3187,3.1992,3.0593,3.0588,3.1029,3.1717,3.3066,3.4123,3.4123,3.5658,3.7122,3.7778,3.8707,3.98,4.1211,4.1341,4.1754,4.2682,4.2762,4.2707,4.252,4.252,4.252,4.252,4.1181,4.0153,3.9718,4.0122,4.0275,4.0209,4.0707,4.082,4.0684,4.0684,4.0646,4.0547,4.0547,4.0509,4.0331,4.0161,3.995,3.9768,3.9553,3.9481,3.9511,3.9619,3.9978,4.0427,4.0606,4.0995,4.1414,0.0,0.0,0.0,0.0,0.0,0.0,2.7025,2.7148,2.7587,2.9287,2.8686,2.8086,2.8086,2.6693,2.5689,2.5689,2.4874,0.0,0.0,0.0,0.0,0.0,0.0,0.0,0.0,0.0,2.8344,2.9052,2.9156,2.9156,2.9089,2.8832,2.87,2.87,0.0,0.0,0.0,0.0,0.0,0.0,0.0,0.0,0.0,0.0,0.0,0.0,0.0,0.0,0.0,0.0,0.0,0.0,0.0,3.3092,3.3619,3.5284,3.6933,3.818,3.8102,3.8731,3.9209,3.8502,3.776,3.6637,3.4471,3.3436,3.2498,3.1108,3.1366,3.2125,3.2757,3.3501,3.3986,3.3986,3.5182,3.6379,3.709,3.8359,3.9755,4.1163,4.1286,4.1843,4.3225,4.348,4.3196,4.2583,4.252,4.252,4.252,4.252,4.2425,4.2425,4.2425,4.2425,4.2458,4.2458,4.2395,4.2269,4.2269,4.2205,4.1981,4.1981,4.1625,4.0992,4.0992,4.0615,4.0011,3.9768,3.9696,3.9757,4.0201,4.0397,4.0487,4.1115,4.1384,4.1474,0.0,0.0,0.0,0.0,0.0,0.0,0.0,2.6986,2.7689,2.8612,2.8608,2.8422,2.8125,2.6817,2.5941,2.5826,2.5099,0.0,0.0,0.0,0.0,0.0,0.0,0.0,0.0,0.0,2.8661,2.9968,2.9991,3.0286,3.078,3.0143,2.9863,2.9803,2.8956,2.8676,0.0,0.0,0.0,0.0,0.0,0.0,0.0,0.0,0.0,0.0,0.0,0.0,0.0,0.0,0.0,0.0,0.0,0.0,0.0,3.3862,3.5332,3.6774,3.7293,3.8004,3.8396,3.7663,3.7248,3.6563,3.4992,3.3661,3.2385,3.0935,3.1328,3.1963,3.219,3.3517,3.4741,3.5268,3.6456,3.7553,3.8337,3.9654,4.0909,4.1862,4.2925,4.3721,4.4181,4.4215,4.4179,4.3948,4.3948,4.3948,4.3948,4.3948,4.3469,4.252,4.252,4.252,4.252,4.252,4.2458,4.2458,4.2458,4.2395,4.2332,4.2332,4.2205,4.2013,4.1949,4.1755,4.1591,4.1362,4.1578,4.2055,4.2208,4.2799,4.3678,4.3756,4.4059,4.4455,0.0,0.0,0.0,0.0,0.0,0.0,0.0,2.7141,2.739,2.8433,2.8085,2.7774,2.7826,2.6547,2.5754,2.5951,2.5295,0.0,0.0,0.0,0.0,0.0,0.0,0.0,2.7736,2.7996,2.9052,3.0984,3.0658,3.102,3.207,3.1279,3.0783,3.045,2.9738,2.937,0.0,0.0,0.0,0.0,0.0,0.0,3.3153,0.0,0.0,0.0,0.0,0.0,0.0,0.0,0.0,0.0,0.0,0.0,0.0,0.0,3.4364,3.544,3.6405,3.724,3.7798,3.7581,3.7013,3.6297,3.5156,3.3736,3.2328,3.1194,3.1774,3.2585,3.2541,3.3993,3.5312,3.5766,3.6787,3.7821,3.887,4.002,4.117,4.2185,4.3369,4.4147,4.4147,4.4418,4.4587,4.4587,4.4587,4.4587,4.4587,4.4587,4.4179,4.335,4.329,4.329,4.329,4.329,4.329,4.329,4.329,4.329,4.329,4.329,4.3169,4.2892,4.2769,4.2808,0.0,4.2591,4.2944,4.3652,4.3842,4.4417,4.5218,4.5336,4.5649,4.5992,0.0,0.0,0.0,0.0,0.0,0.0,0.0,2.739,2.6899,2.8504,2.7279,2.6512,2.7304,2.5915,2.5232,2.5963,0.0,0.0,0.0,0.0,0.0,0.0,0.0,0.0,2.7365,2.8022,2.9551,3.2044,3.1203,3.1578,3.3091,3.2395,3.1578,3.0782,3.0708,3.0225,0.0,0.0,0.0,0.0,0.0,0.0,0.0,0.0,0.0,0.0,0.0,0.0,0.0,0.0,0.0,0.0,0.0,0.0,0.0,0.0,0.0,0.0,0.0,3.6448,3.7212,3.774,3.6874,3.5668,3.4924,3.3618,0.0,3.1671,3.2627,3.3646,3.37,3.4814,3.5756,3.5802,3.6366,3.7428,3.8933,3.9932,4.0985,4.2411,4.3226,4.3579,4.3579,4.4258,4.4665,4.4665,4.4609,4.4643,4.4587,4.4643,4.4609,4.4587,4.4643,4.4609,4.4587,4.4587,4.4587,4.4587,4.4587,4.4587,4.4587,4.4587,4.427,4.3654,4.3654,4.3784,4.3878,4.375,4.4075,4.4787,4.5233,4.5423,4.5552,4.6159,4.6384,4.6384,0.0,0.0,0.0,0.0,0.0,0.0,0.0,0.0,0.0,0.0,2.7176,2.6798,2.7418,2.6156,2.5301,0.0,0.0,0.0,0.0,0.0,0.0,0.0,0.0,0.0,2.738,2.8206,2.9839,3.2316,3.2555,3.3499,3.5109,3.4796,3.3844,3.2395,3.1764,3.0745,0.0,0.0,0.0,0.0,0.0,0.0,0.0,0.0,0.0,0.0,3.1814,3.2231,0.0,0.0,0.0,0.0,0.0,0.0,0.0,0.0,3.3491,3.362,3.4269,0.0,3.5126,3.4669,3.4466,3.4185,0.0,3.2985,3.2388,3.1713,3.2256,3.3208,3.4362,3.4874,3.5659,3.732,3.7636,3.8389,4.0377,4.2638,4.4401,4.5271,4.5516,4.5606,4.5506,4.5629,4.558,4.5161,4.5142,4.4981,4.4643,4.4961,4.4981,4.4643,4.4927,4.4927,4.4587,4.4587,4.4587,4.4587,4.4587,4.4587,4.4587,4.4587,4.4834,4.5168,4.5168,4.5513,4.6066,4.6006,4.6441,4.7111,4.7216,4.7617,4.8119,4.8192,4.8194,4.8194,0.0,0.0,0.0,0.0,0.0,0.0,0.0,0.0,0.0,0.0,0.0,2.6381,2.7056,2.6102,0.0,0.0,0.0,0.0,0.0,0.0,0.0,0.0,0.0,2.645,2.7612,2.8003,2.9772,3.3042,3.2921,3.3915,3.5762,3.531,3.4149,3.2395,3.1206,3.0225,0.0,0.0,0.0,0.0,3.1727,0.0,0.0,0.0,0.0,0.0,3.1333,3.1941,0.0,3.3339,3.3697,3.4028,0.0,0.0,0.0,0.0,3.3522,3.3603,3.3864,3.436,3.4836,3.473,3.4338,3.384,3.3493,3.272,3.2021,3.1673,3.2475,3.3589,3.4735,3.5819,3.6934,3.8104,3.946,4.0976,4.2798,4.4647,4.5953,4.6318,4.6389,4.6305,4.6209,4.6209,4.6112,4.5815,4.58,4.5683,4.5407,4.558,4.558,4.5302,4.5528,4.532,4.4643,4.4587,4.4587,4.4587,4.4925,4.5094,4.5128,4.5432,4.5805,4.621,4.621,4.6616,4.7293,4.7293,4.7733,4.8409,4.8409,4.8646,4.9018,4.8894,4.8894,4.8894,0.0,0.0,0.0,0.0,0.0,0.0,0.0,0.0,0.0,0.0,0.0,0.0,0.0,0.0,0.0,0.0,0.0,0.0,0.0,0.0,0.0,0.0,2.6274,2.6505,2.7852,2.7968,2.9803,3.3471,3.2906,3.3753,3.5873,3.5399,3.4164,3.2128,3.0395,2.9518,2.9407,0.0,0.0,0.0,3.0597,0.0,0.0,0.0,0.0,0.0,0.0,0.0,0.0,3.3549,3.3895,3.4203,3.4813,0.0,0.0,0.0,0.0,0.0,3.377,3.457,3.5462,3.579,3.49,3.3939,3.3832,3.2763,3.18,3.18,3.2977,3.4331,3.5367,3.711,3.8534,3.9096,4.1558,4.3878,4.5249,4.6184,4.6728,4.6682,4.6682,4.6682,4.6682,4.6635,4.66,4.6507,4.6448,4.6389,4.6341,4.6293,4.628,4.6323,4.6372,4.6044,4.5248,4.5014,4.489,4.4924,4.5557,4.5872,4.5906,4.6515,4.6853,4.6955,4.6955,4.7394,4.8071,4.8071,4.8443,4.9018,4.9018,4.9018,4.9018,4.9018,4.9018,4.8984,0.0,0.0,0.0,0.0,0.0,0.0,0.0,0.0,0.0,0.0,0.0,0.0,0.0,0.0,0.0,0.0,0.0,0.0,0.0,0.0,0.0,2.881,2.8615,2.8313,2.789,2.9252,3.0624,3.2007,3.3142,3.4573,3.6329,3.7468,3.6621,3.4057,3.156,3.0039,2.9407,2.9407,2.9853,3.0597,3.0597,0.0,0.0,0.0,0.0,0.0,0.0,0.0,0.0,3.2135,3.3017,3.4117,3.4164,0.0,0.0,0.0,0.0,0.0,3.3703,3.5046,3.582,3.419,3.388,3.383,3.3152,3.2795,3.2616,3.2616,3.3366,3.4829,3.7612,3.7934,3.8827,4.2185,4.398,4.5228,4.6044,4.7207,4.7995,4.7951,4.7951,4.7911,4.7752,4.7752,4.7548,4.7088,4.7044,4.6864,4.6401,4.6819,4.7186,4.7439,4.7761,4.8034,4.8232,4.6898,4.6192,4.6192,4.6476,4.6616,4.6616,4.6752,4.7158,4.7733,4.7733,4.8173,4.8849,4.8849,4.8917,4.9018,4.9018,4.9018,4.9018,4.9018,4.9018,4.8917,0.0,0.0,0.0,0.0,0.0,0.0,0.0,0.0,0.0,0.0,0.0,0.0,0.0,0.0,0.0,0.0,0.0,0.0,0.0,0.0,0.0,2.9274,2.9659,2.9445,2.8636,3.0232,3.1761,3.307,3.4208,3.5576,3.7101,3.6293,3.5021,3.3298,3.1052,2.9867,2.9531,2.9531,2.9717,3.0054,0.0,0.0,0.0,0.0,0.0,0.0,0.0,0.0,0.0,0.0,3.2558,3.3573,3.3944,0.0,0.0,0.0,0.0,0.0,3.3227,3.4186,3.5192,3.5577,3.6522,3.738,3.7416,3.7088,3.6541,3.5606,3.6048,3.7144,3.9003,3.9799,4.1433,4.5428,4.6202,4.6535,4.7299,4.7895,4.8267,4.8265,4.8229,4.8229,4.8151,4.8151,4.8035,4.7797,4.8156,4.8285,4.8034,4.8598,4.8996,4.9136,4.935,4.9531,4.9722,4.9137,4.8463,4.7786,4.8293,4.8514,4.8514,4.8931,4.9257,4.9491,4.9491,4.9699,4.9896,4.9896,4.9896,4.9896,4.9615,4.9257,4.8787,4.8056,4.78,4.7767,0.0,0.0,0.0,0.0,0.0,0.0,0.0,0.0,0.0,0.0,0.0,0.0,0.0,0.0,0.0,0.0,0.0,0.0,0.0,0.0,3.026,2.9612,3.0394,3.0423,2.9515,3.1152,3.2721,3.4212,3.5303,3.6479,3.7753,3.5391,3.3726,3.2683,3.0804,2.9868,2.9697,2.9697,2.9697,2.9697,0.0,0.0,0.0,0.0,0.0,0.0,0.0,0.0,0.0,0.0,0.0,0.0,0.0,0.0,0.0,3.3199,3.2804,3.273,3.2845,3.3488,3.4685,3.7137,3.8366,3.9438,4.1028,4.0473,3.9401,3.8641,3.9128,3.9909,4.0662,4.2213,4.4378,4.7278,4.7535,4.7609,4.8233,4.8306,4.8306,4.8306,4.8306,4.8306,4.8306,4.8306,4.8379,4.86,4.9108,4.9508,4.9728,5.0195,5.0556,5.0775,5.0775,5.0848,5.103,5.1221,5.0664,4.9315,4.9948,5.0287,5.0287,5.0838,5.1034,5.0964,5.0964,5.0911,5.077,5.077,5.0805,5.0662,5.0084,4.9375,4.8592,4.7535,4.7101,4.6986,0.0,0.0,0.0,0.0,0.0,0.0,0.0,0.0,0.0,0.0,0.0,0.0,0.0,0.0,0.0,0.0,0.0,0.0,0.0,0.0,3.0559,3.052,3.1284,3.1303,3.0451,3.2061,3.3373,3.4299,3.5919,3.718,3.8067,3.6872,3.5415,3.3806,3.1905,3.0684,2.9977,2.9977,2.9977,2.9977,2.9992,0.0,0.0,0.0,0.0,0.0,0.0,0.0,0.0,0.0,0.0,0.0,0.0,0.0,3.4661,3.3715,3.2902,3.2487,3.3018,3.3777,3.4941,3.7219,3.6703,3.6676,4.051,3.9549,3.8514,4.0658,4.1767,4.2548,4.3299,4.5257,4.6617,4.614,4.7278,4.8233,4.8306,4.8306,4.8306,4.8306,4.8306,4.8306,4.8306,4.8306,4.8636,4.9444,4.9481,4.9848,5.0655,5.0725,5.1092,5.1867,5.1778,5.2145,5.2999,5.2871,5.2118,5.0688,5.0916,5.1015,5.1015,5.1086,5.1086,5.1086,5.1086,5.1086,5.1086,5.1086,5.0981,5.0788,4.9996,4.9188,4.84,4.833,4.7958,4.7417,0.0,0.0,0.0,0.0,0.0,0.0,0.0,0.0,0.0,0.0,0.0,0.0,0.0,0.0,0.0,0.0,0.0,0.0,0.0,3.0288,3.0366,2.9824,3.0598,3.113,3.1303,3.2954,3.4759,3.6728,3.7861,3.8311,3.8041,3.6061,3.4494,3.3301,3.1429,3.071,3.0901,3.0366,3.0442,3.0915,3.0471,3.0254,0.0,0.0,0.0,0.0,0.0,0.0,0.0,0.0,3.2161,3.2995,3.3809,3.4434,3.4718,3.3847,3.2995,3.2409,3.2657,3.4091,3.5979,3.7784,3.8197,3.9212,4.3165,4.3735,4.3669,4.4573,4.5132,4.5273,4.4792,4.6632,4.7864,4.6801,4.7572,4.8382,4.8605,4.8604,4.8676,4.8881,4.8915,4.8813,4.8604,4.9085,4.9196,4.8822,4.9738,5.0215,5.0068,5.0545,5.1169,5.1977,5.1935,5.2339,5.3188,5.3146,5.2834,5.2287,5.24,5.2417,5.2417,5.2417,5.2371,5.2289,5.2289,5.1953,5.1427,5.1427,5.1092,5.0458,4.9293,4.8409,4.7694,4.7187,4.686,4.6707,0.0,0.0,0.0,0.0,0.0,0.0,0.0,0.0,0.0,0.0,0.0,0.0,0.0,0.0,0.0,0.0,0.0,0.0,2.9747,3.0288,3.0327,2.9747,3.0288,3.1217,3.2609,3.3749,3.5488,3.7796,3.8891,3.8839,3.7694,3.5674,3.44,3.3754,3.1927,3.1583,3.2352,3.1198,3.1032,3.1545,3.0827,3.0458,0.0,0.0,0.0,0.0,0.0,0.0,0.0,0.0,3.1676,3.2384,3.3451,3.4213,3.4556,3.3963,3.3963,3.4099,3.3781,3.5151,3.7091,3.8909,3.965,4.0978,4.5067,4.5946,4.6214,4.7504,4.7456,4.6992,4.6382,4.7417,4.8119,4.7562,4.8122,4.8711,4.8915,4.8762,4.8674,4.8896,4.8957,4.8865,4.8576,4.9185,4.9415,4.8863,4.9816,5.0288,4.9994,5.0508,5.1059,5.161,5.161,5.1903,5.2454,5.2454,5.2454,5.2454,5.2454,5.2601,5.2821,5.2821,5.2632,5.2291,5.2291,5.1919,5.1365,5.1365,5.0848,4.9997,4.8996,4.8344,4.7914,4.7287,4.7157,4.7346,0.0,0.0,0.0,0.0,0.0,0.0,0.0,0.0,0.0,0.0,0.0,0.0,0.0,0.0,0.0,0.0,0.0,0.0,3.0598,3.0598,3.0598,3.0598,3.0598,3.1797,3.4311,3.4389,3.5201,3.6903,3.8644,3.8605,3.6864,3.6052,3.5704,3.5626,3.3886,3.3576,3.4272,3.2532,3.1797,3.1758,3.0946,3.0598,3.0598,0.0,0.0,0.0,0.0,0.0,0.0,0.0,3.1707,3.1968,3.3647,3.4186,3.4199,3.4199,3.5968,3.7709,3.6741,3.7058,3.8285,4.0594,4.0587,4.1119,4.5625,4.5071,4.4825,4.8958,4.8424,4.7462,4.8245,4.7634,4.7287,4.806,4.8859,4.9356,4.9333,4.8687,4.8198,4.8138,4.8198,4.8198,4.8138,4.8534,4.915,4.993,4.9749,4.9961,5.0729,5.0765,5.0765,5.0802,5.0802,5.0802,5.0802,5.0802,5.0802,5.0802,5.0802,5.1206,5.1977,5.1977,5.1536,5.0802,5.0802,5.0802,5.0802,5.0802,5.0244,4.9395,4.9273,4.9195,4.9195,4.9195,4.9415,4.9712,0.0,0.0,0.0,0.0,0.0,0.0,0.0,0.0,0.0,0.0,0.0,0.0,0.0,0.0,0.0,0.0,0.0,0.0,2.9708,3.025,3.0327,2.9708,3.0288,3.0946,3.1719,3.288,3.4621,3.6903,3.7406,3.7135,3.6052,3.5162,3.4775,3.4775,3.4234,3.3808,3.3421,3.23,3.2145,3.2638,3.1797,3.1449,3.1449,0.0,0.0,0.0,0.0,0.0,0.0,0.0,0.0,0.0,3.3017,3.3737,3.4186,3.4212,3.4314,3.4339,3.4043,3.6757,3.9714,3.9819,4.2793,4.6033,4.7357,4.7103,4.728,4.992,4.9824,4.9224,4.8819,4.8998,4.8972,4.8362,4.8947,4.9532,4.9765,4.9591,4.9556,4.9744,4.983,4.9719,4.9478,5.0062,5.0258,4.9646,5.0043,5.0131,4.9728,4.9728,4.9924,5.0232,5.0232,5.0414,5.0802,5.0802,5.0802,5.0802,5.0802,5.0912,5.1169,5.1169,5.1022,5.0802,5.0802,5.0472,4.9958,4.9958,4.9811,4.9588,5.0017,5.0195,5.0195,5.0076,5.0095,5.0264,0.0,0.0,0.0,0.0,0.0,0.0,0.0,0.0,3.0764,3.0779,3.0753,3.0736,0.0,0.0,0.0,3.0637,3.0622,0.0,2.9885,3.0324,3.0354,2.9851,3.0336,3.0907,3.1565,3.3267,3.4543,3.5394,3.5742,3.5665,3.5162,3.5007,3.5278,3.5897,3.5897,3.5433,3.4543,3.3344,3.2957,3.3024,3.2145,3.1797,3.1797,0.0,0.0,0.0,0.0,0.0,0.0,0.0,0.0,0.0,3.2243,3.2848,3.348,3.4828,3.5817,3.6636,3.769,4.0446,4.3162,4.3701,4.574,4.7894,4.8894,4.9047,4.9276,5.0452,5.0256,4.9844,4.963,4.9723,4.9694,4.9276,4.9645,5.0012,5.0159,4.9916,4.9794,4.9963,5.0023,4.9942,4.9686,5.0291,5.0404,4.9683,4.9956,4.9943,4.9394,4.9356,4.9527,4.9758,4.9758,4.9921,5.0194,5.0083,5.0007,5.0007,5.0007,4.993,4.9811,5.0178,5.0141,4.9848,5.0178,5.0215,5.0068,5.0068,5.0068,5.0105,5.0501,5.0867,5.1161,5.1078,5.1219,5.159,0.0,0.0,0.0,0.0,0.0,0.0,0.0,3.0779,3.0779,3.0779,3.0779,3.0779,0.0,0.0,0.0,3.0703,3.0717,3.0697,3.069,3.0622,3.0599,3.0591,3.0673,3.1458,3.3083,3.4603,3.4603,3.3006,3.3857,3.4272,3.4311,3.524,3.6555,3.8102,3.8102,3.756,3.6555,3.4891,3.3692,3.2908,3.2106,3.1797,3.1797,3.1797,0.0,0.0,0.0,0.0,0.0,0.0,0.0,0.0,3.1514,3.1763,3.232,3.5418,3.8709,4.1863,4.4251,4.5813,4.7373,4.9759,4.8797,4.7855,5.0164,5.0702,5.0702,5.0702,5.0048,4.974,5.0548,5.0048,4.976,5.0489,5.0622,5.0563,5.0521,4.991,4.9411,4.9332,4.9411,4.9411,4.9332,4.9786,5.0062,5.0062,4.9792,4.9589,4.9589,4.9589,4.9532,4.9445,4.9445,4.9386,4.9333,4.9015,4.8885,4.885,4.8925,4.8787,4.853,4.9228,4.9116,4.8489,4.9334,5.0105,5.0802,5.0875,5.0912,5.0912,5.0986,5.1463,5.2087,5.2087,5.2564,5.3225,0.0,0.0,0.0,0.0,0.0,0.0,3.0779,3.0779,3.0779,3.0779,3.0779,3.0779,3.0779,3.0774,0.0,3.0703,3.0697,3.0685,3.0697,3.0685,3.0685,3.0683,3.1336,3.2144,3.3153,3.2927,3.2616,3.2221,3.2996,3.3383,3.3421,3.4969,3.6245,3.7174,3.7174,3.6323,3.4814,3.3073,3.2261,3.2068,3.1874,3.1797,3.1797,3.1797,3.1294,0.0,0.0,0.0,0.0,0.0,0.0,0.0,3.1525,3.1785,3.1929,3.2656,3.5239,3.8001,3.8616,4.2294,4.6227,4.7516,4.887,5.0028,5.0568,5.0702,5.0702,5.0702,5.0548,5.0471,5.0664,5.0548,5.0471,5.0644,5.0682,5.0682,5.0682,5.0529,5.0375,5.0375,5.0375,5.0375,5.0375,5.0489,5.0542,5.0462,5.0396,5.0352,5.0268,5.0268,5.0174,4.9872,4.9872,4.9738,4.9356,4.9356,4.9295,4.9209,4.9947,5.0215,5.0085,4.9299,4.9086,4.937,5.0178,5.0655,5.0839,5.1463,5.172,5.1793,5.2454,5.2784,5.2931,5.2931,5.3078,5.3225,0.0,0.0,0.0,0.0,0.0,0.0,0.0,0.0,3.1252,3.0857,3.0779,3.0779,3.0779,3.0779,0.0,0.0,3.0754,3.0754,3.0763,3.0767,3.072,3.0686,3.1538,3.2005,3.201,3.1987,3.1782,3.1391,3.1771,3.2344,3.318,3.4458,3.5725,3.6903,3.6903,3.5974,3.4311,3.2996,3.2174,3.1797,3.1797,3.1565,3.1255,3.1642,3.1023,3.0017,3.0443,0.0,0.0,0.0,0.0,0.0,0.0,0.0,3.1584,3.3218,3.5224,3.7541,4.0482,4.3789,4.6844,4.8536,4.9949,5.0875,5.0798,5.0798,5.0798,5.0702,5.0683,5.0702,5.0702,5.0702,5.0818,5.1202,5.0933,5.0818,5.1202,5.0933,5.0702,5.0702,5.0702,5.0702,5.0702,5.0702,5.0702,5.0663,5.0663,5.0604,5.0584,5.0584,5.0521,5.0291,5.0291,5.0159,4.9936,4.9819,4.99,5.026,5.0743,5.1187,5.1471,5.0464,5.0378,5.1119,5.129,5.1614,5.2022,5.238,5.2564,5.2637,5.3041,5.3225,5.3225,5.3225,5.3225,5.3225,0.0,0.0,0.0,0.0,0.0,0.0,0.0,0.0,0.0,3.0896,3.0789,3.075,3.0594,3.0559,3.0537,0.0,0.0,0.0,3.0581,3.0732,3.0841,3.095,3.1646,3.176,3.1178,3.1724,3.1675,3.094,3.0789,3.1576,3.3239,3.405,3.532,3.6903,3.6593,3.5626,3.4079,3.2957,3.1952,3.1187,3.1303,3.0878,3.0259,3.1071,3.053,2.9399,3.0133,3.0482,3.0598,3.0598,0.0,0.0,0.0,0.0,3.1271,3.4109,3.5826,3.7909,4.2898,4.5611,4.7658,5.0426,5.1112,5.1061,5.0941,5.0945,5.0892,5.0797,5.0721,5.0721,5.0702,5.0818,5.1087,5.1625,5.1241,5.1087,5.1625,5.1125,5.0702,5.0702,5.0702,5.0702,5.0702,5.0702,5.0702,5.0702,5.0702,5.0702,5.0702,5.0702,5.0682,5.0642,5.0642,5.064,5.0713,5.0459,5.076,5.1612,5.1726,5.2222,5.2984,5.229,5.226,5.2785,5.2528,5.2816,5.3524,5.3481,5.34,5.34,5.34,5.34,5.3396,5.3396,5.3355,5.3272,0.0,0.0,0.0,0.0,0.0,0.0,0.0,0.0,0.0,0.0,3.081,3.0512,2.9767,2.9667,2.9365,2.8625,2.9249,2.968,2.9682,0.0,0.0,3.1875,3.2027,3.2373,3.3037,3.242,3.2029,3.1903,3.117,3.1634,3.3321,3.4101,3.5377,3.6925,3.5461,3.4262,3.3112,3.0791,2.9339,2.8636,2.9342,2.9148,2.852,2.9342,2.9472,2.9321,2.9437,2.994,3.0598,3.0598,3.0636,0.0,0.0,0.0,3.0787,3.1319,3.3595,3.6133,3.7,4.1596,4.696,5.0256,5.1113,5.1094,5.1092,5.1058,5.1082,5.1043,5.0853,5.0721,5.0721,5.1279,5.1548,5.0971,5.1356,5.1548,5.0933,5.0779,5.0702,5.0702,5.0702,5.0702,5.0702,5.0702,5.0702,5.0702,5.0702,5.0702,5.0702,5.0702,5.0702,5.0702,5.0702,5.097,5.1621,5.1621,5.2039,5.2794,5.3522,5.4326,5.5092,5.4683,5.3989,5.3176,5.3865,5.4246,5.4322,5.4322,5.4292,5.4225,5.4225,5.4228,5.4123,5.4123,5.3944,5.3604,0.0,0.0,0.0,0.0,0.0,0.0,0.0,0.0,0.0,0.0,0.0,3.0652,3.0259,2.9796,2.9332,2.8945,2.8867,2.8828,2.8827,2.9647,3.0309,3.0696,3.1129,3.1561,3.1913,3.1128,3.0933,3.1443,3.0072,3.0776,3.3359,3.3231,3.4276,3.6261,3.4583,3.3324,3.2353,3.0265,2.8861,2.8138,2.8488,2.957,3.082,2.9233,2.9835,3.1298,2.9331,2.9186,2.9931,2.9913,3.0296,3.0655,3.0188,0.0,0.0,0.0,3.1841,3.4634,3.8489,4.2783,4.7006,5.0406,5.1265,5.1261,5.1215,5.1186,5.1206,5.1114,5.1411,5.1488,5.091,5.1086,5.1318,5.1414,5.1318,5.126,5.1356,5.0971,5.0702,5.0702,5.0702,5.0702,5.0702,5.0702,5.0702,5.0702,5.0702,5.0702,5.0702,5.0702,5.0702,5.0702,5.1125,5.1528,5.1854,5.2374,5.3028,5.387,5.4677,5.5292,5.5615,5.5485,5.4995,5.4325,5.4427,5.4516,5.4547,5.4516,5.4452,5.4458,5.4458,5.4425,5.4392,5.4397,5.4225,5.4086,0.0,0.0,0.0,0.0,0.0,0.0,0.0,0.0,0.0,0.0,0.0,3.0701,3.0506,0.0,0.0,0.0,2.8318,2.8041,2.8303,2.8928,2.9357,2.9593,3.0177,3.0489,3.0489,2.9904,2.9826,3.0255,2.9162,3.0138,3.3066,3.2634,3.3669,3.5804,3.4289,3.3015,3.187,3.0152,2.889,2.8201,2.9063,3.0735,3.2565,3.1465,3.2537,3.4153,3.0676,2.9995,3.0585,2.9702,2.9897,3.0379,2.9751,3.003,0.0,0.0,0.0,3.2891,3.9101,4.2344,4.5,4.9062,5.0273,5.0664,5.1484,5.1668,5.1695,5.1802,5.2341,5.2495,5.1498,5.1429,5.164,5.1971,5.151,5.1241,5.1588,5.1126,5.0741,5.0741,5.0702,5.0683,5.0683,5.0721,5.0702,5.0702,5.0702,5.0702,5.0702,5.0894,5.101,5.101,5.1818,5.2356,5.2549,5.3395,5.4164,5.4818,5.5395,5.5703,5.5703,5.5703,5.5554,5.5314,5.4971,5.4819,5.4876,5.4819,5.479,5.476,5.476,5.476,5.4769,5.4708,5.4616,5.4554,0.0,0.0,0.0,0.0,0.0,0.0,0.0,0.0,0.0,0.0,0.0,3.0507,2.9648,2.886,2.8032,2.7212,2.7095,2.7407,2.8264,2.8342,2.8732,2.9552,2.963,0.0,2.9669,2.9632,2.9201,2.8459,2.9162,3.045,3.2168,3.2988,3.4276,3.596,3.4961,3.3578,3.1909,3.0131,2.8918,2.8473,3.1721,3.2193,3.1532,3.7061,3.8741,3.7678,3.4273,3.3607,3.3846,3.0604,2.9562,2.9648,2.9609,2.9648,2.9492,0.0,0.0,0.0,3.5117,3.7031,3.918,4.5078,4.7187,4.8633,5.1875,5.2617,5.2841,5.3696,5.3822,5.3565,5.2669,5.3026,5.3198,5.2348,5.2204,5.1914,5.0987,5.0871,5.0853,5.0812,5.072,5.0701,5.0701,5.0702,5.0702,5.0702,5.0702,5.0702,5.0702,5.1433,5.1856,5.1856,5.2702,5.3549,5.4357,5.5164,5.5588,5.5626,5.5665,5.5703,5.5703,5.5703,5.5703,5.5682,5.566,5.5621,5.5621,5.5621,5.5599,5.5531,5.5531,5.5508,5.5437,5.5437,5.525,5.4971,0.0,0.0,0.0,0.0,0.0,0.0,0.0,0.0,0.0,0.0,0.0,0.0,0.0,2.8815,2.7952,2.7095,2.6507,2.6312,2.6624,2.7132,2.7835,2.8732,2.9318,2.9826,3.0372,2.9318,2.8889,2.9123,2.7756,2.8537,3.127,3.1582,3.2675,3.4276,3.3396,3.2656,3.1873,2.9049,2.7678,2.7723,3.1164,3.3826,3.5976,3.8125,4.0505,4.2104,3.8122,3.5818,3.4491,3.3241,3.1403,2.9486,2.8944,2.8788,2.8827,2.9062,2.9375,3.0547,3.4844,3.6211,3.7656,4.2578,4.5703,4.8086,4.9844,5.1953,5.3476,5.3229,5.3578,5.3686,5.2824,5.2805,5.2597,5.1664,5.1509,5.1415,5.1063,5.0999,5.1005,5.0868,5.0829,5.0812,5.0756,5.0776,5.0758,5.0721,5.0721,5.0933,5.1433,5.1741,5.2164,5.2741,5.3587,5.4434,5.5241,5.5549,5.5703,5.5703,5.5703,5.5703,5.5703,5.5703,5.5703,5.5703,5.5703,5.5703,5.5703,5.5703,5.5703,5.5682,5.5682,5.566,5.5638,5.5593,5.5485,5.5375,0.0,0.0,0.0,0.0,0.0,0.0,0.0,0.0,3.0806,3.0814,0.0,0.0,0.0,0.0,2.8264,2.7095,2.6195,2.5687,2.5687,2.6234,2.7093,2.8264,2.885,2.9552,3.0372,2.9318,2.8732,2.8735,2.7288,2.7756,2.9982,3.0528,3.1582,3.291,3.1789,3.1753,3.2376,3.0117,2.8828,2.8672,3.3281,3.5975,3.7533,4.0457,4.2636,4.3723,4.0558,3.8336,3.6819,3.6506,3.4892,3.265,3.0652,2.8823,2.7613,2.8475,2.8945,2.9844,3.3008,3.4297,3.5742,4.0039,4.2656,4.5117,4.8867,5.082,5.2187,5.332,5.3789,5.3711,5.2851,5.2641,5.2367,5.1703,5.139,5.1201,5.1152,5.1141,5.1139,5.1023,5.0999,5.0957,5.0902,5.0846,5.0812,5.0776,5.0738,5.1086,5.1876,5.2222,5.2877,5.401,5.4587,5.5164,5.5703,5.5703,5.5703,5.5703,5.5703,5.5703,5.5703,5.5703,5.5703,5.5703,5.5703,5.5703,5.5703,5.5703,5.5703,5.5703,5.5703,5.5703,5.5703,5.566,5.5638,5.5638,0.0,0.0,0.0,0.0,0.0,0.0,3.0801,0.0,3.0801,3.0801,0.0,0.0,0.0,0.0,0.0,2.7212,2.6273,2.5765,2.5726,2.5726,2.6468,2.8186,2.8303,2.8693,2.9593,2.9554,2.8735,2.7056,2.7835,2.8225,2.8303,2.9943,3.1192,3.1973,3.0333,3.0997,3.3261,3.3195,3.2262,3.1403,3.8158,3.8471,3.5815,4.4315,4.5519,4.2552,4.1693,4.1342,4.1108,4.0285,3.9808,3.885,3.4576,2.9789,2.5885,2.6753,2.7616,2.8476,0.0,0.0,0.0,3.7383,3.7851,3.9726,4.8945,4.9219,4.8945,5.4062,5.4414,5.3594,5.2812,5.2656,5.2656,5.2578,5.1914,5.1361,5.1232,5.1268,5.1281,5.1225,5.1139,5.1115,5.1115,5.099,5.0902,5.0941,5.0868,5.118,5.2011,5.2897,5.4072,5.5626,5.5703,5.5703,5.5703,5.5703,5.5703,5.5703,5.5703,5.5703,5.5703,5.5703,5.5703,5.5703,5.5703,5.5703,5.5703,5.5703,5.5703,5.5703,5.5703,5.5703,5.5703,5.5703,5.5703,5.5703,0.0,0.0,0.0,0.0,0.0,3.0801,3.0801,3.0801,3.0801,0.0,0.0,0.0,3.006,2.9747,2.9398,2.893,2.8069,2.7327,2.6663,2.6039,2.6195,2.7327,2.7952,2.8693,2.9593,2.8967,2.842,2.7952,2.6937,2.6741,2.7366,2.8498,2.9474,3.0294,3.0411,3.0528,3.0528,2.8619,2.8973,3.1079,3.4242,3.7053,3.9864,4.4781,4.7588,4.8876,4.8642,4.6913,4.4748,4.4448,4.1045,3.6094,3.122,2.8305,2.6704,2.6942,2.7579,2.8544,2.9995,0.0,0.0,0.0,0.0,0.0,4.2187,4.3945,4.5898,4.9844,4.9961,4.9844,5.1445,5.1758,5.1758,5.1719,5.1562,5.1406,5.1359,5.1365,5.1367,5.1281,5.1265,5.1219,5.1172,5.1152,5.1346,5.1857,5.1918,5.2464,5.3802,5.4747,5.5401,5.5766,5.5801,5.578,5.5703,5.5703,5.5703,5.5703,5.5703,5.5703,5.5703,5.5703,5.5703,5.5703,5.5703,5.5703,5.5703,5.5703,5.5703,5.5703,5.5703,5.5703,5.5703,5.5703,5.5703,5.5703,0.0,0.0,3.0919,3.127,3.1348,3.1465,3.1816,3.1582,3.1465,0.0,0.0,0.0,3.1231,3.0841,3.0489,3.0138,2.9318,2.8303,2.7095,2.6507,2.6468,2.6978,2.7835,2.8693,2.9593,2.9435,2.9006,2.8303,2.7288,2.6663,2.6468,2.7366,2.803,2.8539,2.9006,2.9162,2.8928,2.6663,2.7483,3.0684,3.5318,3.8085,4.0001,4.4904,4.7323,4.8298,4.9352,4.7747,4.5435,4.7478,4.3413,3.6845,3.3472,3.039,2.7852,2.7153,2.8013,2.9428,3.0397,3.0629,3.1111,3.3262,0.0,0.0,4.0859,4.2305,4.4101,4.9414,4.9805,4.9648,5.1133,5.1406,5.1406,5.1406,5.1406,5.1406,5.1406,5.1406,5.1406,5.1367,5.1328,5.1325,5.1288,5.1245,5.1554,5.2353,5.236,5.2983,5.4591,5.5538,5.5981,5.5985,5.6001,5.5955,5.5822,5.5822,5.5805,5.5766,5.5766,5.5766,5.5745,5.5745,5.5724,5.5703,5.5703,5.5703,5.5703,5.5703,5.5703,5.5703,5.5703,5.5703,5.5703,5.5703,5.5703,5.5703,0.0,3.0801,3.1075,3.1934,3.209,3.2402,3.3261,3.2753,3.2519,0.0,3.2714,3.2597,3.3573,3.291,3.2051,3.1153,3.0333,2.9086,2.7251,2.7056,2.6978,2.6861,2.7795,2.8615,2.932,3.0216,2.9826,2.8147,2.8147,2.7327,2.5726,2.6507,2.6861,2.6861,2.6861,2.7288,2.7913,2.6663,2.7639,3.0679,3.8346,4.0014,3.8605,4.489,4.6084,4.4759,4.7011,4.6371,4.5053,4.9352,4.6173,4.013,3.8573,3.4602,3.0086,2.7955,2.9157,3.1113,3.0914,3.0844,3.1431,3.3735,3.2616,0.0,4.156,4.1717,4.2147,4.9453,5.0351,4.9961,5.0469,5.0703,5.082,5.082,5.1094,5.1289,5.1406,5.1406,5.1406,5.1406,5.1406,5.1406,5.1406,5.1445,5.18,5.269,5.274,5.337,5.4898,5.5635,5.6106,5.6191,5.6195,5.6155,5.6001,5.6039,5.5981,5.5943,5.5943,5.5924,5.5845,5.5845,5.5787,5.5745,5.5724,5.5745,5.5707,5.5724,5.5724,5.5703,5.5703,5.5703,5.5703,5.5703,5.5703,5.5703,3.0801,3.0801,3.1075,3.1934,3.209,3.2402,3.3261,3.3261,3.3222,3.3378,3.3261,3.3768,3.5327,3.4705,3.3846,3.2988,3.2129,3.0606,2.8186,2.7405,2.6704,2.5961,2.7444,2.8069,2.7524,2.9045,2.9006,2.7251,2.7251,2.6702,2.5687,2.5883,2.5961,2.5961,2.5961,2.6039,2.6312,2.8108,3.0323,3.2795,3.4467,3.8059,4.2627,4.5319,4.7805,4.987,5.0238,5.0042,4.9481,4.8952,4.7264,4.4538,3.9649,3.7799,3.6464,3.136,3.2133,3.4311,3.2898,3.2501,3.2583,3.3147,3.2921,0.0,3.4134,3.4057,3.4952,3.933,4.0076,4.1051,4.4566,4.6363,4.7301,4.7301,4.9062,5.0664,5.1328,5.1406,5.1406,5.1406,5.1406,5.1406,5.1406,5.2031,5.2771,5.3575,5.4813,5.5664,5.5995,5.6265,5.6335,5.6212,5.6302,5.6315,5.6161,5.6167,5.6175,5.6136,5.6136,5.6136,5.6117,5.602,5.602,5.6106,5.5924,5.5904,5.5917,5.5885,5.5787,5.5703,5.5703,5.5703,5.5703,5.5703,5.5703,5.5703,3.0799,3.0801,3.1192,3.2519,3.2753,3.3183,3.451,3.4315,3.4354,3.5213,3.5369,3.5681,3.654,3.5486,3.4354,3.3495,3.2597,3.1192,2.9084,2.8147,2.7249,2.639,2.7171,2.7639,2.7639,2.8498,2.8537,2.7639,2.7212,2.6546,2.5687,2.5687,2.6802,2.8714,2.661,2.7075,2.9338,2.8603,3.0016,3.3044,3.6484,4.0637,4.5102,4.7592,4.9621,5.1136,5.0959,5.113,5.1057,4.8866,4.6639,4.447,4.2395,4.0318,3.7964,3.4174,3.4812,3.6279,3.4159,3.3275,3.2891,3.2942,3.2682,0.0,0.0,3.3805,3.5079,3.9427,3.9676,4.0147,4.3661,4.4323,4.4792,4.608,4.7764,4.9058,4.9451,5.0586,5.1406,5.1406,5.1406,5.1562,5.1992,5.2422,5.3203,5.4453,5.5689,5.6414,5.6377,5.6437,5.6473,5.6406,5.644,5.644,5.6352,5.6355,5.6325,5.6238,5.6238,5.6238,5.6199,5.6146,5.6149,5.6188,5.6084,5.6084,5.6093,5.604,5.5962,5.5845,5.5766,5.5745,5.5745,5.5724,5.5703,5.5703,3.083,3.0794,3.1304,3.2865,3.3297,3.3925,3.5525,3.5291,3.5447,3.6852,3.7321,3.7555,3.7555,3.6687,3.5779,3.4921,3.4324,3.2994,3.0668,2.9887,2.8954,2.7795,2.7407,2.7717,2.8771,2.8459,2.8225,2.8069,2.7327,2.6544,2.5681,2.5681,2.7554,3.0814,2.8091,2.8944,3.2234,2.9745,3.0664,3.4285,3.9961,4.3233,4.5035,4.8632,4.9998,5.01,5.0675,5.1376,5.1617,4.9066,4.6378,4.4152,4.4364,4.2228,3.9123,3.6317,3.7185,3.8447,3.5301,3.4045,3.3506,3.3006,3.2579,3.2673,0.0,0.0,0.0,4.0384,4.0299,4.0235,4.2698,4.2311,4.2315,4.4458,4.5792,4.6546,4.636,4.8396,5.0117,5.0625,5.125,5.1875,5.2383,5.2461,5.3281,5.5312,5.5664,5.5986,5.6498,5.6509,5.6544,5.6601,5.6601,5.6562,5.6523,5.6523,5.6473,5.6354,5.6354,5.6315,5.6276,5.6276,5.6251,5.6265,5.6239,5.6213,5.6233,5.6222,5.6184,5.6029,5.5885,5.5807,5.5807,5.5745,5.5724,5.5724,3.094,3.0806,3.1094,3.2069,3.2901,3.3729,3.4705,3.5408,3.5916,3.6111,3.7477,3.8456,3.8456,4.0115,4.0914,4.0128,4.048,3.882,3.4146,3.3764,3.2717,3.0487,2.8967,2.8889,3.0489,2.9045,2.7913,2.7134,2.7056,2.6537,2.5609,2.5609,2.6242,2.7498,2.9986,3.0613,3.0029,3.331,3.6697,3.9936,4.149,4.0991,3.9877,4.4683,4.6461,4.6844,5.0394,5.211,5.2318,4.9832,4.8723,4.7537,4.2451,4.3044,4.4288,3.7433,3.9253,4.227,3.6839,3.5815,3.5738,3.3468,3.3404,3.3416,3.1441,0.0,3.2347,3.3014,0.0,3.4563,3.6425,0.0,0.0,3.9257,4.1363,4.2714,4.1943,4.3425,4.5421,4.7773,5.0703,5.2305,5.1601,5.1562,5.2891,5.6172,5.4375,5.414,5.6478,5.6595,5.6598,5.6601,5.6601,5.6601,5.6601,5.6601,5.6562,5.656,5.656,5.656,5.656,5.6482,5.6481,5.6551,5.6354,5.6308,5.6367,5.6316,5.6271,5.6251,5.6062,5.5924,5.5885,5.5885,5.5865,5.5787,3.0886,3.1144,3.1629,3.204,3.3258,3.4276,3.4627,3.6306,3.7516,3.7516,3.8531,3.9507,4.0015,4.0071,4.0304,4.0852,4.0684,3.9228,3.6122,3.5453,3.4068,3.1658,3.0411,3.0052,3.0735,2.9097,2.8033,2.7653,2.6645,2.5931,2.5556,2.5556,2.7524,3.113,3.1584,3.3568,3.6488,3.5902,3.6726,3.8577,3.943,3.9169,3.9092,4.6499,4.9566,5.0084,5.1782,5.2877,5.3416,5.2346,4.971,4.7035,4.8012,4.551,4.1972,4.0781,4.0837,4.0415,3.6555,3.6772,3.7241,3.3763,3.4249,3.4658,3.1186,3.1083,3.198,3.3003,0.0,0.0,0.0,0.0,0.0,0.0,3.933,4.0135,4.0333,0.0,4.3737,4.5857,0.0,0.0,5.1172,5.1875,5.3398,5.6367,5.418,5.3828,5.6445,5.6601,5.6601,5.6601,5.6601,5.6601,5.6601,5.6601,5.6601,5.6601,5.6601,5.6601,5.6601,5.6562,5.6562,5.6601,5.6512,5.6471,5.652,5.6485,5.6464,5.6407,5.6319,5.6191,5.6057,5.6078,5.602,5.5905,3.1792,3.1825,3.2049,3.2318,3.3618,3.4792,3.526,3.7132,3.8502,3.8553,3.9451,4.0473,4.1342,4.1115,4.1448,4.2791,4.271,4.1618,3.9469,3.8083,3.6712,3.5221,3.2556,3.1612,3.2733,2.9975,2.8479,2.843,2.6683,2.5977,2.6191,2.5687,2.7984,3.249,3.2458,3.5379,4.0222,3.8376,3.8607,4.0256,4.0655,4.1475,4.3063,4.8625,5.1568,5.2843,5.3072,5.3569,5.3989,5.3301,5.0206,4.7264,5.0627,4.6959,4.182,4.3848,4.3235,4.1167,3.8063,3.8661,3.9051,3.4416,3.4595,3.4966,3.1263,3.1237,3.2352,3.3583,3.3774,0.0,0.0,0.0,3.5329,3.7027,0.0,3.7558,0.0,3.9159,0.0,0.0,0.0,0.0,0.0,5.0781,5.207,5.5625,5.3242,5.3086,5.6406,5.6601,5.6601,5.6601,5.6601,5.6601,5.6601,5.6601,5.6601,5.6601,5.6601,5.6601,5.6601,5.6601,5.6601,5.6601,5.6601,5.6601,5.6601,5.6602,5.6569,5.6524,5.6542,5.642,5.6296,5.6233,5.6156,5.604,3.4179,3.2938,3.2141,3.2908,3.3805,3.4964,3.6673,3.7713,3.833,3.841,3.9902,4.1329,4.2275,4.4967,4.7081,4.7973,4.9221,4.8635,4.5435,4.2909,4.1923,4.2796,3.5795,3.3766,3.7861,3.2244,2.9271,2.9278,2.7569,2.7147,2.7881,2.6188,2.6369,2.8275,3.2262,3.5133,3.7205,4.1024,4.5089,4.8837,4.801,5.004,5.3173,4.9439,4.9991,5.2919,5.376,5.4065,5.3722,5.1238,5.0283,4.9595,4.6538,4.6462,4.7226,4.5799,4.6985,4.7695,4.2849,4.2176,4.1464,3.5608,3.4199,3.3583,3.1006,3.1698,3.2891,3.2929,3.4276,3.5468,3.5545,3.5599,3.5422,3.4653,3.4691,0.0,0.0,0.0,0.0,0.0,0.0,0.0,0.0,4.7226,4.7695,0.0,5.0937,5.125,5.6328,5.6601,5.6601,5.6601,5.6601,5.6601,5.6601,5.6601,5.6601,5.6601,5.6601,5.6601,5.6601,5.6601,5.6601,5.6601,5.6601,5.6601,5.6601,5.6601,5.6601,5.6601,5.6601,5.6571,5.6572,5.6377,5.626,5.6193,3.5778,3.5033,3.4218,3.4002,3.5172,3.6509,3.7665,3.8568,3.95,4.0635,4.1801,4.3287,4.524,4.6395,4.753,4.8839,4.9375,4.8683,4.6453,4.5009,4.3898,4.3208,3.8584,3.6637,3.8028,3.3914,3.1158,2.9957,2.8869,2.8473,2.8674,2.6978,2.7691,3.0506,3.299,3.6619,4.0943,4.2869,4.5476,4.8328,4.8635,4.9893,5.162,5.1897,5.3058,5.4562,5.4868,5.4982,5.483,5.3989,5.2155,5.0397,5.0932,4.8449,4.5621,4.7346,4.6849,4.551,4.4442,4.5533,4.5628,3.9763,3.8284,3.7133,3.2993,3.2481,3.2891,3.2891,3.4699,3.6122,3.5622,3.5534,3.5306,3.4551,3.4029,0.0,0.0,0.0,0.0,0.0,0.0,0.0,0.0,0.0,0.0,0.0,5.1758,0.0,5.6406,5.6601,5.6601,5.6601,5.6601,5.6601,5.6601,5.6601,5.6601,5.6601,5.6601,5.6601,5.6601,5.6601,5.6601,5.6601,5.6601,5.6601,5.6601,5.6601,5.6601,5.6601,5.6601,5.6599,5.6585,5.6507,5.6468,5.638,3.6934,3.6181,3.5366,3.5229,3.6394,3.7517,3.8098,3.9646,4.1144,4.224,4.3402,4.4989,4.721,4.7695,4.8453,5.0066,5.0394,4.9795,4.8086,4.7242,4.6454,4.577,4.2502,4.093,4.1514,3.7343,3.443,3.2952,3.0945,2.9971,2.9932,2.8241,2.8626,3.0816,3.2464,3.661,4.2546,4.3924,4.6827,5.055,5.1123,5.1658,5.2308,5.3951,5.418,5.376,5.4982,5.5403,5.5403,5.5403,5.3951,5.2384,5.4027,5.1162,4.7608,5.0115,4.8892,4.6691,4.6699,4.8094,4.8302,4.3063,4.1913,4.0802,3.5776,3.5129,3.5504,3.5182,3.5965,3.7171,3.8716,3.7098,3.5584,3.5669,3.4292,0.0,0.0,3.3216,0.0,0.0,0.0,0.0,0.0,0.0,0.0,0.0,0.0,0.0,0.0,5.6601,5.6601,5.6601,5.6601,5.6601,5.6601,5.6601,5.6601,5.6601,5.6601,5.6601,5.6601,5.6601,5.6601,5.6601,5.6601,5.6601,5.6601,5.6601,5.6601,5.6601,5.6601,5.6601,5.6601,5.6601,5.6562,5.6523,3.7589,3.6511,3.5752,3.6555,3.7392,3.8007,3.8161,4.0921,4.3069,4.325,4.4762,4.6529,4.8329,4.9097,5.0125,5.1702,5.2411,5.2117,5.055,4.9679,4.9564,5.0397,4.7274,4.6299,4.7941,4.2163,3.875,3.7852,3.3691,3.1621,3.1621,2.9896,2.9091,2.9206,3.0776,3.5277,4.1801,4.4266,4.9213,5.5403,5.5403,5.5288,5.5174,5.5326,5.3301,5.0741,5.418,5.5403,5.5403,5.5403,5.5403,5.5403,5.5365,5.418,5.2957,5.3798,5.2881,5.1276,4.9755,4.9931,4.9609,4.5553,4.5055,4.4212,3.9308,3.944,4.036,3.9517,3.8207,3.8799,4.4154,4.0,3.6211,3.754,0.0,0.0,0.0,0.0,0.0,0.0,0.0,0.0,0.0,0.0,0.0,0.0,0.0,0.0,0.0,5.6484,5.6484,5.6601,5.6601,5.6601,5.6601,5.6601,5.6601,5.6601,5.6601,5.6601,5.6601,5.6601,5.6601,5.6601,5.6601,5.6601,5.6601,5.6601,5.6601,5.6601,5.6601,5.6601,5.6601,5.6601,5.6601,5.6601,3.6987,3.7562,3.7808,3.6803,3.6848,3.7877,4.0345,4.2019,4.3635,4.5458,4.7739,4.981,5.148,5.1798,5.2058,5.2518,5.27,5.2614,5.2193,5.1391,5.1314,5.2117,4.8968,4.7668,4.8777,4.3006,3.9541,3.8699,3.5185,3.313,3.244,3.0752,3.0331,3.0944,3.1312,3.5583,4.2623,4.4496,4.9213,5.5403,5.5403,5.3874,5.1888,5.4448,5.3301,5.0741,5.418,5.5403,5.5403,5.5403,5.5403,5.5288,5.4639,5.3683,5.2843,5.3072,5.2422,5.1773,5.2575,5.2982,5.26,5.0268,4.8417,4.6526,4.3962,4.3273,4.3101,4.2871,4.3503,4.3636,4.1967,3.9807,3.7382,0.0,0.0,0.0,0.0,0.0,0.0,0.0,0.0,0.0,0.0,0.0,0.0,0.0,0.0,0.0,5.6426,0.0,5.4609,5.6523,5.6601,5.6601,5.6601,5.6601,5.6601,5.6601,5.6601,5.6601,5.6601,5.6601,5.6601,5.6601,5.6601,5.6601,5.6601,5.6601,5.6601,5.6601,5.6601,5.6601,5.6601,5.6601,5.6601,5.6601,3.7666,3.9023,3.9768,3.8498,3.8738,3.983,4.189,4.2619,4.3809,4.6278,4.8477,5.0329,5.1582,5.269,5.3531,5.3913,5.3951,5.3607,5.2843,5.3072,5.311,5.2805,5.1735,5.1353,5.1849,4.7133,4.3713,4.1762,3.8032,3.5063,3.2728,3.1426,3.0904,3.1019,3.1704,3.5223,4.0883,4.5528,4.9671,5.3301,5.4791,5.4256,0.0,5.4677,5.4218,5.2766,5.4715,5.5403,5.5403,5.5403,5.5403,5.525,5.4371,5.3492,5.2728,5.2384,5.1964,5.1811,5.2766,5.3531,5.3874,5.2919,5.1911,5.0459,4.8051,4.7155,4.6793,4.6793,4.6431,4.6261,4.6835,4.2984,3.8232,0.0,0.0,0.0,0.0,0.0,0.0,0.0,0.0,0.0,0.0,0.0,0.0,0.0,0.0,0.0,0.0,0.0,5.3903,5.6523,5.6598,5.6598,5.6601,5.6601,5.6601,5.6595,5.6601,5.6601,5.6601,5.6601,5.6601,5.6601,5.6601,5.6601,5.6601,5.6601,5.6601,5.6601,5.6601,5.6601,5.6601,5.6601,5.6601,5.6601,3.8706,4.0424,4.1417,4.0381,4.1566,4.2791,4.3407,4.3522,4.4401,4.6793,4.8646,5.0015,5.0703,5.2881,5.46,5.5326,5.5403,5.4753,5.3225,5.4562,5.4715,5.3225,5.46,5.5403,5.5403,5.204,4.8602,4.5125,4.0998,3.6795,3.2501,3.1828,3.1026,3.0261,3.1943,3.489,3.9109,4.6975,5.0527,5.1152,5.4155,5.5403,5.5403,5.5403,5.5403,5.5403,5.5403,5.5403,5.5403,5.5403,5.5403,5.525,5.4371,5.3492,5.2652,5.1964,5.1697,5.1658,5.1888,5.2996,5.4142,5.4256,5.483,5.4639,5.1658,5.0971,5.0971,5.0971,4.8662,4.8302,5.3722,4.7141,3.9276,3.4326,0.0,0.0,0.0,0.0,0.0,0.0,0.0,0.0,0.0,0.0,0.0,0.0,0.0,0.0,0.0,0.0,5.3536,5.6523,5.6588,5.6585,5.6601,5.6601,5.6597,5.661,5.6597,5.6601,5.6601,5.6601,5.6601,5.6601,5.6601,5.6601,5.6601,5.6601,5.6601,5.6601,5.6601,5.6601,5.6601,5.6601,5.6601,5.6601,3.8056,4.0425,4.1896,3.9641,4.2053,4.4789,4.6304,4.715,4.8085,4.948,5.1735,5.3263,5.3416,5.4486,5.525,5.5403,5.5403,5.5288,5.4982,5.525,5.525,5.4982,5.525,5.5403,5.5403,5.204,4.8296,4.4246,4.0731,3.6489,3.1637,3.1484,3.0987,3.0261,3.1943,3.6691,4.3777,4.8357,5.1739,5.4097,5.5031,5.5403,5.5403,5.5403,5.5403,5.5403,5.5403,5.5403,5.5403,5.5403,5.5403,5.525,5.4371,5.3492,5.2766,5.2614,5.2117,5.1888,5.3301,5.3874,5.4256,5.4982,5.5288,5.525,5.4639,5.4524,5.4524,5.4524,5.4027,5.3173,5.1553,4.6967,4.2008,3.7655,0.0,0.0,0.0,0.0,0.0,0.0,0.0,0.0,0.0,0.0,0.0,0.0,0.0,0.0,0.0,0.0,5.1743,0.0,5.6591,5.6585,5.6618,5.6591,5.6593,5.6588,5.6582,5.6585,5.6595,5.6595,5.6595,5.6597,5.6601,5.6601,5.6601,5.6601,5.6601,5.6601,5.6601,5.6601,5.6601,5.6601,5.6601,5.6601,4.0488,4.1844,4.286,4.2449,4.4497,4.6852,4.8657,4.9909,5.0628,5.0658,5.1904,5.2805,5.2805,5.4371,5.5403,5.5403,5.5403,5.5403,5.5403,5.5403,5.5403,5.5403,5.5403,5.5403,5.5403,5.3798,5.0245,4.4666,4.2183,3.7941,3.2057,3.1178,3.0567,3.0338,3.3574,3.7675,4.2446,4.7564,5.0695,5.2381,5.4306,5.5233,5.5403,5.5403,5.5403,5.5403,5.5403,5.5403,5.5326,5.4868,5.4715,5.4562,5.3683,5.3148,5.2805,5.2805,5.2843,5.3072,5.3874,5.4448,5.4868,5.5288,5.5403,5.5403,5.5403,5.5403,5.5403,5.5403,5.5403,5.4371,5.1017,4.6946,4.3427,4.1415,0.0,0.0,0.0,0.0,0.0,0.0,0.0,0.0,0.0,0.0,0.0,0.0,0.0,0.0,0.0,0.0,5.1187,0.0,0.0,5.651,5.6494,5.6514,5.6489,5.6491,5.6558,5.661,5.6582,5.6582,5.6582,5.6582,5.6588,5.6595,5.6599,5.6601,5.6601,5.6601,5.6601,5.6601,5.6601,5.6601,5.6601,5.6601,4.3284,4.3804,4.4537,4.5584,4.7041,4.8619,5.0138,5.1713,5.2451,5.1541,5.1706,5.1929,5.2018,5.3963,5.5286,5.5403,5.5403,5.5403,5.5403,5.5403,5.5403,5.5403,5.5403,5.5377,5.526,5.526,5.2183,4.5864,4.389,3.9681,3.3337,3.1378,3.0882,3.1851,3.5869,3.9223,4.222,4.7417,5.0139,5.1252,5.404,5.5379,5.567,5.5861,5.5823,5.567,5.567,5.5556,5.5288,5.4409,5.4218,5.4256,5.3569,5.3225,5.3072,5.3072,5.3569,5.4142,5.4333,5.4868,5.5403,5.5403,5.5403,5.5403,5.5403,5.5403,5.5403,5.5403,5.5403,5.4371,5.1017,4.8264,4.6105,4.4824,0.0,0.0,0.0,0.0,0.0,0.0,0.0,0.0,0.0,0.0,0.0,0.0,0.0,0.0,5.0489,0.0,0.0,0.0,5.587,5.5781,5.5786,5.616,5.6332,5.6358,5.6471,5.6553,5.6553,5.6563,5.6606,5.6606,5.6606,5.6614,5.6591,5.6599,5.6601,5.6601,5.6601,5.6601,5.6601,5.6601,5.6601,5.6601,4.4499,4.5975,4.7363,4.6708,4.8311,4.9732,4.9921,5.201,5.3423,5.2874,5.2827,5.3025,5.3366,5.4267,5.499,5.5377,5.5403,5.5403,5.5403,5.5403,5.5403,5.5403,5.5403,5.5233,5.4836,5.4836,5.2529,4.7733,4.4825,4.073,3.5526,3.2657,3.3173,3.6604,3.8338,4.2789,4.9041,5.0259,5.2416,5.504,5.6036,5.6446,5.6549,5.7351,5.716,5.6473,5.6473,5.6014,5.5288,5.4409,5.4639,5.525,5.5174,5.46,5.3989,5.3989,5.4027,5.4256,5.5059,5.5326,5.5403,5.5403,5.5403,5.5403,5.5403,5.5403,5.5403,5.5403,5.5403,5.4371,5.0932,5.2499,5.2575,4.715,4.792,0.0,0.0,0.0,4.7261,0.0,0.0,0.0,0.0,0.0,0.0,0.0,4.2563,0.0,0.0,0.0,0.0,5.3813,5.388,5.3868,5.3856,5.5384,5.6122,5.611,5.6271,5.6324,5.6324,5.6509,5.6606,5.6606,5.6606,5.6606,5.661,5.6588,5.6595,5.6595,5.6595,5.6599,5.6601,5.6601,5.6601,5.6601,4.7537,4.7484,4.7959,4.9604,4.9787,5.0223,5.1669,5.2776,5.3293,5.3158,5.3495,5.3842,5.4005,5.4307,5.456,5.4723,5.4754,5.4754,5.4754,5.4754,5.4754,5.4754,5.4754,5.4692,5.4495,5.4495,5.2591,4.869,4.505,4.1167,3.7174,3.5442,3.7055,4.1526,4.4339,4.7451,5.075,5.2865,5.428,5.5175,5.5425,5.5561,5.5551,5.5893,5.5968,5.5861,5.5861,5.567,5.5441,5.5556,5.5174,5.4639,5.4639,5.4371,5.4218,5.4715,5.4868,5.4982,5.5326,5.5403,5.5403,5.5403,5.5403,5.5403,5.5403,5.5403,5.5403,5.5403,5.5403,5.4982,5.3607,5.2805,5.2231,5.1888,5.0994,5.1185,0.0,0.0,0.0,0.0,0.0,0.0,0.0,0.0,0.0,0.0,0.0,0.0,0.0,0.0,0.0,5.1275,5.3701,5.4498,5.349,5.5157,5.5994,5.5994,5.611,5.6181,5.6181,5.6363,5.6497,5.6606,5.6606,5.6606,5.6606,5.6614,5.6618,5.6618,5.6618,5.6582,5.6591,5.6597,5.6598,5.6599,4.9825,4.9196,4.9344,5.193,5.1422,5.1213,5.2926,5.3225,5.3225,5.3225,5.3641,5.4016,5.4123,5.4123,5.4158,5.4296,5.4296,5.4296,5.4296,5.4296,5.4262,5.4262,5.4262,5.4193,5.4052,5.4052,5.2787,5.0263,4.6525,4.3349,4.0766,3.9452,4.1241,4.5611,4.8715,5.0857,5.2223,5.4428,5.5221,5.4909,5.5024,5.5053,5.5032,5.5297,5.5473,5.5614,5.5614,5.5515,5.5479,5.6052,5.5441,5.4524,5.4753,5.4677,5.46,5.5212,5.5403,5.5403,5.5403,5.5403,5.5403,5.5403,5.5403,5.5403,5.5403,5.5403,5.5403,5.5403,5.5403,5.5403,5.5403,5.3416,5.2346,5.4027,5.2881,5.2384,0.0,5.4256,0.0,0.0,5.2762,5.1484,5.0849,4.6876,0.0,0.0,0.0,0.0,0.0,0.0,0.0,0.0,0.0,5.4532,5.3353,5.4996,5.5845,5.5845,5.5994,5.6029,5.6044,5.6181,5.6355,5.6503,5.6503,5.6553,5.6606,5.6606,5.6606,5.6606,5.6606,5.6606,5.6606,5.6582,5.6588,5.6588,5.0631,5.138,5.2188,5.3046,5.3188,5.3188,5.3225,5.3225,5.3225,5.3225,5.3225,5.3318,5.3682,5.372,5.387,5.4262,5.4296,5.4296,5.4296,5.4296,5.4262,5.4083,5.4083,5.3906,5.3407,5.3407,5.3203,5.2769,4.9853,4.8015,4.7167,4.4798,4.5423,4.8605,5.0149,5.2123,5.4406,5.4748,5.4907,5.4947,5.5319,5.5495,5.557,5.6434,5.6484,5.6088,5.6088,5.577,5.5403,5.5403,5.5403,5.5517,5.632,5.6014,5.5403,5.5403,5.5403,5.5403,5.5403,5.5403,5.5403,5.5403,5.5403,5.5403,5.5403,5.5403,5.5403,5.5403,5.5403,5.5403,5.5403,5.5365,5.4524,5.204,5.3722,5.4486,5.2002,5.1667,0.0,5.1658,4.6546,4.5323,5.1101,4.5591,0.0,0.0,0.0,0.0,0.0,0.0,0.0,5.3069,5.3203,5.3203,5.3203,5.4857,5.5703,5.5703,5.5845,5.5896,5.5896,5.6029,5.6169,5.6308,5.6308,5.6432,5.6606,5.6606,5.6606,5.6606,5.6606,5.6606,5.6606,5.6606,5.6606,5.6606,5.2217,5.2508,5.2794,5.3151,5.3225,5.3225,5.3225,5.3225,5.3408,5.3959,5.4032,5.4038,5.4207,5.3691,5.34,5.3561,5.3561,5.3561,5.3561,5.3444,5.3404,5.3326,5.3244,5.312,5.2987,5.2987,5.2937,5.2806,5.0232,4.9139,4.9391,4.8742,5.0141,5.3261,5.3812,5.4509,5.5207,5.5343,5.5054,5.4575,5.4704,5.4572,5.428,5.4578,5.4757,5.4877,5.4877,5.4754,5.4692,5.4903,5.499,5.5057,5.5618,5.5594,5.5403,5.5403,5.5403,5.5403,5.5403,5.5403,5.5403,5.5403,5.5403,5.5403,5.5403,5.5403,5.5403,5.5403,5.5403,5.5403,5.5403,5.5403,5.5135,5.4333,5.4868,5.5135,5.4295,5.418,5.4205,5.418,5.2561,5.2165,5.4052,5.0199,0.0,0.0,0.0,0.0,0.0,0.0,0.0,0.0,5.3395,5.4357,5.3203,5.4857,5.5703,5.5703,5.5748,5.5808,5.5896,5.5946,5.6029,5.6158,5.6158,5.6261,5.6386,5.6386,5.6491,5.6606,5.6606,5.6606,5.6606,5.6606,5.6606,5.6606,5.3745,5.3843,5.3859,5.3961,5.4005,5.4012,5.4019,5.4063,5.4289,5.4766,5.484,5.484,5.484,5.4356,5.3806,5.3261,5.3225,5.3225,5.3225,5.306,5.298,5.2937,5.2806,5.2862,5.3145,5.3145,5.329,5.3617,5.209,5.1661,5.2178,5.2266,5.3222,5.4875,5.5001,5.4943,5.4649,5.4693,5.4399,5.3959,5.3959,5.3797,5.3524,5.3524,5.372,5.4088,5.4088,5.4158,5.433,5.4528,5.4591,5.4585,5.4806,5.4903,5.4962,5.5286,5.5286,5.5233,5.5377,5.5286,5.5233,5.5377,5.5403,5.5403,5.5403,5.5403,5.5403,5.5403,5.5403,5.5403,5.5403,5.5403,5.5403,5.5403,5.5403,5.5403,5.5403,5.5403,5.5059,5.4104,5.3989,5.3989,0.0,5.2103,5.0826,0.0,0.0,0.0,0.0,0.0,5.1202,5.1741,5.4318,5.5203,5.4164,5.5164,5.5703,5.5703,5.5703,5.5748,5.5827,5.5827,5.5896,5.6015,5.6015,5.6097,5.6212,5.6212,5.6308,5.6497,5.6497,5.6509,5.6606,5.6606,5.6606,5.6606,5.5022,5.5172,5.5202,5.5207,5.5301,5.5368,5.535,5.5485,5.5611,5.5647,5.5684,5.5684,5.5684,5.5514,5.4891,5.3476,5.3329,5.3329,5.3329,5.3207,5.3076,5.2988,5.2817,5.309,5.3784,5.3784,5.4182,5.4979,5.5039,5.5145,5.5239,5.5212,5.4775,5.3972,5.4107,5.3712,5.3017,5.3146,5.3225,5.3225,5.3225,5.3225,5.3225,5.3225,5.34,5.3643,5.3643,5.3907,5.4193,5.4228,5.4156,5.4048,5.4083,5.4118,5.4255,5.5113,5.5085,5.4903,5.5286,5.5113,5.4933,5.5286,5.5403,5.5403,5.5403,5.5403,5.5403,5.5403,5.5403,5.5403,5.5403,5.5403,5.5403,5.5403,5.5403,5.5403,5.5403,5.5403,5.4524,5.2155,5.1849,5.1849,5.1849,5.1849,5.2766,0.0,0.0,0.0,0.0,5.1638,5.151,5.5588,5.5703,5.5703,5.5703,5.5703,5.5703,5.5703,5.5703,5.5703,5.5703,5.5703,5.5768,5.5879,5.5879,5.5978,5.6084,5.6084,5.6158,5.6299,5.6299,5.6386,5.6558,5.6558,5.6558,5.6563,5.5008,5.5039,5.5062,5.5156,5.5202,5.5249,5.5259,5.5259,5.5524,5.6145,5.6218,5.6218,5.6218,5.6171,5.5769,5.4829,5.4756,5.4756,5.4756,5.4583,5.449,5.449,5.4386,5.4447,5.4617,5.4617,5.4979,5.574,5.5789,5.5752,5.5801,5.528,5.4683,5.3972,5.3522,5.3243,5.3146,5.3182,5.3225,5.3225,5.3225,5.3225,5.3225,5.3225,5.323,5.3277,5.3193,5.3198,5.3322,5.3526,5.3567,5.3644,5.419,5.4326,5.4392,5.4708,5.4769,5.4903,5.5286,5.5313,5.5286,5.5377,5.5403,5.5403,5.5403,5.5403,5.5403,5.5403,5.5403,5.5403,5.5403,5.5403,5.5403,5.5403,5.5403,5.5403,5.5403,5.5403,5.5174,5.4562,5.4524,5.4524,5.4524,5.4524,5.3951,5.2614,5.3121,5.3207,5.2594,5.2302,5.3212,5.5561,5.5638,5.566,5.5703,5.5703,5.5703,5.5703,5.5703,5.5703,5.5703,5.5703,5.5745,5.5748,5.5748,5.5827,5.5962,5.5962,5.6015,5.6146,5.6146,5.6158,5.623,5.623,5.6281,5.6379,5.5508,5.5821,5.6019,5.6116,5.6164,5.6212,5.6212,5.6259,5.6452,5.689,5.6963,5.6963,5.6963,5.6915,5.6685,5.6248,5.5567,5.5212,5.5212,5.5073,5.5025,5.5025,5.4919,5.5051,5.5414,5.5414,5.5776,5.6536,5.6174,5.5812,5.5486,5.4737,5.4034,5.3281,5.2943,5.2893,5.3017,5.306,5.3146,5.3225,5.3225,5.3146,5.3103,5.3103,5.306,5.3017,5.2937,5.2893,5.2937,5.3072,5.3115,5.312,5.3452,5.3569,5.3645,5.3904,5.4322,5.4814,5.526,5.526,5.5168,5.5377,5.5403,5.5403,5.5403,5.5403,5.5403,5.5403,5.5403,5.5403,5.5403,5.5403,5.5403,5.5403,5.5403,5.5403,5.5403,5.5403,5.5403,5.5403,5.5403,5.5403,5.5403,5.5403,5.483,5.3454,5.3785,5.3847,5.3427,5.3833,5.4556,5.5531,5.5531,5.5593,5.566,5.5703,5.5703,5.5703,5.5703,5.5703,5.5703,5.5703,5.5703,5.5703,5.5703,5.5728,5.5808,5.5808,5.5879,5.6001,5.6001,5.6044,5.6097,5.6097,5.6146,5.6202,5.6246,5.6868,5.7188,5.7188,5.7289,5.7338,5.7338,5.7437,5.7534,5.7534,5.7534,5.7534,5.7534,5.7437,5.7338,5.7338,5.62,5.553,5.553,5.5436,5.5305,5.5305,5.5281,5.5522,5.6174,5.6174,5.6464,5.7007,5.6319,5.5558,5.4689,5.4037,5.3277,5.2526,5.2581,5.2635,5.2806,5.2893,5.306,5.3103,5.3103,5.306,5.2937,5.2937,5.2893,5.2806,5.2761,5.2761,5.2761,5.2761,5.2672,5.259,5.2635,5.2635,5.2769,5.3166,5.387,5.456,5.5057,5.499,5.4903,5.526,5.5377,5.5403,5.5377,5.5377,5.5403,5.5403,5.5403,5.5403,5.5403,5.5403,5.5326,5.5059,5.525,5.5326,5.5059,5.525,5.5377,5.5313,5.5286,5.5286,5.5233,5.5233,5.5233,5.5233,5.5233,5.5233,5.5233,5.5286,5.5339,5.5389,5.5437,5.5547,5.5554,5.566,5.5703,5.5703,5.5703,5.5703,5.5703,5.5703,5.5703,5.5703,5.5703,5.5703,5.5703,5.5703,5.5768,5.5882,5.5882,5.5946,5.6029,5.6029,5.6044,5.6071,5.692,5.7123,5.7188,5.7188,5.7188,5.7239,5.7239,5.7239,5.7239,5.7239,5.7239,5.7239,5.7239,5.7239,5.7239,5.7239,5.7021,5.6876,5.6876,5.6876,5.6876,5.6876,5.6826,5.6899,5.7007,5.7007,5.6717,5.6174,5.6066,5.5269,5.3892,5.3748,5.3287,5.2545,5.259,5.2635,5.2806,5.2806,5.285,5.285,5.285,5.285,5.2806,5.2806,5.2806,5.2806,5.2635,5.2635,5.259,5.2572,5.2526,5.2572,5.285,5.2937,5.3023,5.3489,5.372,5.3906,5.4225,5.4554,5.4836,5.5113,5.5286,5.5377,5.5168,5.5286,5.5403,5.5403,5.5403,5.5403,5.5403,5.5403,5.4906,5.3454,5.4448,5.4906,5.3416,5.4486,5.526,5.4933,5.4903,5.4776,5.4495,5.4463,5.4463,5.4463,5.4463,5.4463,5.4463,5.4716,5.4895,5.4895,5.5262,5.5437,5.5485,5.5554,5.5638,5.5638,5.5682,5.5703,5.5703,5.5703,5.5703,5.5703,5.5703,5.5703,5.5703,5.5703,5.5724,5.5728,5.5728,5.5748,5.5768,5.5768,5.5845,5.593,5.609,5.6492,5.6795,5.7138,5.7188,5.7188,5.7188,5.7188,5.7188,5.7188,5.7188,5.7188,5.7188,5.7188,5.7188,5.7188,5.7188,5.7188,5.7188,5.7188,5.7188,5.7188,5.7188,5.7188,5.7188,5.7188,5.679,5.5993,5.5595,5.4834,5.3675,5.3277,5.2889,5.2536,5.2536,5.2581,5.2717,5.2717,5.2761,5.2806,5.2806,5.2761,5.2717,5.2717,5.2672,5.2618,5.2536,5.2536,5.2536,5.248,5.248,5.2526,5.2663,5.2753,5.2761,5.2987,5.341,5.3832,5.3977,5.4153,5.4387,5.4616,5.4776,5.4874,5.4971,5.5057,5.5123,5.5123,5.5206,5.526,5.526,5.5313,5.5135,5.4333,5.4868,5.5045,5.4009,5.4552,5.4933,5.456,5.4528,5.4463,5.4296,5.4296,5.4296,5.4296,5.4296,5.4296,5.4296,5.443,5.4623,5.4806,5.521,5.5389,5.5476,5.5485,5.557,5.557,5.5638,5.566,5.566,5.5682,5.5703,5.5703,5.5703,5.5703,5.5703,5.5703,5.5703,5.5703,5.5703,5.5703,5.5703,5.5703,5.5728,5.5769,5.5234,5.5789,5.6227,5.6725,5.6917,5.6984,5.6984,5.7087,5.7188,5.7188,5.7188,5.7188,5.7188,5.7188,5.7188,5.7188,5.7188,5.7188,5.7188,5.7188,5.7188,5.7188,5.7188,5.7188,5.7188,5.7007,5.6536,5.574,5.4979,5.4218,5.3422,5.277,5.248,5.248,5.248,5.2526,5.2581,5.2581,5.2627,5.2717,5.2717,5.2672,5.2581,5.2581,5.2536,5.248,5.248,5.248,5.248,5.248,5.248,5.248,5.248,5.248,5.248,5.248,5.3036,5.3607,5.3684,5.3758,5.3869,5.419,5.4259,5.4326,5.4565,5.4692,5.4791,5.4791,5.4941,5.5057,5.5057,5.5113,5.5026,5.4645,5.4846,5.4876,5.4156,5.442,5.456,5.4193,5.4158,5.4123,5.4052,5.4016,5.4016,5.4016,5.4016,5.4016,5.4016,5.4193,5.4495,5.4933,5.521,5.5402,5.5402,5.5476,5.5499,5.5461,5.557,5.5615,5.5615,5.5682,5.5703,5.5703,5.5703,5.5703,5.5703,5.5703,5.5703,5.5703,5.5934,5.6011,5.6011,5.6011,5.6011,5.5972,5.5286,5.5471,5.5471,5.5497,5.5985,5.6366,5.6366,5.6881,5.7188,5.7188,5.7188,5.7188,5.7188,5.7188,5.7188,5.7188,5.7188,5.7188,5.7188,5.7188,5.7188,5.7188,5.7188,5.7188,5.7188,5.6464,5.5703,5.4979,5.4182,5.3385,5.2589,5.2516,5.248,5.248,5.248,5.248,5.248,5.248,5.248,5.2526,5.2526,5.2526,5.248,5.248,5.248,5.248,5.248,5.248,5.248,5.248,5.248,5.248,5.248,5.248,5.248,5.248,5.2526,5.2717,5.3125,5.333,5.3526,5.3683,5.3832,5.3941,5.3833,5.4121,5.4463,5.4463,5.4692,5.4882,5.4882,5.4692,5.3968,5.2391,5.3311,5.3628,5.2061,5.3286,5.4193,5.3795,5.3758,5.3604,5.3314,5.3272,5.3272,5.3272,5.3272,5.3272,5.3272,5.3944,5.4629,5.5313,5.5403,5.5403,5.5403,5.5402,5.5389,5.5389,5.5547,5.5615,5.5615,5.5682,5.5703,5.5703,5.5703,5.5703,5.5703,5.5703,5.5703,5.578,5.6588,5.6896,5.6896,5.6896,5.6896,5.678,5.4693,5.5154,5.5494,5.5895,5.6454,5.6881,5.6881,5.7036,5.7188,5.7188,5.7188,5.7188,5.7188,5.7188,5.7188,5.7188,5.7188,5.7188,5.7188,5.7188,5.7188,5.7188,5.7188,5.6971,5.6464,5.6138,5.5377,5.4146,5.3856,5.3277,5.248,5.248,5.248,5.248,5.248,5.248,5.248,5.248,5.248,5.248,5.248,5.248,5.248,5.248,5.248,5.248,5.248,5.248,5.248,5.248,5.248,5.248,5.248,5.248,5.248,5.248,5.248,5.2526,5.2717,5.2769,5.29,5.3198,5.3285,5.3407,5.3604,5.3683,5.3796,5.3907,5.4052,5.4158,5.4158,5.4121,5.3859,5.3222,5.3671,5.3788,5.2902,5.346,5.3795,5.344,5.34,5.3318,5.3188,5.3225,5.3225,5.3225,5.3225,5.3225,5.3225,5.3907,5.4397,5.4723,5.5178,5.5403,5.5403,5.539,5.539,5.539,5.5451,5.5499,5.5499,5.6153,5.6428,5.6467,5.7066,5.7319,5.7319,5.7319,5.7319,5.7357,5.7665,5.7819,5.7819,5.7819,5.7819,5.7742,5.4059,5.451,5.4957,5.5364,5.5957,5.6384,5.6635,5.6793,5.6984,5.7188,5.7188,5.7188,5.7188,5.7188,5.7188,5.7188,5.7188,5.708,5.6826,5.6609,5.6573,5.679,5.6826,5.6464,5.5667,5.5414,5.4762,5.3711,5.3458,5.3023,5.248,5.248,5.248,5.248,5.248,5.248,5.248,5.248,5.248,5.248,5.248,5.248,5.248,5.248,5.248,5.248,5.248,5.248,5.248,5.248,5.248,5.248,5.248,5.248,5.248,5.248,5.248,5.248,5.248,5.248,5.2526,5.2798,5.2842,5.2893,5.3198,5.3281,5.3322,5.3404,5.3526,5.3606,5.3606,5.3606,5.3607,5.3607,5.3645,5.3606,5.333,5.3447,5.3481,5.323,5.3225,5.3225,5.3225,5.3225,5.3225,5.3225,5.3225,5.323,5.3359,5.387,5.4158,5.4296,5.4874,5.5347,5.5614,5.5465,5.5403,5.5403,5.5402,5.5542,5.581,5.6544,5.7013,5.732,5.8004,5.8296,5.8296,5.8319,5.8319,5.8319,5.8588,5.8665,5.8665,5.8665,5.8665,5.8627,5.3518,5.3518,5.3518,5.3518,5.4011,5.4641,5.5343,5.5922,5.6528,5.7087,5.7188,5.7188,5.7188,5.7188,5.7188,5.7188,5.7188,5.6862,5.6066,5.5305,5.5233,5.5957,5.5993,5.5631,5.4907,5.411,5.3711,5.3675,5.2878,5.248,5.248,5.248,5.248,5.248,5.248,5.248,5.248,5.248,5.248,5.248,5.248,5.248,5.248,5.248,5.248,5.248,5.248,5.248,5.248,5.248,5.248,5.248,5.248,5.248,5.248,5.248,5.248,5.248,5.248,5.248,5.248,5.248,5.248,5.248,5.248,5.2753,5.298,5.298,5.3198,5.3407,5.3407,5.3157,5.298,5.298,5.2893,5.2806,5.2806,5.3017,5.3225,5.3225,5.3225,5.3225,5.3225,5.3225,5.3225,5.3225,5.3225,5.3355,5.3682,5.372,5.3907,5.4262,5.4623,5.5223,5.6125,5.5652,5.5403,5.5441,5.5415,5.5886,5.669,5.6803,5.7287,5.8092,5.8203,5.8227,5.8227,5.8296,5.8319,5.8396,5.9204,5.9511,5.9511,5.9511,5.9511,5.9396,5.3518,5.3849,5.4106,5.4106,5.4641,5.5129,5.5402,5.5578,5.5716,5.5887,5.5943,5.5943,5.5943,5.5446,5.5292,5.5704,5.5757,5.6109,5.6826,5.6102,5.5522,5.5233,5.5233,5.487,5.4074,5.382,5.3422,5.2842,5.2625,5.248,5.248,5.248,5.248,5.248,5.248,5.248,5.248,5.248,5.248,5.248,5.248,5.248,5.248,5.248,5.248,5.248,5.248,5.248,5.248,5.248,5.248,5.248,5.248,5.248,5.248,5.248,5.248,5.248,5.248,5.248,5.248,5.248,5.248,5.2526,5.2581,5.2581,5.2663,5.2717,5.2761,5.2761,5.2761,5.2672,5.2663,5.2663,5.2672,5.2635,5.2635,5.2893,5.306,5.306,5.3146,5.3225,5.3225,5.3225,5.3225,5.3225,5.3225,5.323,5.3318,5.3563,5.4018,5.469,5.5088,5.5805,5.6929,5.6491,5.6549,5.716,5.7149,5.7301,5.7531,5.8183,5.863,5.8924,5.9588,5.9906,5.9955,5.9979,6.0003,6.0089,6.0319,6.0396,6.0396,6.0396,6.0396,6.0358,5.3518,5.3783,5.4042,5.4042,5.4362,5.4738,5.4948,5.5009,5.5069,5.5402,5.5402,5.5519,5.5751,5.5292,5.5289,5.5864,5.5682,5.5764,5.6283,5.5522,5.4762,5.4001,5.3965,5.3711,5.3241,5.3241,5.2987,5.248,5.248,5.248,5.248,5.248,5.248,5.248,5.248,5.248,5.248,5.248,5.248,5.248,5.248,5.248,5.248,5.248,5.248,5.248,5.248,5.248,5.248,5.248,5.248,5.248,5.248,5.248,5.248,5.248,5.248,5.248,5.248,5.248,5.248,5.248,5.248,5.248,5.2536,5.2526,5.2526,5.2536,5.2526,5.248,5.248,5.248,5.248,5.248,5.2536,5.259,5.259,5.2806,5.2893,5.2893,5.306,5.3103,5.3103,5.3146,5.3225,5.3225,5.3225,5.3335,5.3665,5.3879,5.4334,5.5147,5.5546,5.6328,5.7536,5.743,5.7548,5.7886,5.7886,5.8077,5.8383,5.8934,5.9343,5.9726,6.0277,6.0559,6.061,6.0635,6.066,6.071,6.0734,6.0757,6.0757,6.0781,6.0781,6.0781,5.3518,5.3518,5.3518,5.3518,5.3518,5.3685,5.4235,5.4328,5.4516,5.5164,5.5224,5.5461,5.5978,5.6019,5.6204,5.6789,5.6292,5.569,5.516,5.4315,5.3483,5.2733,5.2578,5.2506,5.248,5.248,5.248,5.248,5.248,5.248,5.248,5.248,5.248,5.248,5.248,5.248,5.248,5.248,5.248,5.248,5.248,5.248,5.248,5.248,5.248,5.248,5.248,5.248,5.248,5.248,5.248,5.248,5.248,5.248,5.248,5.248,5.248,5.248,5.248,5.248,5.248,5.248,5.248,5.248,5.248,5.248,5.248,5.248,5.248,5.248,5.248,5.248,5.248,5.248,5.2536,5.259,5.259,5.2717,5.2761,5.2761,5.2893,5.298,5.298,5.3103,5.3225,5.3298,5.3335,5.3665,5.4473,5.4509,5.4876,5.5684,5.5997,5.6776,5.8015,5.8367,5.8418,5.8116,5.8116,5.8498,5.9224,5.9224,5.9644,6.037,6.0453,6.048,6.048,6.0597,6.0585,6.0623,6.066,6.0685,6.0685,6.0757,6.0819,6.0781,5.3518,5.3518,5.3518,5.3518,5.3518,5.3551,5.3685,5.3685,5.3717,5.3915,5.3915,5.398,5.4076,5.3528,5.3432,5.4007,5.4788,5.5718,5.6631,5.5518,5.4676,5.4399,5.3239,5.2628,5.2516,5.248,5.248,5.248,5.248,5.248,5.248,5.248,5.248,5.248,5.248,5.248,5.248,5.248,5.248,5.248,5.248,5.248,5.248,5.248,5.248,5.248,5.248,5.248,5.248,5.248,5.248,5.248,5.248,5.248,5.248,5.248,5.248,5.248,5.248,5.248,5.248,5.248,5.248,5.248,5.248,5.248,5.248,5.248,5.248,5.248,5.248,5.248,5.248,5.248,5.2526,5.2526,5.2526,5.2581,5.2635,5.2635,5.285,5.298,5.298,5.3103,5.3482,5.4106,5.4142,5.4473,5.528,5.5317,5.5721,5.6528,5.6617,5.7254,5.8452,5.884,5.9332,5.9835,5.9835,5.995,6.0102,6.0102,6.0217,6.0408,6.0436,6.0425,6.048,6.0545,6.0533,6.0585,6.0649,6.061,6.061,6.061,6.066,6.0734,5.3518,5.3518,5.3518,5.3518,5.3518,5.3518,5.3518,5.3518,5.3518,5.3518,5.3518,5.3618,5.3881,5.357,5.3553,5.4174,5.4886,5.5395,5.574,5.4685,5.3939,5.3457,5.2342,5.1841,5.2066,5.2066,5.2209,5.248,5.248,5.248,5.248,5.248,5.248,5.248,5.248,5.248,5.248,5.248,5.248,5.248,5.248,5.248,5.248,5.248,5.248,5.248,5.248,5.248,5.248,5.248,5.248,5.248,5.248,5.248,5.248,5.248,5.248,5.248,5.248,5.248,5.248,5.248,5.248,5.248,5.248,5.248,5.248,5.248,5.248,5.248,5.248,5.248,5.248,5.248,5.248,5.248,5.248,5.2526,5.2536,5.2536,5.2761,5.312,5.3616,5.3732,5.4106,5.4913,5.495,5.5317,5.6124,5.6161,5.6528,5.7336,5.7373,5.7744,5.8586,5.8831,5.9325,6.0129,6.0313,6.0408,6.0408,6.0408,6.0408,6.0408,6.0408,6.0436,6.0425,6.0425,6.0453,6.0518,6.0533,6.0533,6.0571,6.0597,6.0635,6.071,5.3518,5.3518,5.3518,5.3518,5.3518,5.3518,5.3518,5.3518,5.3518,5.3518,5.3518,5.3685,5.4171,5.4235,5.4516,5.5129,5.5189,5.4933,5.4279,5.3462,5.2783,5.2072,5.1314,5.1193,5.1736,5.1786,5.1982,5.248,5.248,5.248,5.248,5.248,5.248,5.248,5.248,5.248,5.248,5.248,5.248,5.248,5.248,5.248,5.248,5.248,5.248,5.248,5.248,5.248,5.248,5.248,5.248,5.248,5.248,5.248,5.248,5.248,5.248,5.248,5.248,5.248,5.248,5.248,5.248,5.248,5.248,5.248,5.248,5.248,5.248,5.248,5.248,5.248,5.248,5.248,5.248,5.248,5.248,5.248,5.248,5.248,5.2817,5.3368,5.4283,5.4509,5.495,5.5721,5.5794,5.6161,5.6969,5.7005,5.7299,5.796,5.7997,5.8186,5.8586,5.8669,5.9065,5.9809,6.0188,6.0408,6.0408,6.0408,6.0408,6.0408,6.0408,6.0408,6.0408,6.0408,6.0408,6.0436,6.0453,6.0453,6.048,6.0571,6.061,6.066,5.345,5.3518,5.3518,5.3518,5.3518,5.3518,5.3518,5.3518,5.3518,5.3518,5.3518,5.3484,5.3618,5.3618,5.3915,5.4454,5.4516,5.4417,5.4244,5.3575,5.3055,5.2695,5.2094,5.1953,5.234,5.2387,5.2434,5.248,5.248,5.248,5.248,5.248,5.248,5.248,5.248,5.248,5.248,5.248,5.248,5.248,5.248,5.248,5.248,5.248,5.248,5.248,5.248,5.248,5.248,5.248,5.248,5.248,5.248,5.248,5.248,5.248,5.248,5.248,5.248,5.248,5.248,5.248,5.248,5.248,5.248,5.248,5.248,5.248,5.248,5.248,5.248,5.248,5.248,5.248,5.248,5.248,5.248,5.248,5.248,5.248,5.329,5.3945,5.4188,5.4979,5.5757,5.6602,5.6638,5.7005,5.7776,5.785,5.7886,5.7997,5.7997,5.8186,5.8586,5.8949,5.9361,5.9809,6.0188,6.0408,6.0408,6.0408,6.0408,6.0408,6.0408,6.0408,6.0408,6.0408,6.0408,6.0408,6.0436,6.0398,6.0398,6.0518,6.0506,6.0571,5.3144,5.3144,5.3144,5.3144,5.3144,5.3144,5.3144,5.3144,5.3144,5.3144,5.3144,5.3144,5.3144,5.328,5.345,5.3881,5.3881,5.3874,5.3817,5.2775,5.2049,5.1904,5.0838,5.0714,5.1616,5.167,5.2199,5.3311,5.2773,5.248,5.248,5.248,5.248,5.248,5.248,5.2733,5.3168,5.3168,5.3168,5.3168,5.3168,5.2915,5.248,5.248,5.248,5.248,5.248,5.248,5.248,5.248,5.248,5.248,5.248,5.248,5.248,5.248,5.248,5.248,5.248,5.248,5.248,5.248,5.248,5.248,5.248,5.248,5.248,5.248,5.248,5.248,5.248,5.248,5.248,5.248,5.248,5.248,5.248,5.248,5.2707,5.3152,5.4008,5.4802,5.546,5.5916,5.6511,5.7409,5.7483,5.7629,5.796,5.7997,5.7997,5.7997,5.7997,5.8186,5.8586,5.8791,5.9178,5.9809,5.9969,6.0159,6.0408,6.0408,6.0408,6.0408,6.0408,6.0408,6.0408,6.0408,6.0408,6.0408,6.0408,6.0408,6.037,6.0425,6.0491,6.048]},{"header":{"parameterUnit":"m.s-1","parameterCategory":1,"la1":30.6,"la2":28.766,"lo1":-90.7593,"lo2":-88.6598,"dx":0.0162,"dy":0.0183,"nx":116,"ny":114,"refTime":"2022-12-14T06:00:00:Z","depth":0,"parameterNumber":3,"parameterNumberName":"V-component_of_WINDS"},"data":[0.0,0.0,0.0,0.0,0.0,0.0,0.0,0.0,0.0,0.0,0.0,0.0,0.0,0.0,0.0,0.0,0.0,0.0,0.0,0.0,0.0,0.0,0.0,0.0,0.0,0.0,0.0,0.0,0.0,0.0,0.0,0.0,0.0,0.0,0.0,0.0,0.0,0.0,0.0,0.0,0.0,0.0,0.0,0.0,0.0,0.0,0.0,0.0,0.0,0.0,0.0,0.0,0.0,0.0,0.0,0.0,0.0,0.0,0.0,0.0,0.0,0.0,0.0,0.0,0.0,0.0,0.0,0.0,0.0,0.0,0.0,0.0,0.0,0.0,0.0,0.0,0.0,0.0,0.0,0.0,0.0,0.0,0.0,0.0,0.0,0.0,0.0,0.0,0.0,0.0,0.0,0.0,0.0,0.0,0.0,0.0,0.0,0.0,0.0,0.0,0.0,0.0,0.0,0.0,0.0,0.0,0.0,0.0,0.0,0.0,0.0,0.0,0.0,0.0,0.0,0.0,0.0,0.0,0.0,0.0,0.0,0.0,0.0,0.0,0.0,0.0,0.0,0.0,0.0,0.0,0.0,0.0,0.0,0.0,0.0,0.0,0.0,0.0,0.0,0.0,0.0,0.0,0.0,0.0,0.0,0.0,0.0,0.0,0.0,0.0,0.0,0.0,0.0,0.0,0.0,0.0,0.0,0.0,0.0,0.0,0.0,0.0,0.0,0.0,0.0,0.0,0.0,0.0,0.0,0.0,0.0,0.0,0.0,0.0,0.0,0.0,0.0,0.0,0.0,0.0,0.0,0.0,0.0,0.0,0.0,0.0,0.0,0.0,0.0,0.0,0.0,0.0,0.0,0.0,0.0,0.0,0.0,0.0,0.0,0.0,0.0,0.0,0.0,0.0,0.0,0.0,0.0,0.0,0.0,0.0,0.0,0.0,0.0,0.0,0.0,0.0,0.0,0.0,0.0,0.0,0.0,0.0,0.0,0.0,0.0,0.0,0.0,0.0,0.0,0.0,0.0,0.0,0.0,0.0,0.0,0.0,0.0,0.0,0.0,0.0,0.0,0.0,0.0,0.0,0.0,0.0,0.0,0.0,0.0,0.0,0.0,0.0,0.0,0.0,0.0,0.0,0.0,0.0,0.0,0.0,0.0,0.0,0.0,0.0,0.0,0.0,0.0,0.0,0.0,0.0,0.0,0.0,0.0,0.0,0.0,0.0,0.0,0.0,0.0,0.0,0.0,0.0,0.0,0.0,0.0,0.0,0.0,0.0,0.0,0.0,0.0,0.0,0.0,0.0,0.0,0.0,0.0,0.0,0.0,0.0,0.0,0.0,0.0,0.0,0.0,0.0,0.0,0.0,0.0,0.0,0.0,0.0,0.0,0.0,0.0,0.0,0.0,0.0,0.0,0.0,0.0,0.0,0.0,0.0,0.0,0.0,0.0,0.0,0.0,0.0,0.0,0.0,0.0,0.0,0.0,0.0,0.0,0.0,0.0,0.0,0.0,0.0,0.0,0.0,0.0,0.0,0.0,0.0,0.0,0.0,0.0,0.0,0.0,0.0,0.0,0.0,0.0,0.0,0.0,0.0,0.0,0.0,0.0,0.0,0.0,0.0,0.0,0.0,0.0,0.0,0.0,0.0,0.0,0.0,0.0,0.0,0.0,0.0,0.0,0.0,0.0,0.0,0.0,0.0,0.0,0.0,0.0,0.0,0.0,0.0,0.0,0.0,0.0,0.0,0.0,0.0,0.0,0.0,0.0,0.0,0.0,0.0,0.0,0.0,0.0,0.0,0.0,0.0,0.0,0.0,0.0,0.0,0.0,0.0,0.0,0.0,0.0,0.0,0.0,0.0,0.0,0.0,0.0,0.0,0.0,0.0,0.0,0.0,0.0,0.0,0.0,0.0,0.0,0.0,0.0,0.0,0.0,0.0,0.0,0.0,0.0,0.0,0.0,0.0,0.0,0.0,0.0,0.0,0.0,0.0,0.0,0.0,0.0,0.0,0.0,0.0,0.0,0.0,0.0,0.0,0.0,0.0,0.0,0.0,0.0,0.0,0.0,0.0,0.0,0.0,0.0,0.0,0.0,0.0,0.0,0.0,0.0,0.0,0.0,0.0,0.0,0.0,0.0,0.0,0.0,0.0,0.0,0.0,0.0,0.0,0.0,0.0,0.0,0.0,0.0,0.0,0.0,0.0,0.0,0.0,0.0,0.0,0.0,0.0,0.0,0.0,0.0,0.0,0.0,0.0,0.0,0.0,0.0,0.0,0.0,0.0,0.0,0.0,0.0,0.0,0.0,0.0,0.0,0.0,0.0,0.0,0.0,0.0,0.0,0.0,0.0,0.0,0.0,0.0,0.0,0.0,0.0,0.0,0.0,0.0,0.0,0.0,0.0,0.0,0.0,0.0,0.0,0.0,0.0,0.0,0.0,0.0,0.0,0.0,0.0,0.0,0.0,0.0,0.0,0.0,0.0,0.0,0.0,0.0,0.0,0.0,0.0,0.0,0.0,0.0,0.0,0.0,0.0,0.0,0.0,0.0,0.0,0.0,0.0,0.0,0.0,0.0,0.0,0.0,0.0,0.0,0.0,0.0,0.0,0.0,0.0,0.0,0.0,0.0,0.0,0.0,0.0,0.0,0.0,0.0,0.0,0.0,0.0,0.0,0.0,0.0,0.0,0.0,0.0,0.0,0.0,0.0,0.0,0.0,0.0,0.0,0.0,0.0,0.0,0.0,0.0,0.0,0.0,0.0,0.0,0.0,0.0,0.0,0.0,0.0,0.0,0.0,0.0,0.0,0.0,0.0,0.0,0.0,0.0,0.0,0.0,0.0,0.0,0.0,0.0,0.0,0.0,0.0,0.0,0.0,0.0,0.0,0.0,0.0,0.0,0.0,0.0,0.0,0.0,0.0,0.0,0.0,0.0,0.0,0.0,0.0,0.0,0.0,0.0,0.0,0.0,0.0,0.0,0.0,0.0,0.0,0.0,0.0,0.0,0.0,0.0,0.0,0.0,0.0,0.0,0.0,0.0,0.0,0.0,0.0,0.0,0.0,0.0,0.0,0.0,0.0,0.0,0.0,0.0,0.0,0.0,0.0,0.0,0.0,0.0,0.0,0.0,0.0,0.0,0.0,0.0,0.0,0.0,0.0,0.0,0.0,0.0,0.0,0.0,0.0,0.0,0.0,0.0,0.0,0.0,0.0,0.0,0.0,0.0,0.0,0.0,0.0,0.0,0.0,0.0,0.0,0.0,0.0,0.0,0.0,0.0,0.0,0.0,0.0,0.0,0.0,0.0,0.0,0.0,0.0,0.0,0.0,0.0,0.0,0.0,0.0,0.0,0.0,0.0,0.0,0.0,0.0,0.0,0.0,0.0,0.0,0.0,0.0,0.0,0.0,0.0,0.0,0.0,0.0,0.0,0.0,0.0,0.0,0.0,0.0,0.0,0.0,0.0,0.0,0.0,0.0,0.0,0.0,0.0,0.0,0.0,0.0,0.0,0.0,0.0,0.0,0.0,0.0,0.0,0.0,0.0,0.0,0.0,0.0,0.0,0.0,0.0,0.0,0.0,0.0,0.0,0.0,0.0,0.0,0.0,0.0,0.0,0.0,0.0,0.0,0.0,0.0,0.0,0.0,0.0,0.0,0.0,0.0,0.0,0.0,0.0,0.0,0.0,0.0,0.0,0.0,0.0,0.0,0.0,0.0,0.0,0.0,0.0,0.0,0.0,0.0,0.0,0.0,0.0,0.0,0.0,0.0,0.0,0.0,0.0,0.0,0.0,0.0,0.0,0.0,0.0,0.0,0.0,0.0,0.0,0.0,0.0,0.0,0.0,0.0,0.0,0.0,0.0,0.0,0.0,0.0,0.0,0.0,0.0,0.0,0.0,0.0,0.0,0.0,0.0,0.0,0.0,0.0,0.0,0.0,0.0,0.0,0.0,0.0,0.0,0.0,0.0,0.0,0.0,0.0,0.0,0.0,0.0,0.0,0.0,0.0,0.0,0.0,0.0,0.0,0.0,0.0,0.0,0.0,0.0,0.0,0.0,0.0,0.0,0.0,0.0,0.0,0.0,0.0,0.0,0.0,0.0,0.0,0.0,0.0,0.0,0.0,0.0,0.0,0.0,0.0,0.0,0.0,0.0,0.0,0.0,0.0,0.0,0.0,0.0,0.0,0.0,0.0,0.0,0.0,0.0,0.0,0.0,0.0,0.0,0.0,0.0,0.0,0.0,0.0,0.0,0.0,0.0,0.0,0.0,0.0,0.0,0.0,0.0,0.0,0.0,0.0,0.0,0.0,0.0,0.0,0.0,0.0,0.0,0.0,0.0,0.0,0.0,0.0,0.0,0.0,0.0,0.0,0.0,0.0,0.0,0.0,0.0,0.0,0.0,0.0,0.0,0.0,0.0,0.0,0.0,0.0,0.0,0.0,0.0,0.0,0.0,0.0,0.0,0.0,0.0,0.0,0.0,0.0,0.0,0.0,0.0,0.0,0.0,0.0,0.0,0.0,0.0,0.0,0.0,0.0,0.0,0.0,0.0,0.0,0.0,0.0,0.0,0.0,0.0,0.0,0.0,0.0,0.0,0.0,0.0,0.0,0.0,0.0,0.0,0.0,0.0,0.0,0.0,0.0,0.0,0.0,0.0,0.0,0.0,0.0,0.0,0.0,0.0,0.0,0.0,0.0,0.0,0.0,0.0,0.0,0.0,0.0,0.0,0.0,0.0,0.0,0.0,0.0,0.0,0.0,0.0,0.0,0.0,0.0,0.0,0.0,0.0,0.0,0.0,0.0,0.0,0.0,0.0,0.0,0.0,0.0,0.0,0.0,0.0,0.0,0.0,0.0,0.0,0.0,0.0,0.0,0.0,0.0,0.0,0.0,0.0,0.0,0.0,0.0,0.0,0.0,0.0,0.0,0.0,0.0,0.0,0.0,0.0,0.0,0.0,0.0,0.0,0.0,0.0,0.0,0.0,0.0,0.0,0.0,0.0,0.0,0.0,0.0,0.0,0.0,0.0,0.0,0.0,0.0,0.0,0.0,0.0,0.0,0.0,0.0,0.0,0.0,0.0,0.0,0.0,0.0,0.0,0.0,0.0,0.0,0.0,0.0,0.0,0.0,0.0,0.0,0.0,0.0,0.0,0.0,0.0,0.0,0.0,0.0,0.0,0.0,0.0,0.0,0.0,0.0,0.0,0.0,0.0,0.0,0.0,0.0,0.0,0.0,0.0,0.0,0.0,0.0,0.0,0.0,0.0,0.0,0.0,0.0,0.0,0.0,0.0,0.0,0.0,0.0,0.0,0.0,0.0,0.0,0.0,0.0,0.0,0.0,0.0,0.0,0.0,0.0,0.0,0.0,0.0,0.0,0.0,0.0,0.0,0.0,0.0,0.0,0.0,0.0,0.0,0.0,0.0,0.0,0.0,0.0,0.0,0.0,0.0,0.0,0.0,0.0,0.0,0.0,0.0,0.0,0.0,0.0,0.0,0.0,0.0,0.0,0.0,0.0,0.0,0.0,0.0,0.0,0.0,0.0,0.0,0.0,0.0,0.0,0.0,0.0,0.0,0.0,0.0,0.0,0.0,0.0,0.0,0.0,0.0,0.0,0.0,0.0,0.0,0.0,0.0,0.0,0.0,0.0,0.0,0.0,0.0,0.0,0.0,0.0,0.0,0.0,0.0,0.0,0.0,0.0,0.0,0.0,0.0,0.0,0.0,0.0,0.0,0.0,0.0,0.0,0.0,0.0,0.0,0.0,0.0,0.0,0.0,0.0,0.0,0.0,0.0,0.0,0.0,0.0,0.0,0.0,0.0,0.0,0.0,0.0,0.0,0.0,0.0,0.0,0.0,0.0,0.0,0.0,0.0,0.0,0.0,0.0,0.0,0.0,0.0,0.0,0.0,0.0,0.0,0.0,0.0,0.0,0.0,0.0,0.0,0.0,0.0,0.0,0.0,0.0,0.0,0.0,0.0,0.0,0.0,0.0,0.0,0.0,0.0,0.0,0.0,0.0,0.0,0.0,0.0,0.0,0.0,0.0,0.0,0.0,0.0,0.0,0.0,0.0,0.0,0.0,0.0,0.0,0.0,0.0,-2.5775,-2.4472,0.0,0.0,0.0,0.0,0.0,0.0,0.0,0.0,0.0,0.0,0.0,0.0,0.0,0.0,0.0,0.0,0.0,0.0,0.0,0.0,0.0,0.0,0.0,-1.2782,-1.3349,-1.4034,-1.4083,0.0,0.0,0.0,0.0,0.0,0.0,0.0,0.0,0.0,-1.4111,-1.4873,-1.5451,-1.6413,-1.7776,-1.6877,-1.6307,-1.6027,0.0,0.0,0.0,0.0,0.0,0.0,0.0,0.0,0.0,0.0,0.0,0.0,0.0,0.0,0.0,0.0,0.0,0.0,0.0,0.0,0.0,0.0,0.0,0.0,0.0,0.0,0.0,0.0,0.0,0.0,0.0,0.0,0.0,0.0,0.0,0.0,0.0,0.0,0.0,0.0,0.0,0.0,0.0,0.0,0.0,0.0,0.0,0.0,0.0,0.0,0.0,0.0,0.0,0.0,0.0,0.0,0.0,0.0,0.0,0.0,0.0,0.0,0.0,0.0,0.0,0.0,0.0,0.0,0.0,0.0,-2.7918,-2.6712,0.0,0.0,0.0,0.0,0.0,0.0,0.0,0.0,0.0,0.0,0.0,0.0,0.0,0.0,0.0,0.0,0.0,0.0,0.0,0.0,0.0,-1.1977,-1.2637,-1.3192,-1.3746,-1.4373,-1.4422,-1.4253,-1.3795,-1.375,0.0,0.0,0.0,0.0,-1.4206,-1.4386,-1.5203,-1.6731,-1.7194,-1.8209,-1.9693,-1.9572,-1.9409,-1.9073,-1.7168,0.0,0.0,0.0,0.0,0.0,0.0,0.0,0.0,0.0,0.0,0.0,0.0,0.0,0.0,0.0,0.0,0.0,0.0,0.0,0.0,0.0,0.0,0.0,0.0,0.0,0.0,0.0,0.0,0.0,0.0,0.0,0.0,0.0,0.0,0.0,0.0,0.0,0.0,0.0,0.0,0.0,0.0,0.0,0.0,0.0,0.0,0.0,0.0,0.0,0.0,0.0,0.0,0.0,0.0,0.0,0.0,0.0,0.0,0.0,0.0,0.0,0.0,0.0,-2.9529,-3.0205,-3.054,-2.9894,-3.0196,-3.1244,-3.006,-2.9191,-2.8643,-2.8486,0.0,0.0,0.0,0.0,0.0,0.0,0.0,0.0,0.0,0.0,0.0,0.0,0.0,0.0,0.0,0.0,0.0,0.0,0.0,-1.1568,-1.2589,-1.3192,-1.3852,-1.4821,-1.4893,-1.4869,-1.4797,-1.4446,0.0,0.0,0.0,0.0,-1.4278,-1.5133,-1.6097,-1.7218,-1.9651,-2.1224,-2.1956,-2.1983,-2.2192,-2.2426,-1.9729,-1.8786,-1.9205,0.0,0.0,0.0,0.0,0.0,0.0,0.0,0.0,0.0,0.0,0.0,0.0,0.0,0.0,0.0,0.0,0.0,0.0,0.0,0.0,0.0,0.0,0.0,0.0,0.0,0.0,0.0,0.0,0.0,0.0,0.0,0.0,0.0,0.0,0.0,0.0,0.0,0.0,0.0,0.0,0.0,-2.4625,-2.5826,0.0,0.0,0.0,0.0,0.0,0.0,0.0,0.0,0.0,0.0,0.0,0.0,0.0,-2.8523,-2.8594,-2.9264,-2.9762,-3.0208,-3.0916,-3.1287,-3.1363,-3.1261,-3.1219,-3.1278,-3.1074,0.0,-2.9942,-2.9915,0.0,0.0,0.0,0.0,0.0,0.0,0.0,0.0,0.0,0.0,0.0,0.0,0.0,0.0,0.0,0.0,0.0,0.0,0.0,0.0,0.0,-1.441,-1.5372,-1.6456,-1.6617,-1.6311,-1.5497,-1.5395,0.0,0.0,0.0,-1.4312,-1.4254,-1.5497,-1.7112,-1.9124,-2.1718,-2.3106,-2.3367,-2.3367,-2.3472,-2.3655,-2.24,-2.1433,-2.0701,-2.0152,0.0,0.0,0.0,0.0,0.0,0.0,0.0,0.0,0.0,0.0,0.0,0.0,0.0,0.0,0.0,0.0,0.0,0.0,0.0,0.0,0.0,0.0,0.0,0.0,0.0,0.0,0.0,0.0,0.0,0.0,0.0,0.0,0.0,0.0,0.0,0.0,0.0,0.0,0.0,-2.5241,-2.5949,-2.7427,-2.6762,-2.6267,0.0,0.0,0.0,0.0,0.0,0.0,0.0,0.0,0.0,-3.0396,-3.1299,-3.1611,-3.124,-3.1811,-3.2008,-3.1823,-3.2017,-3.191,-3.15,-3.1423,-3.1423,-3.1423,-3.1351,-3.1181,-3.0912,-3.0469,-2.9924,-2.9348,0.0,0.0,0.0,0.0,-2.9903,-3.0213,0.0,0.0,0.0,0.0,0.0,0.0,0.0,0.0,0.0,0.0,0.0,0.0,-1.459,-1.5773,-1.6872,-1.7809,-1.7986,-1.7452,-1.6249,-1.5984,-1.5147,-1.3532,-1.4225,-1.4637,-1.4538,-1.6454,-1.856,-2.0957,-2.2911,-2.3923,-2.4125,-2.4125,-2.4125,-2.4125,-2.4125,-2.3393,-2.2139,-2.1587,-2.0523,-1.9126,0.0,0.0,0.0,0.0,0.0,0.0,0.0,0.0,0.0,0.0,0.0,0.0,0.0,0.0,0.0,0.0,0.0,0.0,0.0,0.0,0.0,0.0,0.0,0.0,0.0,0.0,0.0,0.0,0.0,0.0,0.0,0.0,0.0,0.0,0.0,0.0,0.0,-2.6626,-2.7242,-2.8401,-2.8247,-2.8062,0.0,0.0,0.0,0.0,0.0,0.0,-3.0559,-3.1757,-3.2376,-3.228,-3.3498,-3.3809,-3.3237,-3.3646,-3.3608,-3.3132,-3.3019,-3.2706,-3.2158,-3.2047,-3.2047,-3.2119,-3.2008,-3.211,-3.2286,-3.1158,-3.0577,-3.0409,-3.0142,-3.004,-3.0179,-3.0972,-3.1386,-3.166,0.0,0.0,0.0,0.0,0.0,0.0,0.0,0.0,0.0,0.0,0.0,-1.4614,-1.5588,-1.6834,-1.7833,-1.8424,-1.8193,-1.7747,-1.7254,-1.5887,-1.4811,-1.4261,-1.3887,-1.421,-1.5405,-1.861,-2.0907,-2.2138,-2.2799,-2.3484,-2.4125,-2.4125,-2.4125,-2.4125,-2.4125,-2.4073,-2.3916,-2.3177,-2.2838,-2.2572,-2.064,0.0,0.0,0.0,0.0,0.0,0.0,0.0,0.0,0.0,0.0,0.0,0.0,0.0,0.0,0.0,0.0,0.0,0.0,0.0,0.0,0.0,0.0,0.0,0.0,0.0,0.0,0.0,0.0,0.0,0.0,0.0,0.0,0.0,0.0,0.0,0.0,0.0,0.0,-2.8381,-2.8935,0.0,0.0,0.0,0.0,-2.9637,-3.0211,-3.0863,-3.1685,-3.2789,-3.3157,-3.2592,-3.3565,-3.3816,-3.3237,-3.3646,-3.3922,-3.4042,-3.4042,-3.4007,-3.3973,-3.3973,-3.3894,-3.3779,-3.3779,-3.411,-3.4541,-3.2354,-3.1059,-3.0551,-3.1239,-3.1551,-3.1765,-3.2524,-3.3283,-3.3938,0.0,0.0,0.0,-1.2324,-1.2198,-1.2142,-1.2212,-1.2173,-1.2203,-1.2396,-1.4069,-1.5536,-1.6212,-1.7856,-1.9171,-1.9679,-1.9486,-1.9028,-1.8267,-1.6824,-1.5831,-1.5604,-1.4926,-1.5499,-1.7506,-1.9449,-2.101,-2.214,-2.2795,-2.3458,-2.4125,-2.4125,-2.4125,-2.4125,-2.4125,-2.4125,-2.4099,-2.3826,-2.3393,-2.2839,-2.2114,-2.1657,0.0,0.0,0.0,0.0,0.0,0.0,0.0,0.0,0.0,0.0,0.0,0.0,0.0,0.0,0.0,0.0,0.0,0.0,0.0,0.0,0.0,0.0,0.0,0.0,0.0,0.0,0.0,0.0,0.0,0.0,0.0,0.0,0.0,0.0,0.0,0.0,0.0,-3.033,-3.0269,0.0,-3.0627,-3.0627,-3.0721,-3.1072,-3.1715,-3.2186,-3.2476,-3.3598,-3.4101,-3.3909,-3.497,-3.5634,-3.5959,-3.6122,-3.6207,-3.6284,-3.6284,-3.6008,-3.5525,-3.5442,-3.5442,-3.5449,-3.54,-3.5538,-3.571,-3.4919,-3.4163,-3.347,-3.379,-3.3658,-3.3352,-3.4111,-3.4559,-3.4829,0.0,0.0,0.0,-1.183,-1.2041,-1.2258,-1.2365,-1.2508,-1.283,-1.3395,-1.5048,-1.6527,-1.7407,-1.8963,-2.0052,-2.0432,-2.0222,-1.9725,-1.8863,-1.7434,-1.6491,-1.6147,-1.5889,-1.6715,-1.8815,-1.9843,-2.0818,-2.1729,-2.2408,-2.31,-2.378,-2.3982,-2.4125,-2.4125,-2.4125,-2.4125,-2.4125,-2.4125,-2.4037,-2.3844,-2.3426,-2.3148,-2.2921,0.0,0.0,0.0,0.0,0.0,0.0,0.0,0.0,0.0,0.0,0.0,0.0,0.0,0.0,0.0,0.0,0.0,0.0,0.0,0.0,0.0,0.0,0.0,0.0,0.0,0.0,0.0,0.0,0.0,0.0,0.0,0.0,0.0,0.0,-2.9058,-3.0074,-3.1072,-3.1195,-3.1362,-3.1685,-3.1933,-3.2111,-3.2195,-3.2685,-3.2966,-3.2966,-3.4036,-3.482,-3.5051,-3.6106,-3.7077,-3.7836,-3.787,-3.787,-3.787,-3.787,-3.7594,-3.7077,-3.7034,-3.7034,-3.7077,-3.7025,-3.7206,-3.7456,-3.7456,-3.7137,-3.6612,-3.618,-3.558,-3.5,-3.5522,-3.5736,-3.5711,0.0,0.0,-1.1549,-1.1748,-1.1822,-1.1932,-1.233,-1.2389,-1.3028,-1.4755,-1.6126,-1.7529,-1.9127,-2.0045,-2.0635,-2.0571,-2.027,-1.9788,-1.9164,-1.7734,-1.6535,-1.5839,-1.6636,-1.7709,-1.9059,-1.9916,-2.0579,-2.1123,-2.1729,-2.2408,-2.3075,-2.378,-2.4067,-2.4125,-2.4125,-2.4125,-2.4125,-2.4125,-2.4765,-2.5685,-2.4455,-2.4603,-2.5448,0.0,0.0,0.0,0.0,0.0,0.0,0.0,0.0,0.0,0.0,0.0,0.0,0.0,0.0,0.0,0.0,0.0,0.0,0.0,0.0,0.0,0.0,0.0,0.0,0.0,0.0,0.0,0.0,0.0,0.0,0.0,0.0,0.0,-2.955,-3.0043,-3.0474,-3.0474,-3.1613,-3.2191,-3.1681,-3.2207,-3.2718,-3.2912,-3.3043,-3.3096,-3.3096,-3.4218,-3.5181,-3.5991,-3.6968,-3.787,-3.8629,-3.8629,-3.8629,-3.8663,-3.8663,-3.8663,-3.8663,-3.8663,-3.8663,-3.8663,-3.8663,-3.9077,-3.9733,-3.9733,-3.9686,-3.9549,-3.8112,-3.7182,-3.6658,-3.6705,-3.6764,-3.6701,-1.0943,-1.1057,-1.1228,-1.1549,-1.1712,-1.1859,-1.1968,-1.2399,-1.312,-1.4275,-1.6219,-1.7926,-1.8838,-2.019,-2.0892,-2.0635,-2.027,-1.981,-1.9126,-1.7567,-1.6356,-1.5813,-1.7935,-1.9157,-1.9346,-1.9871,-2.0501,-2.1123,-2.1313,-2.1978,-2.3075,-2.328,-2.3603,-2.4125,-2.4125,-2.4125,-2.4125,-2.4125,-2.4563,-2.5189,-2.486,-2.488,-2.4997,0.0,0.0,0.0,0.0,0.0,0.0,0.0,0.0,0.0,0.0,0.0,0.0,0.0,0.0,0.0,0.0,0.0,0.0,0.0,0.0,0.0,0.0,0.0,0.0,0.0,0.0,0.0,0.0,0.0,0.0,0.0,-3.0135,-3.0905,-3.0228,-3.1204,-3.1967,-3.1859,-3.2252,-3.2516,-3.2331,-3.2594,-3.2881,-3.3043,-3.315,-3.3256,-3.3256,-3.4756,-3.5792,-3.5991,-3.7478,-3.8629,-3.9388,-3.9388,-3.9664,-4.025,-4.025,-4.025,-4.025,-4.025,-4.025,-4.025,-4.025,-4.013,-3.9914,-3.9914,-3.9715,-3.926,-3.8715,-3.8085,-3.7422,-3.7002,-3.6602,-3.6247,-1.0601,-1.0753,-1.0905,-1.1228,-1.1378,-1.1542,-1.1785,-1.2325,-1.327,-1.4971,-1.6508,-1.7947,-1.944,-2.0268,-2.0658,-2.0377,-2.0205,-1.9701,-1.8896,-1.749,-1.685,-1.7203,-1.8629,-1.9497,-1.9703,-1.9944,-2.027,-2.07,-2.125,-2.1916,-2.2713,-2.328,-2.3721,-2.4125,-2.4125,-2.4125,-2.4125,-2.4125,-2.4274,-2.462,-2.462,-2.4886,-2.5208,-2.4871,-2.4455,-2.4063,-2.3794,-2.354,-2.3388,-2.3833,0.0,0.0,0.0,0.0,0.0,0.0,0.0,0.0,0.0,0.0,0.0,0.0,0.0,0.0,0.0,0.0,0.0,0.0,0.0,0.0,0.0,0.0,0.0,0.0,-3.112,-3.1674,-3.1305,-3.1975,-3.2523,-3.2382,-3.2523,-3.2578,-3.2578,-3.2827,-3.302,-3.3096,-3.3203,-3.3435,-3.3688,-3.5165,-3.6191,-3.6533,-3.8167,-3.933,-3.9816,-4.0087,-4.0422,-4.0871,-4.0645,-4.0645,-4.0871,-4.0645,-4.0645,-4.0871,-4.0597,-4.0319,-3.9986,-3.9765,-3.9506,-3.9209,0.0,0.0,0.0,0.0,-3.6615,-3.586,-1.0079,-1.0351,-1.0621,-1.0905,-1.0981,-1.1169,-1.1579,-1.2141,-1.3424,-1.6105,-1.6692,-1.7778,-2.0239,-2.0335,-2.014,-2.0074,-2.0074,-1.9613,-1.8538,-1.77,-1.7812,-1.9015,-1.8929,-1.9266,-2.0053,-2.0074,-2.0074,-2.0074,-2.1313,-2.1916,-2.1978,-2.3305,-2.3923,-2.3982,-2.4067,-2.4125,-2.4125,-2.4125,-2.4125,-2.4125,-2.4125,-2.4708,-2.5632,-2.5632,-2.5632,-2.5549,-2.5073,-2.4543,-2.3933,-2.3459,0.0,0.0,0.0,0.0,0.0,0.0,0.0,0.0,0.0,0.0,0.0,0.0,0.0,0.0,0.0,0.0,0.0,0.0,0.0,0.0,0.0,0.0,0.0,0.0,-3.1951,-3.2382,-3.2382,-3.2382,-3.2382,-3.2382,-3.2523,-3.2633,-3.2633,-3.2935,-3.3096,-3.3096,-3.3319,-3.3656,-3.4257,-3.5473,0.0,0.0,0.0,-3.9734,-3.9885,-4.0451,-4.0728,-4.0728,-4.017,-4.017,-4.068,-4.017,-4.022,-4.068,-4.012,-3.9834,-3.9783,-3.9295,-3.9028,-3.9028,-3.9082,-3.8756,-3.8141,-3.7685,-3.669,-3.571,-1.004,-1.0157,-1.0312,-1.0621,-1.0867,-1.0943,-1.085,-1.1753,-1.3192,-1.5329,-1.6504,-1.7948,-1.9986,-2.0399,-2.0377,-2.014,-2.0074,-1.9703,-1.8731,-1.8689,-1.8711,-1.8736,-1.9441,-1.9878,-2.0074,-2.0074,-2.0074,-2.0074,-2.0399,-2.0764,-2.1313,-2.2101,-2.2798,-2.3339,-2.3865,-2.4125,-2.4125,-2.4125,-2.4125,-2.4125,-2.4125,-2.4216,-2.4447,-2.4447,-2.4447,-2.4478,-2.4856,-2.4914,-2.4915,-2.5771,-2.5317,-2.4559,-2.576,-2.5265,0.0,0.0,0.0,0.0,0.0,0.0,0.0,0.0,0.0,0.0,0.0,0.0,0.0,0.0,0.0,0.0,0.0,0.0,0.0,-3.1366,-3.1951,-3.2382,-3.2382,-3.2382,-3.2468,-3.2523,-3.2718,-3.2881,-3.2989,-3.3043,-3.315,-3.3256,-3.3814,-3.4162,-3.4288,-3.6077,-3.7145,-3.7329,-3.8606,-3.932,-3.9348,-3.9454,-3.9506,-3.9506,-3.9401,0.0,-3.9506,-3.9401,-3.9401,-3.9506,-3.9401,-3.9082,-3.8613,-3.8502,-3.8197,-3.786,-3.8311,-3.8141,-3.7626,-3.7539,-3.7322,-3.716,-0.9686,-0.9804,-0.998,-1.0312,-1.0467,-1.0562,-1.0582,-1.1491,-1.2686,-1.4146,-1.5436,-1.6722,-1.7941,-1.8465,-1.8507,-1.811,-1.8272,-1.8394,-1.8394,-1.8698,-1.9039,-1.9397,-1.9813,-2.0074,-2.0074,-2.0074,-2.0074,-2.0074,-2.0464,-2.0764,-2.1123,-2.1791,-2.2286,-2.2652,-2.328,-2.3603,-2.3603,-2.3982,-2.4125,-2.4125,-2.4125,-2.4125,-2.4125,-2.4125,-2.4125,-2.4125,-2.4447,-2.4563,-2.4647,-2.5317,-2.5104,-2.475,-2.5575,-2.5438,-2.5033,0.0,0.0,0.0,0.0,0.0,0.0,0.0,0.0,0.0,0.0,0.0,0.0,0.0,0.0,-3.0412,-3.0412,0.0,-3.189,-3.189,-3.2167,-3.2382,-3.2382,-3.2468,-3.2523,-3.2578,-3.2773,-3.2966,-3.3096,-3.315,-3.3382,-3.3783,-3.4099,-3.4604,-3.5331,-3.6612,-3.7326,-3.7374,-3.8592,-3.9028,-3.8756,-3.9028,-3.9189,-3.9222,-3.892,-3.892,-3.9189,-3.892,-3.892,-3.9189,-3.8865,-3.8557,-3.8278,-3.7969,-3.7743,-3.7539,-3.777,-3.7743,-3.748,-3.748,-3.748,-3.7539,-0.9417,-0.956,-0.9762,-0.998,-1.0079,-1.0157,-1.039,-1.1223,-1.2123,-1.3097,-1.4304,-1.5346,-1.6005,-1.6372,-1.6433,-1.6144,-1.6613,-1.7265,-1.8025,-1.8628,-1.9331,-2.0053,-2.0074,-2.0074,-2.0074,-2.0074,-2.0074,-2.0074,-2.0635,-2.0892,-2.0933,-2.1628,-2.1916,-2.1916,-2.2592,-2.2895,-2.2955,-2.3484,-2.3806,-2.3923,-2.3923,-2.3982,-2.4125,-2.4125,-2.4125,-2.4125,-2.4125,-2.4125,-2.4125,-2.4189,-2.4305,-2.4363,-2.4563,-2.4991,-2.5522,-2.5688,-2.5767,0.0,0.0,0.0,0.0,0.0,0.0,0.0,0.0,-3.0532,-3.0348,-3.0022,-3.0843,-3.1582,-3.1582,-3.2044,-3.2382,-3.2382,-3.2272,-3.2272,-3.2382,-3.2468,-3.2468,-3.2687,-3.2827,-3.2989,-3.3096,-3.3256,-3.3561,-3.4225,-3.4415,-3.5078,-3.6342,-3.699,-3.7367,-3.7508,-3.8399,-3.8645,-3.8141,-3.8645,-3.8865,-3.8865,-3.8367,-3.8423,-3.881,-3.8367,-3.8423,-3.881,-3.8367,-3.8141,-3.8141,-3.7685,-3.748,-3.748,-3.748,-3.748,-3.748,-3.748,-3.748,-3.7571,-0.9747,-0.9758,-0.9723,-0.9762,-0.9941,-1.004,-0.9841,-1.0681,-1.174,-1.2811,-1.3684,-1.473,-1.5965,-1.6144,-1.6165,-1.6124,-1.7197,-1.7962,-1.8068,-1.9253,-1.9966,-2.0074,-2.0074,-2.0074,-2.0074,-2.0074,-2.0074,-2.0074,-2.0205,-2.0205,-2.0205,-2.0892,-2.1187,-2.125,-2.1916,-2.2224,-2.2224,-2.2286,-2.2677,-2.322,-2.322,-2.3603,-2.4125,-2.4125,-2.4125,-2.4125,-2.4125,-2.4125,-2.4125,-2.4099,-2.4216,-2.4363,-2.4563,-2.4734,-2.5094,-2.6294,-2.6303,-2.6147,-2.7324,-2.7666,-2.7969,-2.9347,-2.9224,-2.9245,0.0,-3.099,-3.0885,-3.1842,-3.2167,-3.229,-3.229,-3.2351,-3.2382,-3.2382,-3.1936,-3.1823,-3.2468,-3.2104,-3.2104,-3.2935,-3.3043,-3.315,-3.3256,-3.3309,-3.3561,-3.4225,-3.4889,-3.5616,-3.6374,-3.7065,-3.7504,-3.748,-3.7626,-3.7626,-3.7567,-3.7658,-3.7685,-3.7685,-3.7626,-3.7626,-3.7685,-3.7626,-3.7626,-3.7685,-3.7626,-3.7567,-3.7567,-3.7539,-3.748,-3.748,-3.748,-3.748,-3.748,-3.748,-3.748,-3.7634,-0.9631,-0.9789,-0.9938,-1.0325,-1.0303,-1.0102,-0.9759,-1.047,-1.1254,-1.1685,-1.2461,-1.3176,-1.3729,-1.3768,-1.3768,-1.3768,-1.5405,-1.6497,-1.6497,-1.813,-1.9177,-1.9177,-1.9462,-1.966,-1.966,-1.9944,-2.0074,-2.0074,-2.0074,-2.0074,-2.0074,-2.0399,-2.0506,-2.0571,-2.125,-2.1502,-2.1565,-2.1916,-2.2286,-2.2531,-2.2531,-2.2677,-2.2919,-2.2919,-2.316,-2.3654,-2.4372,-2.4655,0.0,-2.4715,-2.4892,-2.5047,-2.4784,-2.4791,-2.5179,-2.6397,-2.6375,-2.6276,-2.7842,-2.9092,-3.0036,-3.0597,-3.0511,-3.066,-3.1811,-3.1897,-3.186,-3.2302,-3.2104,-3.1879,-3.1879,-3.1595,-3.1276,-3.1276,-3.1043,-3.1102,-3.1595,-3.1537,-3.1652,-3.2247,-3.2358,-3.2633,-3.3256,-3.3656,-3.4162,-3.4889,-3.5584,-3.6311,-3.7006,-3.7322,-3.748,-3.748,-3.748,-3.748,-3.748,-3.748,-3.748,-3.748,-3.748,-3.748,-3.748,-3.748,-3.7361,-3.7029,-3.7029,-3.7029,-3.7029,-3.7029,-3.7029,-3.706,-3.7466,-3.7622,-3.7621,-3.7547,-3.7733,-3.8112,-0.9554,-0.9744,-1.0012,-1.065,-1.0531,-1.0264,-0.9903,-1.0367,-1.0735,-1.0735,-1.1453,-1.2006,-1.2067,-1.2085,-1.2085,-1.2085,-1.3936,-1.5177,-1.5313,-1.7233,-1.8388,-1.8509,-1.8844,-1.911,-1.911,-1.9594,-1.9878,-1.9878,-2.0009,-2.0074,-2.0074,-2.0074,-2.0074,-2.014,-2.0635,-2.0828,-2.0892,-2.1313,-2.169,-2.1791,-2.1791,-2.1916,-2.2101,-2.2101,-2.2408,-2.2944,-2.4004,-2.458,-2.4939,-2.4662,-2.501,-2.5387,-2.4738,-2.477,-2.5263,-2.6674,-2.7108,-2.7455,-2.8759,-3.0097,-3.1099,-3.0989,-3.1083,-3.1329,-3.1632,-3.1931,-3.2223,-3.214,-3.1936,-3.1709,-3.1537,-3.1131,-3.0689,-3.051,-3.0389,-3.051,-3.1014,-3.1073,-3.1248,-3.1709,-3.1974,-3.2435,-3.3131,-3.3623,-3.4335,-3.5414,-3.5775,-3.6279,-3.7058,-3.7089,-3.7089,-3.7089,-3.7089,-3.715,-3.7301,-3.7301,-3.7361,-3.748,-3.7361,-3.7301,-3.727,-3.715,-3.6846,-3.6445,-3.6445,-3.6445,-3.6476,-3.6661,-3.6753,-3.6815,-3.7492,-3.7738,-3.771,-3.7623,-3.8089,-3.8807,-0.9641,-0.9625,-0.9753,-1.0383,-1.0481,-1.0445,-1.0306,-1.0312,-1.033,-1.033,-1.1003,-1.1645,-1.208,-1.2085,-1.2085,-1.2085,-1.3723,-1.4848,-1.5294,-1.6954,-1.8067,-1.8489,-1.8509,-1.8509,-1.8509,-1.9044,-1.9309,-1.9309,-1.9878,-2.0074,-2.0074,-2.0074,-2.0074,-2.0074,-2.014,-2.014,-2.014,-2.014,-2.0506,-2.1123,-2.1123,-2.1502,-2.2101,-2.2101,-2.2101,-2.2163,-2.2555,-2.3424,-2.4168,-2.3358,-2.3883,-2.4711,-2.4119,-2.4446,-2.5371,-2.7162,-2.8899,-3.0283,-3.0313,-3.0367,-3.0319,-2.9701,-3.0054,-3.0358,-2.9718,-3.0598,-3.1509,-3.1537,-3.1992,-3.216,-3.1595,-3.148,-3.1248,-3.0629,-3.0208,-3.0329,-3.1102,-3.0984,-3.1073,-3.1823,-3.2455,-3.2907,-3.2907,-3.2907,-3.3719,-3.5577,-3.5248,-3.5214,-3.5946,-3.5976,-3.5976,-3.5976,-3.5976,-3.6196,-3.6723,-3.6723,-3.6968,-3.748,-3.6968,-3.6723,-3.6723,-3.6196,-3.5913,-3.5913,-3.5913,-3.5913,-3.5973,-3.6641,-3.6849,-3.691,-3.7546,-3.7788,-3.7788,-3.7758,-3.8515,-3.9566,-0.8944,-0.9036,-0.9221,-1.0027,-0.9947,-0.9722,-0.9596,-1.0004,-1.0234,-1.0136,-1.0488,0.0,0.0,0.0,0.0,0.0,-1.3088,-1.3923,-1.4354,-1.5638,-1.659,-1.7025,-1.7629,-1.7969,-1.7969,-1.8509,-1.8777,-1.8777,-1.8977,-1.9044,-1.9044,-1.9044,-1.9243,-1.9594,-1.9594,-1.9791,-2.0074,-2.0074,-2.0205,-2.0464,-2.0464,-2.0571,-2.0831,-2.1485,-2.1786,-2.1824,0.0,-2.3174,-2.3781,-2.289,-2.3722,-2.4877,-2.3864,-2.4195,-2.529,-2.6701,-2.8112,-2.9209,-2.9186,-2.9498,-2.9745,-2.9525,-2.9665,-2.997,-3.0527,-3.1062,-3.1473,-3.1973,-3.182,-3.1633,-3.1381,-3.0877,-3.0432,-3.0178,-3.0277,-3.0387,-3.0444,-3.1108,-3.1608,-3.1661,-3.2252,-3.2936,-3.3662,-3.4,-3.4516,-3.5156,-3.5398,-3.567,-3.5913,-3.5913,-3.5913,-3.5913,-3.5913,-3.5976,-3.6196,-3.6196,-3.6258,-3.6445,-3.6258,-3.6196,-3.6165,-3.5976,-3.5963,-3.6058,-3.6058,-3.6261,-3.6709,-3.6918,-3.7007,-3.7097,-3.7694,-3.7963,-3.8063,-3.8471,-3.9113,-3.9739,-0.8623,-0.8681,-0.8907,-0.9502,-0.9413,0.0,0.0,0.0,0.0,0.0,0.0,0.0,0.0,0.0,0.0,0.0,0.0,-1.2933,-1.3543,-1.4623,-1.5515,-1.6065,-1.6655,-1.6987,-1.6987,-1.7519,-1.7843,-1.8022,-1.8201,-1.8348,-1.8509,-1.8509,-1.871,-1.9044,-1.9243,-1.9507,-1.9791,-2.0009,-2.0183,-2.038,-2.0162,-2.0074,-2.014,-2.0839,-2.084,0.0,-2.1266,-2.1957,-2.2506,-2.2346,-2.316,-2.4236,-2.3389,-2.4006,-2.5388,-2.6773,-2.7884,-2.8756,-2.9104,-2.9523,-2.9821,-2.9821,-2.9821,-3.0038,-3.0798,-3.1149,-3.1453,-3.1817,-3.1781,-3.1584,-3.1321,-3.0815,-3.0533,-3.0773,-3.1165,-3.1396,-3.1225,-3.2074,-3.2377,-3.1709,-3.2105,-3.2782,-3.3644,-3.4203,-3.4644,-3.4961,-3.5224,-3.5335,-3.5335,-3.5335,-3.5335,-3.5335,-3.5335,-3.5464,-3.5657,-3.5657,-3.5657,-3.5657,-3.5657,-3.5529,-3.5365,-3.5603,-3.5733,-3.5878,-3.6045,-3.6398,-3.681,-3.7075,-3.7164,-3.7222,-3.784,-3.8076,-3.8207,-3.8649,-3.8987,-3.929,-0.8594,-0.865,-0.8699,0.0,0.0,0.0,0.0,0.0,0.0,0.0,0.0,0.0,0.0,0.0,0.0,0.0,0.0,0.0,-1.2923,-1.3843,-1.4739,-1.5588,-1.5643,-1.5661,-1.568,-1.6192,-1.6638,-1.7062,-1.7566,-1.7981,-1.8402,-1.8402,-1.8422,-1.8509,-1.8977,-1.9243,-1.9309,-1.9791,-2.0336,-2.0751,-2.0227,-2.0031,-2.0009,-2.0053,-1.955,-1.8819,-1.9403,-1.9998,-2.0563,-2.1604,-2.2355,-2.2834,-2.2802,-2.3987,-2.5653,-2.7249,-2.8158,-2.8875,-3.0023,-3.035,-3.035,-3.0446,-3.0446,-3.0446,-3.05,-3.0923,-3.1366,-3.1366,-3.1866,-3.2127,-3.1443,-3.131,-3.1499,-3.2027,-3.2791,-3.3213,-3.3115,-3.352,-3.33,-3.2046,-3.2168,-3.2495,-3.2805,-3.3374,-3.4128,-3.5037,-3.4668,-3.4399,-3.4399,-3.4399,-3.4399,-3.4399,-3.4399,-3.4668,-3.5169,-3.5169,-3.5169,-3.5169,-3.5169,-3.4935,-3.4486,-3.5096,-3.5456,-3.5572,-3.6112,-3.6373,-3.646,-3.7099,-3.736,-3.7418,-3.797,-3.8202,-3.8202,-3.8202,-3.8202,-3.8352,0.0,0.0,0.0,0.0,0.0,0.0,0.0,0.0,0.0,0.0,0.0,0.0,0.0,0.0,0.0,0.0,0.0,0.0,-1.1206,-1.2367,-1.3362,-1.4197,-1.4889,-1.5386,-1.568,-1.5808,-1.5928,-1.6039,-1.615,-1.644,-1.6853,-1.6853,-1.7206,-1.7901,-1.8037,-1.8307,-1.8777,-1.9309,-1.9401,-1.9189,-1.9468,-1.9375,-1.9135,-1.9813,-1.9676,-1.9148,-2.007,-2.0305,-2.0335,-2.0803,-2.2051,-2.3602,-2.434,-2.4898,-2.5461,-2.6786,-2.7198,-2.7669,-2.931,-2.9741,-2.9917,-3.0891,-3.107,-3.1178,-3.1639,-3.1864,-3.1979,-3.1979,-3.2121,-3.2053,-3.1404,-3.1709,-3.1858,-3.1309,-3.2218,-3.2698,-3.1977,-3.2748,-3.296,-3.1695,-3.2412,-3.2736,-3.2126,-3.2545,-3.3146,-3.3687,-3.4167,-3.4399,-3.4399,-3.4399,-3.4399,-3.4399,-3.4399,-3.4467,-3.4601,-3.4601,-3.4601,-3.4601,-3.4601,-3.4797,-3.5125,-3.5299,-3.588,-3.6809,-3.6983,-3.7302,-3.7738,-3.7912,-3.797,-3.7999,-3.8144,-3.8202,-3.8202,-3.8202,-3.8202,-3.8277,0.0,0.0,0.0,0.0,0.0,0.0,0.0,0.0,0.0,0.0,0.0,0.0,0.0,0.0,0.0,0.0,0.0,0.0,0.0,-1.1296,-1.2214,-1.3154,-1.3868,-1.443,-1.4891,-1.4891,-1.5074,-1.5441,-1.5074,-1.5294,-1.6046,-1.5863,-1.6122,-1.6826,-1.7092,-1.7337,-1.7665,-1.8185,-1.8359,0.0,0.0,-1.83,-1.8131,-1.8659,-1.8403,-1.7916,-1.8956,-1.9848,-2.0629,-2.1643,-2.2771,-2.3855,-2.4657,-2.4872,-2.5162,-2.6533,-2.6905,-2.7297,-2.899,-2.9444,-2.9673,-3.0613,-3.1063,-3.1315,-3.1315,-3.179,-3.2028,-3.1541,-3.1631,-3.1612,-3.1015,-3.1446,-3.1875,-3.1858,-3.2876,-3.3367,-3.2467,-3.299,-3.301,-3.1683,-3.1969,-3.219,-3.211,-3.2163,-3.2466,-3.3055,-3.331,-3.352,-3.3894,-3.3548,-3.3381,-3.3381,-3.3381,-3.3381,-3.3381,-3.3381,-3.3522,-3.3734,-3.3734,-3.4043,-3.4635,-3.4944,-3.5451,-3.6127,-3.6485,-3.6767,-3.7078,-3.7078,-3.7078,-3.7078,-3.7078,-3.7078,-3.7078,-3.7078,-3.7078,-3.7078,0.0,0.0,0.0,0.0,0.0,0.0,0.0,0.0,0.0,-0.7779,-0.8158,-0.8363,-0.8363,-0.8404,0.0,0.0,0.0,0.0,0.0,0.0,-1.1204,-1.2168,-1.262,-1.3112,-1.3677,-1.3677,-1.4118,-1.4928,-1.4176,-1.4396,-1.5515,-1.5184,-1.5239,-1.5606,-1.6154,-1.6364,-1.6427,-1.6951,-1.7382,-1.7708,-1.7345,-1.7163,-1.7102,0.0,-1.6618,-1.605,-1.7265,-1.891,-2.0865,-2.2947,-2.3742,-2.3953,-2.4458,-2.4675,-2.4985,-2.6476,-2.6964,-2.7381,-2.8948,-2.9376,-2.9553,-3.0139,-3.0696,-3.0895,-3.029,-3.0987,-3.1414,-3.0401,-3.053,-3.067,-3.0158,-3.0686,-3.1442,-3.2314,-3.339,-3.3902,-3.3373,-3.3296,-3.2954,-3.1759,-3.1316,-3.1468,-3.2171,-3.1836,-3.1993,-3.2777,-3.2288,-3.2264,-3.3043,-3.2472,-3.2082,-3.2001,-3.2074,-3.2128,-3.2209,-3.2209,-3.2508,-3.3003,-3.3003,-3.3328,-3.3846,-3.4465,-3.4736,-3.4844,-3.5411,-3.5628,-3.5628,-3.5628,-3.5628,-3.5628,-3.5628,-3.5628,-3.5628,-3.5628,-3.5628,-3.5628,0.0,0.0,0.0,0.0,0.0,0.0,0.0,0.0,0.0,0.0,-0.8255,-0.815,0.0,0.0,0.0,0.0,0.0,0.0,0.0,0.0,0.0,-1.0592,-1.1106,-1.1831,-1.2744,-1.2744,-1.3215,-1.4102,-1.3626,-1.3846,-1.4708,-1.4653,-1.4818,-1.5221,-1.566,-1.5808,-1.5872,-1.6446,-1.648,-1.6227,-1.6577,-1.6497,-1.6153,-1.6153,0.0,0.0,-1.7284,-1.8217,-1.9276,-2.1777,-2.3393,-2.4482,-2.5011,-2.5468,-2.5949,-2.6673,-2.723,-2.7791,-2.9096,-2.9424,-2.9526,-3.0139,-3.0393,-3.0265,-2.9728,-2.9512,-2.9295,-2.9047,-2.8802,-2.8508,-2.8334,-2.9424,-3.0099,-2.9502,-3.0603,-3.1517,-3.1552,-3.1526,-3.1419,-3.116,-3.1447,-3.1456,-3.086,-3.1073,-3.1514,-3.2008,-3.1347,-3.1391,-3.2305,-3.223,-3.2017,-3.1636,-3.1783,-3.2098,-3.2509,-3.2658,-3.303,-3.3549,-3.3549,-3.3873,-3.4546,-3.4654,-3.4952,-3.5493,-3.5574,-3.5628,-3.5628,-3.5628,-3.5628,-3.5628,-3.5628,-3.5628,-3.5628,-3.5628,-3.5628,-3.5628,0.0,0.0,0.0,0.0,0.0,0.0,0.0,-0.7935,-0.8166,-0.8612,-0.8596,-0.8597,-0.876,-0.8593,-0.8408,0.0,0.0,0.0,0.0,0.0,0.0,-0.9886,-1.0317,-1.0918,-1.1693,-1.1892,-1.2243,-1.2694,0.0,-1.2802,-1.3767,-1.3708,-1.404,-1.4799,-1.5001,-1.5074,-1.5074,-1.5364,-1.5331,-1.5144,-1.5384,-1.5369,-1.5196,-1.5196,0.0,0.0,-1.7201,-1.7984,-1.872,-2.0662,-2.1933,-2.3052,-2.4755,-2.5661,-2.6214,-2.6767,-2.7296,-2.7903,-2.8748,-2.8973,-2.9028,-2.9263,-2.9574,-2.958,-2.8375,-2.8492,-2.8497,-2.7627,-2.7506,-2.7533,-2.7439,-2.8505,-2.915,-2.8703,-2.9722,-3.0573,-3.0615,-3.0612,-3.0698,-3.088,-3.1223,-3.1308,-3.1076,-3.1076,-3.1223,-3.1734,-3.1149,-3.115,-3.1967,-3.1344,-3.0778,-3.0241,-3.0599,-3.0958,-3.1397,-3.1759,-3.2278,-3.2904,-3.2904,-3.3216,-3.3897,-3.3897,-3.4027,-3.4262,-3.4262,-3.4262,-3.4262,-3.4262,-3.4262,-3.4262,-3.4262,-3.4262,-3.4262,-3.4262,-3.4262,-3.4262,0.0,0.0,0.0,0.0,0.0,0.0,0.0,-0.8333,-0.8489,-0.8813,-0.8979,-0.912,-0.9368,-0.876,-0.8306,0.0,0.0,0.0,0.0,0.0,0.0,0.0,0.0,0.0,0.0,0.0,0.0,-1.1639,-1.1406,0.0,0.0,0.0,0.0,0.0,-1.441,-1.4506,-1.4506,-1.4506,-1.4506,0.0,0.0,-1.4616,0.0,0.0,0.0,0.0,0.0,-1.7585,-1.8096,-1.9531,-2.035,-2.1167,-2.372,-2.506,-2.5816,-2.6264,-2.683,-2.7419,-2.806,-2.8259,-2.8259,-2.8419,-2.8895,-2.8811,-2.7083,-2.7384,-2.7586,-2.6119,-2.6163,-2.6409,-2.6595,-2.743,-2.8041,-2.8041,-2.915,-2.9905,-3.0004,-3.0195,-3.0465,-3.073,-3.0763,-3.0842,-3.1069,-3.0914,-3.093,-3.1359,-3.1177,-3.1211,-3.1644,-3.0548,-2.9756,-2.934,-2.9731,-3.0163,-3.0449,-3.0951,-3.1531,-3.2306,-3.2306,-3.2557,-3.3068,-3.3068,-3.3068,-3.3068,-3.3068,-3.3068,-3.3068,-3.3068,-3.3068,-3.3068,-3.3068,-3.3068,-3.3068,-3.3068,-3.3068,-3.3093,0.0,0.0,0.0,0.0,0.0,0.0,0.0,-0.8489,-0.8825,-0.934,-0.9246,-0.9163,-0.9358,-0.9138,-0.8828,0.0,0.0,0.0,0.0,0.0,0.0,0.0,0.0,0.0,0.0,0.0,0.0,-1.1889,-1.1475,0.0,0.0,0.0,0.0,0.0,0.0,-1.4506,-1.4506,-1.4506,0.0,0.0,0.0,0.0,0.0,0.0,0.0,0.0,0.0,-1.6437,-1.6768,-1.8528,-1.9193,-1.9515,-2.1453,-2.3198,-2.4591,-2.4635,-2.5297,-2.6191,-2.708,-2.7348,-2.751,-2.8259,-2.8498,-2.8168,-2.6526,-2.5877,-2.5441,-2.4792,-2.4353,-2.4396,-2.5272,-2.5924,-2.6311,-2.6311,-2.7642,-2.8851,-2.9301,-3.0194,-3.0668,-3.0302,-3.0281,-2.992,-2.905,-2.9761,-3.0305,-3.0351,-3.1158,-3.1448,-3.1003,-3.0387,-3.0073,-3.0025,-3.024,-3.0591,-3.1138,-3.1357,-3.1846,-3.2649,-3.2649,-3.2846,-3.3068,-3.3068,-3.3068,-3.3068,-3.3068,-3.3068,-3.3068,-3.3068,-3.3068,-3.3068,-3.3068,-3.3068,-3.3068,-3.3068,-3.3068,-3.3144,0.0,0.0,0.0,0.0,0.0,0.0,-0.8453,-0.8609,-0.8873,-0.9412,-0.9388,-0.9381,-0.942,-0.9166,-0.8745,-0.8177,0.0,0.0,0.0,0.0,0.0,0.0,0.0,0.0,0.0,0.0,-1.0247,-1.061,-1.0809,0.0,0.0,0.0,0.0,0.0,0.0,-1.3692,-1.3312,-1.3752,0.0,0.0,0.0,0.0,0.0,0.0,0.0,0.0,0.0,0.0,-1.6793,-1.7505,-1.7999,-1.8408,-1.9147,-2.0272,-2.1757,-2.3667,-2.4777,-2.5552,-2.6168,-2.634,-2.6423,-2.6835,-2.6689,-2.6075,-2.455,-2.4184,-2.3886,-2.3136,-2.3399,-2.4001,-2.4699,-2.5135,-2.5409,-2.5409,-2.6,-2.6725,-2.7227,-2.7889,-2.8468,-2.8903,-2.8902,-2.8832,-2.8751,-2.905,-2.9326,-2.9326,-2.9692,-2.9806,-2.9602,-3.0201,-3.0422,-3.0086,-3.0483,-3.0834,-3.1199,-3.1625,-3.2068,-3.255,-3.255,-3.2574,-3.2661,-3.2661,-3.2661,-3.2661,-3.281,-3.2896,-3.2896,-3.3068,-3.3068,-3.3068,-3.3068,-3.3294,-3.3571,-3.3571,-3.3796,-3.4098,0.0,0.0,0.0,0.0,0.0,-0.74,-0.8119,-0.8434,-0.8752,-0.9285,-0.9348,-0.9355,-0.9297,-0.9014,-0.857,-0.8004,-0.7972,0.0,0.0,0.0,0.0,0.0,0.0,0.0,0.0,0.0,-0.9939,-0.988,-1.023,-1.0573,0.0,0.0,-1.1593,-1.2074,0.0,0.0,0.0,0.0,0.0,0.0,0.0,0.0,0.0,0.0,0.0,0.0,0.0,0.0,0.0,0.0,0.0,-1.7277,-1.762,-1.8118,-1.9184,-2.2138,-2.3444,-2.4196,-2.4994,-2.5209,-2.54,-2.5735,-2.5469,-2.4829,-2.336,-2.3022,-2.282,-2.1822,-2.2428,-2.3276,-2.3792,-2.4135,-2.434,-2.434,-2.4737,-2.5157,-2.5722,-2.6231,-2.6846,-2.7406,-2.7493,-2.7506,-2.7586,-2.8036,-2.8402,-2.868,-2.868,-2.868,-2.868,-2.9646,-3.0121,-2.9659,-3.0097,-3.0349,-3.0437,-3.0814,-3.1181,-3.1359,-3.1359,-3.1472,-3.1536,-3.1536,-3.1649,-3.1937,-3.2089,-3.2351,-3.2636,-3.2896,-3.2982,-3.3007,-3.3244,-3.3545,-3.3922,-3.4073,-3.4399,-3.4751,0.0,0.0,0.0,0.0,0.0,0.0,-0.7052,-0.7785,-0.85,-0.8954,-0.9045,-0.9126,-0.9126,-0.8609,-0.8285,-0.8285,-0.8263,0.0,0.0,0.0,0.0,0.0,0.0,0.0,0.0,0.0,-0.9829,-1.0288,-1.011,-1.011,-1.0301,-1.078,-1.1017,-1.1017,0.0,0.0,0.0,0.0,0.0,0.0,0.0,0.0,0.0,0.0,0.0,0.0,0.0,0.0,0.0,0.0,0.0,0.0,0.0,-1.7135,-1.7222,-1.9659,-2.079,-2.1601,-2.3349,-2.3967,-2.4382,-2.5484,-2.5469,-2.4829,-2.336,-2.2659,-2.2024,-2.1081,-2.1257,-2.1669,-2.2199,-2.2703,-2.3032,-2.3032,-2.3842,-2.4653,-2.5135,-2.6118,-2.6563,-2.5972,-2.5924,-2.5767,-2.5208,-2.6384,-2.7652,-2.8588,-2.868,-2.868,-2.868,-2.868,-2.8751,-2.8751,-2.8751,-2.8751,-2.8773,-2.8773,-2.8866,-2.905,-2.905,-2.9143,-2.9396,-2.9396,-2.9966,-3.089,-3.089,-3.1448,-3.24,-3.2636,-3.2723,-3.2773,-3.3583,-3.3897,-3.3972,-3.45,-3.4726,-3.4801,0.0,0.0,0.0,0.0,0.0,0.0,0.0,-0.6728,-0.729,-0.8204,-0.7934,-0.8016,-0.9003,-0.7944,-0.7316,-0.7711,-0.7554,0.0,0.0,0.0,0.0,0.0,0.0,0.0,0.0,0.0,-0.9869,-1.0392,-1.0327,-1.0428,-1.0674,-1.06,-1.0575,-1.0627,-1.1115,-1.108,0.0,0.0,0.0,0.0,0.0,0.0,0.0,0.0,0.0,0.0,0.0,0.0,0.0,0.0,0.0,0.0,0.0,0.0,0.0,-1.7347,-1.9084,-2.0595,-2.1423,-2.1831,-2.2168,-2.2185,-2.2271,-2.197,-2.0715,-2.0728,-2.0631,-1.9708,-2.054,-2.1559,-2.1712,-2.1975,-2.2239,-2.2576,-2.267,-2.29,-2.3264,-2.4181,-2.4824,-2.4906,-2.5411,-2.5754,-2.5508,-2.5915,-2.6284,-2.6668,-2.6668,-2.6668,-2.6668,-2.6668,-2.7295,-2.868,-2.868,-2.868,-2.868,-2.868,-2.8773,-2.8773,-2.8773,-2.8866,-2.8958,-2.8958,-2.9143,-2.9418,-2.951,-2.9784,-3.0079,-3.0328,-3.0626,-3.0836,-3.109,-3.167,-3.232,-3.2674,-3.3051,-3.3499,0.0,0.0,0.0,0.0,0.0,0.0,0.0,-0.5893,-0.6387,-0.7221,-0.7002,-0.7118,-0.8111,-0.7175,-0.666,-0.7136,-0.6719,0.0,0.0,0.0,0.0,0.0,0.0,0.0,-0.8414,-0.8894,-0.9439,-1.0067,-1.0184,-1.0454,-1.0886,-1.0542,-1.03,-1.0188,-1.0458,-1.0328,0.0,0.0,0.0,0.0,0.0,0.0,-1.3563,0.0,0.0,0.0,0.0,0.0,0.0,0.0,0.0,0.0,0.0,0.0,0.0,0.0,-1.7133,-1.8547,-1.9972,-2.0642,-2.0844,-2.0832,-2.0728,-2.0327,-1.9487,-1.938,-1.9233,-1.8466,-1.9471,-2.0461,-2.0532,-2.0933,-2.1322,-2.1703,-2.1669,-2.1836,-2.2441,-2.3105,-2.3769,-2.4355,-2.5039,-2.5488,-2.5488,-2.5644,-2.5742,-2.5742,-2.5742,-2.5742,-2.5742,-2.5742,-2.6284,-2.7484,-2.7579,-2.7579,-2.7579,-2.7579,-2.7579,-2.7579,-2.7579,-2.7579,-2.7579,-2.7579,-2.7767,-2.8121,-2.8308,-2.8603,0.0,-2.9409,-2.9791,-3.0141,-3.0415,-3.0957,-3.1515,-3.1892,-3.2261,-3.2655,0.0,0.0,0.0,0.0,0.0,0.0,0.0,-0.5262,-0.5718,-0.6059,-0.6173,-0.6365,-0.6744,-0.6341,-0.6174,-0.6473,0.0,0.0,0.0,0.0,0.0,0.0,0.0,0.0,-0.6823,-0.7705,-0.8613,-0.9416,-0.9764,-1.026,-1.0912,-1.0526,-1.026,-0.9928,-0.9904,-0.9748,0.0,0.0,0.0,0.0,0.0,0.0,0.0,0.0,0.0,0.0,0.0,0.0,0.0,0.0,0.0,0.0,0.0,0.0,0.0,0.0,0.0,0.0,0.0,-1.9893,-2.0205,-2.0705,-2.0335,-1.9771,-1.9259,-1.8635,0.0,-1.7555,-1.8086,-1.8746,-1.8969,-1.9697,-2.0333,-2.0566,-2.0996,-2.15,-2.2252,-2.2708,-2.3306,-2.4117,-2.4581,-2.4908,-2.4908,-2.5295,-2.5528,-2.5528,-2.5625,-2.5645,-2.5742,-2.5645,-2.5625,-2.5742,-2.5645,-2.5625,-2.5742,-2.5742,-2.5742,-2.5742,-2.5742,-2.5742,-2.5742,-2.5742,-2.6207,-2.7146,-2.7146,-2.7893,-2.918,-2.9371,-2.9729,-3.0209,-3.0943,-3.1219,-3.1307,-3.1873,-3.2028,-3.2028,0.0,0.0,0.0,0.0,0.0,0.0,0.0,0.0,0.0,0.0,-0.4914,-0.5027,-0.6267,-0.5262,-0.4746,0.0,0.0,0.0,0.0,0.0,0.0,0.0,0.0,0.0,-0.6763,-0.7163,-0.7717,-0.8433,-0.9335,-1.0003,-1.0483,-1.0971,-1.0997,-1.0526,-1.0321,-0.9916,0.0,0.0,0.0,0.0,0.0,0.0,0.0,0.0,0.0,0.0,-1.1266,-1.1493,0.0,0.0,0.0,0.0,0.0,0.0,0.0,0.0,-1.3872,-1.4271,-1.5889,0.0,-1.7705,-1.757,-1.8133,-1.8658,0.0,-1.8003,-1.7953,-1.7398,-1.7788,-1.8408,-1.9145,-1.9431,-1.9868,-2.09,-2.1293,-2.1389,-2.1244,-2.1375,-2.1776,-2.2571,-2.2693,-2.2863,-2.3061,-2.3249,-2.3601,-2.4393,-2.451,-2.4805,-2.5645,-2.4922,-2.4805,-2.5645,-2.4903,-2.4903,-2.5742,-2.5742,-2.5742,-2.5742,-2.5742,-2.5742,-2.5742,-2.5742,-2.6016,-2.6606,-2.6606,-2.6943,-2.7543,-2.7643,-2.7905,-2.8307,-2.8511,-2.8753,-2.9056,-2.9387,-2.9533,-2.9533,0.0,0.0,0.0,0.0,0.0,0.0,0.0,0.0,0.0,0.0,0.0,-0.4237,-0.5137,-0.4485,0.0,0.0,0.0,0.0,0.0,0.0,0.0,0.0,0.0,-0.5381,-0.5932,-0.6336,-0.701,-0.778,-0.8591,-0.9406,-1.0339,-1.0627,-1.0685,-1.0526,-1.014,-0.9748,0.0,0.0,0.0,0.0,-1.0309,0.0,0.0,0.0,0.0,0.0,-1.0256,-1.0533,0.0,-1.1155,-1.1439,-1.18,0.0,0.0,0.0,0.0,-1.2952,-1.3068,-1.3682,-1.5119,-1.643,-1.638,-1.6655,-1.6872,-1.6517,-1.6403,-1.6228,-1.5878,-1.6369,-1.7022,-1.7698,-1.8152,-1.8717,-1.952,-2.0214,-2.0766,-2.0874,-2.1176,-2.1428,-2.1845,-2.1878,-2.1963,-2.2165,-2.2165,-2.2366,-2.2968,-2.3085,-2.3402,-2.4016,-2.3601,-2.3601,-2.4214,-2.3701,-2.4097,-2.5645,-2.5742,-2.5742,-2.5742,-2.5937,-2.6035,-2.6055,-2.623,-2.6445,-2.668,-2.668,-2.6914,-2.7305,-2.7305,-2.7559,-2.7949,-2.7949,-2.8086,-2.8301,-2.8514,-2.8514,-2.8514,0.0,0.0,0.0,0.0,0.0,0.0,0.0,0.0,0.0,0.0,0.0,0.0,0.0,0.0,0.0,0.0,0.0,0.0,0.0,0.0,0.0,0.0,-0.4633,-0.4674,-0.4911,-0.5563,-0.6335,-0.7114,-0.7673,-0.8651,-0.9948,-0.99,-0.9958,-1.0207,-0.9729,-0.952,-0.9484,0.0,0.0,0.0,-0.9868,0.0,0.0,0.0,0.0,0.0,0.0,0.0,0.0,-1.1144,-1.1341,-1.1527,-1.2157,0.0,0.0,0.0,0.0,0.0,-1.2291,-1.3705,-1.5327,-1.5748,-1.5539,-1.52,-1.5152,-1.4673,-1.4242,-1.4242,-1.4768,-1.5375,-1.6025,-1.6815,-1.7459,-1.792,-1.883,-1.9766,-2.0621,-2.0925,-2.1049,-2.1151,-2.1151,-2.1151,-2.1151,-2.1253,-2.1237,-2.144,-2.1659,-2.1878,-2.1979,-2.208,-2.2198,-2.2468,-2.2367,-2.3208,-2.521,-2.5467,-2.5527,-2.5546,-2.617,-2.6484,-2.6504,-2.6855,-2.7051,-2.7109,-2.7109,-2.7363,-2.7754,-2.7754,-2.7969,-2.8301,-2.8301,-2.8301,-2.8301,-2.8301,-2.8301,-2.8281,0.0,0.0,0.0,0.0,0.0,0.0,0.0,0.0,0.0,0.0,0.0,0.0,0.0,0.0,0.0,0.0,0.0,0.0,0.0,0.0,0.0,-0.4628,-0.4853,-0.4992,-0.4918,-0.529,-0.5607,-0.586,-0.6969,-0.7744,-0.8304,-0.9255,-0.9727,-0.9766,-0.98,-0.9688,-0.9484,-0.9484,-0.9628,-0.9868,-0.9868,0.0,0.0,0.0,0.0,0.0,0.0,0.0,0.0,-1.0441,-1.0887,-1.1416,-1.1764,0.0,0.0,0.0,0.0,0.0,-1.2018,-1.2669,-1.3393,-1.3814,-1.4556,-1.5062,-1.476,-1.4601,-1.4522,-1.4522,-1.4855,-1.5507,-1.6746,-1.679,-1.7186,-1.8672,-1.8555,-1.8503,-1.919,-1.8714,-1.8304,-1.8527,-1.8527,-1.8632,-1.893,-1.893,-1.9332,-2.0231,-2.0333,-2.0743,-2.176,-2.0845,-2.0885,-2.2121,-2.1515,-2.1764,-2.3005,-2.4284,-2.495,-2.495,-2.6295,-2.6914,-2.6914,-2.6992,-2.7226,-2.7559,-2.7559,-2.7812,-2.8203,-2.8203,-2.8242,-2.8301,-2.8301,-2.8301,-2.8301,-2.8301,-2.8301,-2.8242,0.0,0.0,0.0,0.0,0.0,0.0,0.0,0.0,0.0,0.0,0.0,0.0,0.0,0.0,0.0,0.0,0.0,0.0,0.0,0.0,0.0,-0.444,-0.4764,-0.4861,-0.4728,-0.5127,-0.5458,-0.5682,-0.6417,-0.7157,-0.7886,-0.8629,-0.8894,-0.8844,-0.9051,-0.906,-0.8958,-0.8958,-0.9015,-0.9117,0.0,0.0,0.0,0.0,0.0,0.0,0.0,0.0,0.0,0.0,-1.0657,-1.1071,-1.144,0.0,0.0,0.0,0.0,0.0,-1.1604,-1.1938,-1.2376,-1.3037,-1.3746,-1.4349,-1.4363,-1.4237,-1.4027,-1.3846,-1.4109,-1.4631,-1.556,-1.5778,-1.6425,-1.8009,-1.7851,-1.7747,-1.8156,-1.7907,-1.7687,-1.7806,-1.7793,-1.7793,-1.8003,-1.8003,-1.8199,-1.8708,-1.8969,-1.9386,-1.9897,-1.9758,-1.992,-2.0604,-2.019,-2.0264,-2.0723,-2.2264,-2.3246,-2.3566,-2.4474,-2.4986,-2.4986,-2.5201,-2.5505,-2.5901,-2.5901,-2.601,-2.6391,-2.6391,-2.6391,-2.6391,-2.7079,-2.7163,-2.7043,-2.7466,-2.7598,-2.7578,0.0,0.0,0.0,0.0,0.0,0.0,0.0,0.0,0.0,0.0,0.0,0.0,0.0,0.0,0.0,0.0,0.0,0.0,0.0,0.0,-0.4455,-0.4294,-0.461,-0.4683,-0.4675,-0.5073,-0.5402,-0.5725,-0.6066,-0.6596,-0.7424,-0.7846,-0.7941,-0.7771,-0.8038,-0.8213,-0.8096,-0.8096,-0.8096,-0.8096,0.0,0.0,0.0,0.0,0.0,0.0,0.0,0.0,0.0,0.0,0.0,0.0,0.0,0.0,0.0,-1.0707,-1.0659,-1.0635,-1.091,-1.1205,-1.169,-1.2606,-1.3117,-1.3484,-1.4027,-1.3837,-1.3471,-1.34,-1.3664,-1.4035,-1.4599,-1.5364,-1.6152,-1.7208,-1.7301,-1.7328,-1.7555,-1.7582,-1.7582,-1.7582,-1.7582,-1.7582,-1.7582,-1.7582,-1.7609,-1.7689,-1.8117,-1.8387,-1.8469,-1.8892,-1.9154,-1.9237,-1.9237,-1.9265,-1.9334,-2.0565,-2.1505,-2.2344,-2.3026,-2.3316,-2.3316,-2.3706,-2.3933,-2.4172,-2.4172,-2.4283,-2.4488,-2.4488,-2.4505,-2.471,-2.5519,-2.5703,-2.543,-2.6079,-2.6378,-2.6583,0.0,0.0,0.0,0.0,0.0,0.0,0.0,0.0,0.0,0.0,0.0,0.0,0.0,0.0,0.0,0.0,0.0,0.0,0.0,0.0,-0.4295,-0.4289,-0.4466,-0.4608,-0.4755,-0.5078,-0.5286,-0.5432,-0.5689,-0.5972,-0.6114,-0.6834,-0.6964,-0.6648,-0.7146,-0.7225,-0.699,-0.699,-0.699,-0.699,-0.6924,0.0,0.0,0.0,0.0,0.0,0.0,0.0,0.0,0.0,0.0,0.0,0.0,0.0,-0.8883,-0.8798,-0.8662,-0.8705,-0.9702,-1.0166,-1.0766,-1.2363,-1.2548,-1.2628,-1.385,-1.3521,-1.3168,-1.3901,-1.428,-1.4651,-1.5227,-1.6249,-1.6967,-1.6794,-1.7208,-1.7555,-1.7582,-1.7582,-1.7582,-1.7582,-1.7582,-1.7582,-1.7582,-1.7582,-1.7702,-1.7996,-1.8009,-1.8143,-1.8437,-1.8588,-1.8722,-1.8878,-1.9231,-1.9367,-1.9421,-1.9768,-2.053,-2.1647,-2.307,-2.3789,-2.3789,-2.3822,-2.3822,-2.3822,-2.3822,-2.3822,-2.3822,-2.3822,-2.4044,-2.4361,-2.4115,-2.399,-2.4,-2.3965,-2.47,-2.5478,0.0,0.0,0.0,0.0,0.0,0.0,0.0,0.0,0.0,0.0,0.0,0.0,0.0,0.0,0.0,0.0,0.0,0.0,0.0,-0.4257,-0.4268,-0.4191,-0.43,-0.4444,-0.4608,-0.4925,-0.5272,-0.5571,-0.5912,-0.6068,-0.6025,-0.6035,-0.5927,-0.5722,-0.618,-0.6388,-0.6427,-0.6316,-0.6332,-0.636,-0.5785,-0.5881,0.0,0.0,0.0,0.0,0.0,0.0,0.0,0.0,-0.8093,-0.8303,-0.8586,-0.8665,-0.8656,-0.8439,-0.8303,-0.8231,-0.8674,-0.9055,-0.9556,-1.0656,-1.0773,-1.1059,-1.2991,-1.3267,-1.3351,-1.3734,-1.3369,-1.3303,-1.4338,-1.5377,-1.6248,-1.6919,-1.7315,-1.7371,-1.6617,-1.6499,-1.6287,-1.553,-1.5423,-1.5743,-1.6499,-1.6662,-1.706,-1.7649,-1.8103,-1.8277,-1.8223,-1.8397,-1.8624,-1.8918,-1.9031,-1.9179,-1.9359,-1.9475,-1.9754,-2.0202,-2.0773,-2.1045,-2.1045,-2.1045,-2.1159,-2.1259,-2.1259,-2.1255,-2.1302,-2.1302,-2.1294,-2.1289,-2.1818,-2.2445,-2.3133,-2.3014,-2.3236,-2.3542,0.0,0.0,0.0,0.0,0.0,0.0,0.0,0.0,0.0,0.0,0.0,0.0,0.0,0.0,0.0,0.0,0.0,0.0,-0.4181,-0.4257,-0.4262,-0.4181,-0.4257,-0.4387,-0.4583,-0.4893,-0.5146,-0.5564,-0.5899,-0.5978,-0.5717,-0.5491,-0.5295,-0.512,-0.5414,-0.5569,-0.5705,-0.5501,-0.5542,-0.5562,-0.4882,-0.496,0.0,0.0,0.0,0.0,0.0,0.0,0.0,0.0,-0.7095,-0.7328,-0.7569,-0.7742,-0.7819,-0.7607,-0.7607,-0.7716,-0.7877,-0.8196,-0.8648,-0.9611,-0.9702,-1.0027,-1.155,-1.2204,-1.2708,-1.3174,-1.2605,-1.2372,-1.3409,-1.4045,-1.4826,-1.5799,-1.6218,-1.618,-1.5423,-1.5258,-1.4881,-1.4136,-1.3923,-1.4243,-1.5199,-1.5863,-1.6414,-1.7184,-1.7886,-1.8303,-1.8196,-1.8384,-1.8584,-1.8784,-1.8784,-1.8891,-1.9092,-1.9092,-1.9092,-1.9092,-1.9092,-1.9145,-1.9225,-1.9225,-1.9287,-1.9421,-1.9421,-1.9412,-1.9332,-1.9332,-1.9265,-1.9192,-1.992,-2.077,-2.1458,-2.1425,-2.1615,-2.1952,0.0,0.0,0.0,0.0,0.0,0.0,0.0,0.0,0.0,0.0,0.0,0.0,0.0,0.0,0.0,0.0,0.0,0.0,-0.43,-0.43,-0.43,-0.43,-0.43,-0.4469,-0.4822,-0.4833,-0.4947,-0.5186,-0.5431,-0.5426,-0.5181,-0.5067,-0.5018,-0.5007,-0.4762,-0.4719,-0.4817,-0.4572,-0.4469,-0.4463,-0.4349,-0.43,-0.43,0.0,0.0,0.0,0.0,0.0,0.0,0.0,-0.5306,-0.5637,-0.5782,-0.5874,-0.603,-0.603,-0.6342,-0.6819,-0.7308,-0.7708,-0.8138,-0.9279,-0.9651,-0.9777,-0.949,-1.0199,-1.1072,-1.2093,-1.2298,-1.2274,-1.2365,-1.2541,-1.2781,-1.3215,-1.355,-1.3804,-1.403,-1.3731,-1.3593,-1.3803,-1.3593,-1.3593,-1.3803,-1.507,-1.597,-1.6223,-1.7373,-1.8061,-1.8464,-1.8477,-1.8477,-1.849,-1.849,-1.849,-1.849,-1.849,-1.849,-1.849,-1.849,-1.8637,-1.8918,-1.8918,-1.8758,-1.849,-1.849,-1.849,-1.849,-1.849,-1.8536,-1.8468,-1.8791,-1.8884,-1.8884,-1.8884,-1.9715,-2.0846,0.0,0.0,0.0,0.0,0.0,0.0,0.0,0.0,0.0,0.0,0.0,0.0,0.0,0.0,0.0,0.0,0.0,0.0,-0.4175,-0.4251,-0.4262,-0.4175,-0.4257,-0.4349,-0.4458,-0.4621,-0.4866,-0.5186,-0.5257,-0.5219,-0.5067,-0.4942,-0.4887,-0.4887,-0.4811,-0.4751,-0.4697,-0.4539,-0.4518,-0.466,-0.4469,-0.442,-0.442,0.0,0.0,0.0,0.0,0.0,0.0,0.0,0.0,0.0,-0.5525,-0.5721,-0.5874,-0.5956,-0.6051,-0.6132,-0.6233,-0.6812,-0.7361,-0.765,-0.8318,-0.8844,-0.8777,-0.9476,-1.0158,-0.993,-1.059,-1.1138,-1.1159,-1.1425,-1.187,-1.2846,-1.323,-1.3156,-1.2408,-1.2135,-1.1783,-1.1142,-1.0933,-1.125,-1.2107,-1.283,-1.3467,-1.4353,-1.4942,-1.5327,-1.5441,-1.5441,-1.5861,-1.6929,-1.6929,-1.7482,-1.849,-1.849,-1.849,-1.849,-1.849,-1.8531,-1.8624,-1.8624,-1.8571,-1.849,-1.849,-1.837,-1.8183,-1.8183,-1.813,-1.8171,-1.87,-1.8892,-1.8892,-1.9097,-1.9481,-1.98,0.0,0.0,0.0,0.0,0.0,0.0,0.0,0.0,-0.2421,-0.222,-0.2555,-0.2757,0.0,0.0,0.0,-0.3355,-0.3489,0.0,-0.3736,-0.3992,-0.4064,-0.3996,-0.4196,-0.4344,-0.4436,-0.4675,-0.4855,-0.4974,-0.5023,-0.5012,-0.4942,-0.492,-0.4958,-0.5045,-0.5045,-0.498,-0.4855,-0.4686,-0.4632,-0.4715,-0.4518,-0.4469,-0.4469,0.0,0.0,0.0,0.0,0.0,0.0,0.0,0.0,0.0,-0.5179,-0.535,-0.5603,-0.5828,-0.6074,-0.6378,-0.6476,-0.7041,-0.7611,-0.7706,-0.8065,-0.8445,-0.8621,-0.909,-0.9355,-0.901,-0.9428,-0.9915,-0.9985,-1.0116,-1.045,-1.1263,-1.1576,-1.1546,-1.0891,-1.0724,-1.0357,-0.9712,-0.961,-0.9821,-1.0675,-1.138,-1.2101,-1.2733,-1.3386,-1.3733,-1.3814,-1.3804,-1.4202,-1.5212,-1.5212,-1.574,-1.6795,-1.7245,-1.7463,-1.7463,-1.7463,-1.7681,-1.813,-1.8263,-1.825,-1.8143,-1.8263,-1.8277,-1.8223,-1.8223,-1.8223,-1.8237,-1.8631,-1.8766,-1.8874,-1.9097,-1.9277,-1.9289,0.0,0.0,0.0,0.0,0.0,0.0,0.0,-0.222,-0.222,-0.222,-0.222,-0.222,0.0,0.0,0.0,-0.2686,-0.2958,-0.3159,-0.3226,-0.3489,-0.3689,-0.3756,-0.4038,-0.4351,-0.4576,-0.4709,-0.4709,-0.4565,-0.4683,-0.4817,-0.4822,-0.4953,-0.5137,-0.5355,-0.5355,-0.5279,-0.5137,-0.4904,-0.4735,-0.4698,-0.4512,-0.4469,-0.4469,-0.4469,0.0,0.0,0.0,0.0,0.0,0.0,0.0,0.0,-0.478,-0.496,-0.5191,-0.561,-0.6304,-0.7099,-0.7504,-0.7872,-0.8247,-0.8662,-0.8495,-0.8438,-0.8845,-0.894,-0.894,-0.894,-0.8825,-0.8771,-0.8913,-0.8825,-0.8886,-0.9244,-0.9382,-0.9485,-0.9706,-0.9363,-0.9269,-0.9478,-0.9269,-0.9269,-0.9478,-1.0582,-1.1328,-1.1328,-1.2299,-1.294,-1.294,-1.294,-1.3156,-1.348,-1.348,-1.3696,-1.403,-1.5102,-1.5648,-1.5755,-1.5779,-1.6324,-1.7305,-1.7675,-1.7755,-1.7649,-1.7956,-1.8237,-1.849,-1.8517,-1.8531,-1.8531,-1.8557,-1.8731,-1.8958,-1.8958,-1.9132,-1.9372,0.0,0.0,0.0,0.0,0.0,0.0,-0.222,-0.222,-0.222,-0.222,-0.222,-0.222,-0.222,-0.2287,0.0,-0.2686,-0.2753,-0.2887,-0.3159,-0.2887,-0.2887,-0.3293,-0.3432,-0.3591,-0.3704,-0.3243,-0.3212,-0.36,-0.4344,-0.4692,-0.4697,-0.4915,-0.5094,-0.5224,-0.5224,-0.5105,-0.4893,-0.4648,-0.4534,-0.4507,-0.448,-0.4469,-0.4469,-0.4469,-0.4398,0.0,0.0,0.0,0.0,0.0,0.0,0.0,-0.4711,-0.4821,-0.4914,-0.5318,-0.5739,-0.6274,-0.707,-0.7362,-0.7529,-0.7632,-0.8068,-0.8484,-0.8803,-0.894,-0.894,-0.894,-0.8913,-0.8899,-0.8933,-0.8913,-0.8899,-0.9044,-0.9051,-0.9051,-0.9051,-0.9023,-0.8996,-0.8996,-0.8996,-0.8996,-0.8996,-0.9244,-0.9596,-0.9809,-1.0139,-1.0359,-1.057,-1.057,-1.1008,-1.1973,-1.1973,-1.2516,-1.3804,-1.3804,-1.4019,-1.446,-1.444,-1.4636,-1.5074,-1.6018,-1.6902,-1.7969,-1.8263,-1.8437,-1.8504,-1.8731,-1.8824,-1.8851,-1.9092,-1.9212,-1.9265,-1.9265,-1.9319,-1.9372,0.0,0.0,0.0,0.0,0.0,0.0,0.0,0.0,-0.2185,-0.2225,-0.222,-0.222,-0.222,-0.222,0.0,0.0,-0.2016,-0.2016,-0.1882,-0.1814,-0.1946,-0.2415,-0.2551,-0.2589,-0.2519,-0.2307,-0.2432,-0.2884,-0.3409,-0.39,-0.4442,-0.4613,-0.4862,-0.5186,-0.5186,-0.5056,-0.4822,-0.4637,-0.4593,-0.4469,-0.4469,-0.4436,-0.4393,-0.4447,-0.436,-0.4219,-0.4278,0.0,0.0,0.0,0.0,0.0,0.0,0.0,-0.4579,-0.4742,-0.4481,-0.4526,-0.6593,-0.7426,-0.7629,-0.7687,-0.8247,-0.8628,-0.8615,-0.8615,-0.8615,-0.8712,-0.8823,-0.894,-0.894,-0.894,-0.896,-0.9028,-0.8981,-0.896,-0.9028,-0.8981,-0.894,-0.894,-0.894,-0.894,-0.894,-0.894,-0.894,-0.9161,-0.9161,-0.9265,-0.9375,-0.9375,-0.9706,-1.046,-1.046,-1.0891,-1.1873,-1.2191,-1.2673,-1.2998,-1.3005,-1.3,-1.3311,-1.5308,-1.6612,-1.7353,-1.8289,-1.8658,-1.8678,-1.9065,-1.9132,-1.9158,-1.9305,-1.9372,-1.9372,-1.9372,-1.9372,-1.9372,0.0,0.0,0.0,0.0,0.0,0.0,0.0,0.0,0.0,-0.2228,-0.2085,-0.2083,-0.2072,-0.2003,-0.1734,0.0,0.0,0.0,-0.0534,-0.0805,-0.1077,-0.1284,-0.1451,-0.1526,-0.1429,-0.1454,-0.166,-0.2164,-0.2085,-0.2554,-0.364,-0.4105,-0.465,-0.5186,-0.5143,-0.5007,-0.479,-0.4632,-0.449,-0.4314,-0.433,-0.4271,-0.4185,-0.4298,-0.4223,-0.4132,-0.4235,-0.4284,-0.43,-0.43,0.0,0.0,0.0,0.0,-0.3978,-0.4264,-0.3292,-0.2734,-0.5743,-0.6918,-0.7229,-0.7199,-0.7639,-0.7973,-0.7727,-0.7955,-0.8288,-0.8387,-0.8602,-0.883,-0.894,-0.896,-0.9008,-0.9103,-0.9035,-0.9008,-0.9103,-0.9015,-0.894,-0.894,-0.894,-0.894,-0.894,-0.894,-0.894,-0.894,-0.894,-0.894,-0.894,-0.894,-0.9051,-0.9272,-0.9272,-0.95,-0.9743,-1.061,-1.1253,-1.156,-1.1586,-1.1697,-1.1868,-1.4624,-1.5978,-1.6264,-1.7576,-1.8186,-1.8169,-1.8415,-1.8648,-1.8648,-1.8648,-1.8648,-1.8777,-1.8777,-1.8894,-1.9127,0.0,0.0,0.0,0.0,0.0,0.0,0.0,0.0,0.0,0.0,-0.1749,-0.1466,-0.1495,-0.1101,-0.0769,-0.0687,-0.0702,-0.0648,-0.0583,0.0,0.0,-0.007,-0.0489,-0.0777,-0.0793,-0.0354,-0.0349,-0.0835,-0.034,-0.0621,-0.1601,-0.3659,-0.4815,-0.5025,-0.5063,-0.4891,-0.4654,-0.4327,-0.3993,-0.3643,-0.3668,-0.3644,-0.3628,-0.3668,-0.388,-0.4121,-0.4137,-0.4208,-0.43,-0.43,-0.4306,0.0,0.0,0.0,-0.2626,-0.3915,-0.3235,-0.2368,-0.3726,-0.4097,-0.4212,-0.4176,-0.4247,-0.447,-0.492,-0.6609,-0.8091,-0.8084,-0.8282,-0.8602,-0.883,-0.9042,-0.9089,-0.8988,-0.9055,-0.9089,-0.8981,-0.8954,-0.894,-0.894,-0.894,-0.894,-0.894,-0.894,-0.894,-0.894,-0.894,-0.894,-0.894,-0.894,-0.894,-0.894,-0.894,-0.9217,-0.9567,-0.9567,-0.988,-1.0501,-1.0646,-1.0806,-1.0959,-1.2499,-1.3711,-1.4498,-1.4938,-1.5171,-1.5192,-1.5192,-1.544,-1.5677,-1.5677,-1.5806,-1.6161,-1.6161,-1.675,-1.7806,0.0,0.0,0.0,0.0,0.0,0.0,0.0,0.0,0.0,0.0,0.0,-0.087,-0.0925,-0.0715,-0.0448,-0.0189,-0.0126,-0.0,0.0252,0.0323,0.0463,0.067,0.0475,0.0344,0.0278,0.0543,0.054,0.0343,0.0591,0.0537,0.0146,-0.087,-0.2021,-0.3252,-0.3559,-0.3576,-0.3472,-0.3515,-0.3416,-0.3206,-0.3246,-0.3043,-0.2696,-0.2879,-0.2741,-0.2601,-0.3083,-0.3325,-0.3344,-0.3144,-0.3586,-0.4172,-0.3506,0.0,0.0,0.0,-0.146,-0.0983,-0.1428,-0.1587,-0.1539,-0.154,-0.1566,-0.1678,-0.19,-0.5154,-0.7539,-0.5824,-0.563,-0.6322,-0.8177,-0.8549,-0.8588,-0.8719,-0.8818,-0.8923,-0.9055,-0.8988,-0.894,-0.894,-0.894,-0.894,-0.894,-0.894,-0.894,-0.894,-0.894,-0.894,-0.894,-0.894,-0.894,-0.894,-0.9015,-0.9202,-0.9377,-0.9353,-0.947,-0.9863,-1.001,-1.0123,-1.0308,-1.0785,-1.1815,-1.3168,-1.4203,-1.448,-1.4361,-1.448,-1.4718,-1.4847,-1.4847,-1.4966,-1.5084,-1.5213,-1.5677,-1.6149,0.0,0.0,0.0,0.0,0.0,0.0,0.0,0.0,0.0,0.0,0.0,-0.0335,-0.0333,0.0,0.0,0.0,0.0371,0.0551,0.0988,0.101,0.1025,0.0969,0.1054,0.1065,0.1065,0.1044,0.1042,0.1057,0.1018,0.1052,0.1155,0.1211,0.0441,-0.1094,-0.1797,-0.2164,-0.2298,-0.2704,-0.2782,-0.2591,-0.2607,-0.2284,-0.1849,-0.1924,-0.1634,-0.1342,-0.2011,-0.2229,-0.2206,-0.1947,-0.2484,-0.3193,-0.3193,-0.1705,0.0,0.0,0.0,0.0,0.0,0.0,0.0,0.0,0.0,0.0,0.0,-0.3047,-0.5547,-0.3963,-0.3545,-0.4593,-0.7696,-0.8146,-0.8063,-0.8464,-0.862,-0.8805,-0.8864,-0.8785,-0.8719,-0.8719,-0.8712,-0.8823,-0.8823,-0.883,-0.894,-0.894,-0.894,-0.894,-0.894,-0.8974,-0.8994,-0.8994,-0.9137,-0.9232,-0.9266,-0.9415,-0.9551,-0.9666,-0.9768,-0.9822,-0.9822,-0.9822,-1.0422,-1.1631,-1.2817,-1.3287,-1.3048,-1.3287,-1.3407,-1.3526,-1.3526,-1.3526,-1.3655,-1.3894,-1.4252,-1.449,0.0,0.0,0.0,0.0,0.0,0.0,0.0,0.0,0.0,0.0,0.0,0.0266,0.0194,0.063,0.0918,0.0891,0.0887,0.0897,0.0987,0.099,0.1003,0.1032,0.1035,0.0,0.1036,0.097,0.102,0.0994,0.1018,0.1063,0.1123,0.1152,0.1197,0.1099,-0.0153,-0.1026,-0.1672,-0.1975,-0.1959,-0.1555,-0.1524,-0.1476,-0.1377,-0.0809,-0.0845,-0.1151,-0.1272,-0.132,-0.1182,-0.1136,-0.071,-0.0194,-0.0194,-0.0129,0.0,0.0,0.0,0.0,0.0,0.0,0.0,0.0,0.0,0.0,0.0,-0.023,-0.1038,-0.3167,-0.3646,-0.4451,-0.7519,-0.8043,-0.7951,-0.7823,-0.8736,-0.9037,-0.819,-0.8171,-0.8282,-0.8048,-0.8374,-0.8484,-0.8484,-0.8712,-0.894,-0.894,-0.894,-0.894,-0.894,-0.9069,-0.9144,-0.9144,-0.9293,-0.9442,-0.9585,-0.9727,-0.9802,-0.9808,-0.9815,-0.9822,-0.9822,-0.9822,-0.9822,-0.9943,-1.0065,-1.0058,-1.0058,-1.0058,-1.0179,-1.0543,-1.0543,-1.0664,-1.1027,-1.1027,-1.1744,-1.2817,0.0,0.0,0.0,0.0,0.0,0.0,0.0,0.0,0.0,0.0,0.0,0.0,0.0,0.088,0.0976,0.0887,0.0926,0.0919,0.093,0.0947,0.0972,0.1003,0.1024,0.1042,0.1061,0.1024,0.1009,0.1017,0.0969,0.0997,0.1092,0.1103,0.1141,0.1197,0.0364,-0.0142,-0.0348,-0.0888,-0.0967,-0.0786,-0.068,-0.0369,-0.0,0.0166,0.0442,0.0643,0.0499,0.0391,0.0226,0.0218,0.0411,0.0579,0.0316,0.0251,0.0252,0.0063,0.0,0.0,0.0,0.0,0.0,0.0,0.0,0.0,0.0,0.0,-0.0233,-0.1161,-0.1286,-0.164,-0.2653,-0.4156,-0.518,-0.5088,-0.6781,-0.7455,-0.5931,-0.7054,-0.8078,-0.7943,-0.7937,-0.8048,-0.8152,-0.8269,-0.838,-0.8602,-0.8602,-0.8752,-0.9069,-0.9123,-0.9198,-0.93,-0.9449,-0.9598,-0.9741,-0.9795,-0.9822,-0.9822,-0.9822,-0.9822,-0.9822,-0.9822,-0.9822,-0.9822,-0.9822,-0.9822,-0.9822,-0.9822,-0.9822,-0.9943,-0.9943,-1.0065,-1.0186,-1.0429,-1.0785,-1.114,0.0,0.0,0.0,0.0,0.0,0.0,0.0,0.0,0.0941,0.0605,0.0,0.0,0.0,0.0,0.0987,0.0887,0.0915,0.0897,0.0897,0.0916,0.0946,0.0987,0.1007,0.1032,0.1061,0.1024,0.1003,0.0941,0.0953,0.0969,0.1047,0.1066,0.1103,0.1149,0.0694,0.0554,0.0636,0.0066,-0.0126,-0.0125,0.0073,0.0314,0.0655,0.0971,0.1303,0.1527,0.1505,0.1339,0.1125,0.1115,0.1447,0.1711,0.087,0.0566,0.0482,0.0249,0.0063,0.0,0.0,0.0,0.0,0.0,0.0,0.0,0.0,0.0,0.0,0.0,0.0,0.0,0.0,-0.1264,-0.2401,-0.237,-0.3706,-0.4592,-0.425,-0.4812,-0.5601,-0.6265,-0.7054,-0.7616,-0.7721,-0.7826,-0.8048,-0.8269,-0.8263,-0.8549,-0.903,-0.9091,-0.9205,-0.9523,-0.9625,-0.9727,-0.9822,-0.9822,-0.9822,-0.9822,-0.9822,-0.9822,-0.9822,-0.9822,-0.9822,-0.9822,-0.9822,-0.9822,-0.9822,-0.9822,-0.9822,-0.9822,-0.9822,-0.9822,-0.9822,-1.0065,-1.0186,-1.0186,0.0,0.0,0.0,0.0,0.0,0.0,0.1076,0.0,0.1076,0.1076,0.0,0.0,0.0,0.0,0.0,0.0891,0.0917,0.09,0.0898,0.0898,0.0924,0.0984,0.0988,0.1002,0.0969,0.0968,0.0941,0.0886,0.0972,0.0986,0.0988,0.1046,0.1089,0.1117,0.1059,0.1082,0.1161,0.0724,0.0493,0.0411,0.0666,0.0672,0.0625,0.1354,0.159,0.1486,0.1456,0.1444,0.1436,0.1495,0.2435,0.3228,0.151,0.0975,0.0847,0.0525,0.0241,0.0062,0.0,0.0,0.0,0.0,0.0,0.0,0.0,0.0,0.0,0.0,0.0,0.0,0.0,0.0,0.0,0.0,0.0,-0.0784,-0.3134,-0.1454,-0.0895,-0.3245,-0.5601,-0.707,-0.707,-0.7393,-0.7721,-0.7727,-0.7943,-0.8221,-0.8704,-0.8852,-0.917,-0.9808,-0.9822,-0.9822,-0.9822,-0.9822,-0.9822,-0.9822,-0.9822,-0.9822,-0.9822,-0.9822,-0.9822,-0.9822,-0.9822,-0.9822,-0.9822,-0.9822,-0.9822,-0.9822,-0.9822,-0.9822,-0.9822,-0.9822,-0.9822,-0.9822,0.0,0.0,0.0,0.0,0.0,0.1076,0.1076,0.1076,0.1076,0.0,0.0,0.0,0.105,0.1039,0.0962,0.0947,0.098,0.0954,0.0931,0.0909,0.0915,0.0954,0.0976,0.1002,0.0969,0.1012,0.0992,0.0976,0.0941,0.0934,0.0956,0.0995,0.1029,0.1058,0.1062,0.1066,0.1066,0.0874,0.0822,0.095,0.1046,0.1132,0.1218,0.1466,0.1662,0.1707,0.1699,0.1946,0.2247,0.2719,0.269,0.2366,0.1363,0.0927,0.0874,0.0764,0.1445,0.2246,0.2229,0.0,0.0,0.0,0.0,0.0,0.0,0.0,0.0,0.0,0.0,0.0,0.0,0.0,0.0,0.0,0.0,-0.0224,-0.0896,-0.0448,-0.0224,-0.0895,-0.1566,-0.2684,-0.4477,-0.47,-0.551,-0.7403,-0.7528,-0.7841,-0.8642,-0.8916,-0.9271,-0.9457,-0.9714,-0.9836,-0.9822,-0.9822,-0.9822,-0.9822,-0.9822,-0.9822,-0.9822,-0.9822,-0.9822,-0.9822,-0.9822,-0.9822,-0.9822,-0.9822,-0.9822,-0.9822,-0.9822,-0.9822,-0.9822,-0.9822,-0.9822,-0.9822,0.0,0.0,0.108,0.1092,0.1095,0.1099,0.1111,0.1103,0.1099,0.0,0.0,0.0,0.1091,0.1077,0.1065,0.1052,0.1024,0.0988,0.0887,0.0926,0.0924,0.0883,0.0972,0.1002,0.0969,0.1028,0.1013,0.0988,0.0953,0.0931,0.0924,0.0956,0.0979,0.0934,0.1013,0.1018,0.101,0.0931,0.096,0.1072,0.1542,0.1746,0.1746,0.2255,0.2377,0.2426,0.2478,0.2502,0.258,0.3632,0.3512,0.2819,0.2855,0.2192,0.146,0.1364,0.202,0.2898,0.3396,0.3761,0.3682,0.2545,0.0,0.0,0.0,0.0,0.0,0.0,0.0,0.0,0.0,0.0,0.0,0.0,0.0,0.0,0.0,0.0,0.0,0.0,0.0,-0.056,-0.2015,-0.2125,-0.3605,-0.7241,-0.7475,-0.78,-0.8402,-0.8921,-0.8616,-0.7495,-0.8995,-0.9741,-0.9592,-0.9592,-0.9464,-0.9457,-0.9457,-0.9457,-0.9579,-0.9579,-0.97,-0.9822,-0.9822,-0.9822,-0.9822,-0.9822,-0.9822,-0.9822,-0.9822,-0.9822,-0.9822,-0.9822,-0.9822,-0.9822,0.0,0.1076,0.1085,0.1115,0.1121,0.1132,0.1161,0.1144,0.1136,0.0,0.1142,0.1138,0.1172,0.1149,0.1119,0.1088,0.1059,0.0952,0.0892,0.0886,0.0883,0.0879,0.0971,0.0999,0.096,0.1055,0.1042,0.0983,0.0983,0.0954,0.0898,0.0926,0.0879,0.0879,0.0879,0.0953,0.0975,0.0931,0.0965,0.1205,0.201,0.2272,0.2277,0.3139,0.3425,0.3326,0.3597,0.3243,0.3052,0.4643,0.4649,0.4218,0.5078,0.4095,0.2566,0.2262,0.2423,0.2927,0.4001,0.5023,0.5754,0.5494,0.3212,0.0,0.0453,0.0364,0.0276,0.0108,0.011,0.0109,0.011,0.0111,0.0111,0.0111,0.0,0.0,0.0,0.0,0.0,0.0,0.0,0.0,0.0,0.0,-0.1922,-0.647,-0.7295,-0.7857,-0.8205,-0.8812,-0.776,-0.4916,-0.7398,-0.8769,-0.8744,-0.9001,-0.9117,-0.8861,-0.8861,-0.8983,-0.922,-0.922,-0.9335,-0.9579,-0.97,-0.9579,-0.9572,-0.97,-0.97,-0.9822,-0.9822,-0.9822,-0.9822,-0.9822,-0.9822,-0.9822,0.1076,0.1076,0.1085,0.1115,0.1121,0.1132,0.1161,0.1161,0.116,0.1166,0.1161,0.1179,0.1311,0.1212,0.1182,0.1152,0.1122,0.1069,0.0984,0.0957,0.0874,0.0907,0.0958,0.098,0.0901,0.1014,0.1013,0.0892,0.0892,0.0932,0.0897,0.0904,0.0907,0.0907,0.0907,0.0909,0.0919,0.0982,0.1324,0.1934,0.2108,0.2244,0.2421,0.3169,0.3448,0.3597,0.4395,0.4818,0.531,0.6445,0.6958,0.6955,0.5572,0.4976,0.4639,0.3573,0.4017,0.4822,0.477,0.5293,0.5745,0.5696,0.5141,0.0,0.2911,0.2382,0.1832,0.0687,0.0437,0.0537,0.0583,0.0607,0.0619,0.0619,0.0214,0.0,0.0,0.0,0.0,0.0,0.0,0.0,0.0,0.0,-0.0461,-0.1403,-0.5399,-0.7823,-0.7994,-0.8033,-0.6917,-0.4177,-0.2704,-0.3198,-0.5655,-0.7894,-0.8897,-0.8891,-0.8891,-0.8891,-0.9014,-0.9123,-0.8622,-0.776,-0.8732,-0.8604,-0.7983,-0.8726,-0.9335,-0.9822,-0.9822,-0.9822,-0.9822,-0.9822,-0.9822,-0.9822,0.1143,0.1076,0.1089,0.1136,0.1144,0.1159,0.1205,0.1198,0.12,0.123,0.1235,0.1246,0.1276,0.1239,0.12,0.117,0.1138,0.1089,0.1016,0.0983,0.0952,0.0922,0.0949,0.0965,0.0965,0.0995,0.0997,0.0965,0.0891,0.0927,0.0897,0.0897,0.1346,0.2071,0.1278,0.136,0.2116,0.1311,0.1179,0.1659,0.2391,0.2931,0.3451,0.4583,0.5106,0.5262,0.6144,0.6959,0.7744,0.7849,0.7909,0.7841,0.6999,0.6386,0.5758,0.4955,0.5436,0.6152,0.5563,0.5643,0.58,0.5734,0.5396,0.0,0.0,0.3852,0.3301,0.3363,0.1993,0.0876,0.0953,0.1064,0.1075,0.1106,0.0938,0.0642,0.0432,0.011,0.0,0.0,0.0,0.0,0.0,0.0,0.0,0.0,-0.2431,-0.506,-0.7798,-0.7932,-0.606,-0.2093,-0.0739,-0.0739,-0.246,-0.3817,-0.5176,-0.6407,-0.6407,-0.6407,-0.6403,-0.6521,-0.7143,-0.8022,-0.7633,-0.7633,-0.8133,-0.8751,-0.8989,-0.922,-0.9457,-0.9579,-0.9579,-0.97,-0.9822,-0.9822,0.1346,0.1277,0.123,0.1291,0.1236,0.1185,0.1241,0.1232,0.1238,0.1287,0.1303,0.1311,0.1311,0.1522,0.1719,0.1677,0.1874,0.1874,0.1473,0.1436,0.1327,0.0971,0.0897,0.0968,0.1005,0.0994,0.0986,0.098,0.0954,0.0985,0.1065,0.1065,0.1866,0.3171,0.2026,0.2151,0.3104,0.1884,0.154,0.1872,0.3057,0.3782,0.4237,0.5864,0.6582,0.6707,0.7913,0.8943,0.98,0.9205,0.87,0.8283,0.8423,0.7731,0.6898,0.6159,0.664,0.7126,0.6304,0.6003,0.5908,0.582,0.5306,0.4956,0.0,0.0,0.0,0.5676,0.3703,0.1757,0.1771,0.1662,0.157,0.1747,0.1599,0.1219,0.0809,0.0422,0.0219,0.0,0.0,0.0,0.0,0.0,0.0,0.0,0.0,-0.1833,-0.6188,-0.6438,-0.445,-0.0123,0.0,0.0,0.0,0.0,-0.1109,-0.32,-0.32,-0.3198,-0.3196,-0.3196,-0.4674,-0.7158,-0.6035,-0.628,-0.7403,-0.7777,-0.7771,-0.775,-0.8726,-0.9214,-0.9214,-0.9579,-0.97,-0.97,0.2164,0.1817,0.1562,0.1611,0.1365,0.1178,0.1212,0.1236,0.1254,0.1261,0.1309,0.1259,0.1259,0.2541,0.34,0.3423,0.4612,0.4681,0.3213,0.3102,0.2503,0.1131,0.1012,0.1009,0.1065,0.1014,0.0975,0.0888,0.0886,0.1159,0.1679,0.1679,0.2123,0.2951,0.3549,0.3218,0.2297,0.2914,0.3614,0.4197,0.4361,0.3857,0.3138,0.4992,0.5911,0.6584,0.8659,1.0129,1.0882,1.0365,1.0134,0.9888,0.8637,0.866,0.881,0.7022,0.7275,0.793,0.6579,0.6315,0.6302,0.5901,0.5815,0.5742,0.5473,0.0,0.5268,0.4787,0.0,0.4091,0.3588,0.0,0.0,0.2487,0.1896,0.1305,0.0915,0.1042,0.0892,0.0104,0.0,0.0,0.0,0.0,0.0,0.0,0.0,-0.0236,-0.0863,-0.0864,-0.0617,-0.0,0.0,0.0,0.0,0.0,-0.0123,-0.0494,-0.0494,-0.0494,-0.0494,-0.0493,-0.0616,-0.1111,-0.32,-0.3321,-0.2092,-0.3815,-0.4429,-0.4674,-0.7505,-0.8732,-0.8976,-0.8976,-0.9098,-0.9335,0.2363,0.2041,0.1796,0.1399,0.1234,0.1197,0.1209,0.1268,0.131,0.131,0.1346,0.138,0.1397,0.1925,0.2642,0.3664,0.4186,0.421,0.3478,0.3492,0.2756,0.1175,0.1062,0.1246,0.1678,0.1589,0.1715,0.2116,0.198,0.2098,0.2348,0.2348,0.3075,0.4444,0.4298,0.4494,0.5047,0.4408,0.4428,0.4737,0.4841,0.4723,0.4713,0.7053,0.8406,0.9283,1.0183,1.0878,1.1354,1.1126,1.0566,0.9998,1.0096,0.9466,0.8635,0.8019,0.7938,0.7856,0.661,0.6732,0.6986,0.6029,0.6193,0.6345,0.5569,0.5481,0.5567,0.5375,0.0,0.0,0.0,0.0,0.0,0.0,0.1889,0.1314,0.1232,0.0,0.105,0.05,0.0,0.0,0.0,0.0,0.0,0.0,0.0,0.0,0.0,0.0,0.0,0.0,0.0,0.0,0.0,0.0,0.0,0.0,0.0,0.0,0.0,0.0,0.0,-0.0,-0.111,-0.1232,-0.0617,-0.296,-0.3948,-0.4192,-0.704,-0.8273,-0.8378,-0.8757,-0.8873,-0.8854,0.3201,0.2854,0.2522,0.2047,0.1909,0.1899,0.1925,0.2027,0.2018,0.1768,0.1809,0.1679,0.1444,0.2155,0.308,0.4309,0.5055,0.5294,0.4846,0.4592,0.3859,0.254,0.1991,0.2072,0.2792,0.2491,0.2554,0.3051,0.2863,0.2845,0.3042,0.2983,0.3808,0.5364,0.5068,0.5604,0.6731,0.5907,0.5684,0.6016,0.5985,0.6569,0.7496,0.9012,1.0257,1.1232,1.1281,1.1386,1.1476,1.133,1.0672,1.0046,1.0761,0.9981,0.8794,0.8821,0.8698,0.8282,0.7054,0.7253,0.7502,0.6146,0.6256,0.6402,0.5583,0.5508,0.5705,0.5922,0.55,0.0,0.0,0.0,0.3557,0.2995,0.0,0.123,0.0,0.1282,0.0,0.0,0.0,0.0,0.0,0.0,0.0,0.0,0.0,0.0,0.0,0.0,0.0,0.0,0.0,0.0,0.0,0.0,0.0,0.0,0.0,0.0,0.0,0.0,0.0,0.0,0.0,0.0,-0.0123,-0.21,-0.2841,-0.2962,-0.4947,-0.6179,-0.6912,-0.7403,-0.7393,-0.7378,0.5184,0.4483,0.3946,0.4113,0.3852,0.3675,0.3854,0.4047,0.3775,0.2854,0.279,0.2528,0.1569,0.4132,0.599,0.6103,0.879,0.9784,0.8216,0.747,0.6734,0.5919,0.4316,0.3847,0.4481,0.3745,0.327,0.3206,0.3019,0.3273,0.3981,0.368,0.4059,0.4986,0.6198,0.6353,0.581,0.7141,0.8153,0.8721,0.8682,0.9727,1.1181,0.9946,1.0171,1.1248,1.1427,1.1492,1.1419,1.0891,1.0688,1.0542,0.9892,0.9876,1.0038,0.9422,0.9666,0.9704,0.8232,0.8007,0.7779,0.6359,0.603,0.5922,0.5467,0.5589,0.58,0.5806,0.6044,0.6254,0.6268,0.4924,0.3801,0.3642,0.2274,0.0,0.0,0.0,0.0,0.0,0.0,0.0,0.0,0.0,0.0,0.0,0.0,0.0,0.0,0.0,0.0,0.0,0.0,0.0,0.0,0.0,0.0,0.0,0.0,0.0,0.0,0.0,0.0,0.0,0.0,0.0,-0.0,-0.0123,-0.0123,-0.0123,-0.0247,-0.1852,-0.408,-0.4066,-0.4057,-0.4423,0.6067,0.5784,0.519,0.4175,0.393,0.3918,0.4125,0.4139,0.4239,0.4271,0.4393,0.4454,0.4555,0.5491,0.6469,0.7517,0.8595,0.8913,0.8295,0.7936,0.7248,0.6072,0.4994,0.4823,0.5598,0.4842,0.4518,0.4879,0.4508,0.451,0.4734,0.4454,0.4696,0.5379,0.6338,0.7118,0.7588,0.8333,0.9046,0.9723,0.9784,1.0264,1.0972,1.0795,1.1157,1.1598,1.1663,1.1687,1.1654,1.1476,1.1086,1.0712,1.0826,1.0298,0.9697,0.9848,0.9745,0.9466,0.884,0.916,0.9283,0.7729,0.7355,0.7134,0.6115,0.5874,0.58,0.58,0.6118,0.6369,0.6281,0.5867,0.5041,0.386,0.3202,0.0,0.0,0.0,0.0,0.0,0.0,0.0,0.0,0.0,0.0,0.0,0.0,0.0,0.0,0.0,0.0,0.0,0.0,0.0,0.0,0.0,0.0,0.0,0.0,0.0,0.0,0.0,0.0,0.0,0.0,0.0,0.0,0.0,0.0,0.0,0.0,-0.0494,-0.1358,-0.1356,-0.1355,-0.1723,0.6929,0.6706,0.6157,0.5029,0.4872,0.5022,0.51,0.5308,0.5599,0.5655,0.581,0.6023,0.6215,0.6703,0.7458,0.8491,0.9113,0.9341,0.9129,0.8969,0.8505,0.7659,0.6827,0.6758,0.7507,0.6417,0.6071,0.6331,0.5805,0.5487,0.548,0.5171,0.5241,0.5642,0.6384,0.7365,0.8559,0.9036,0.9847,1.0745,1.0867,1.098,1.1118,1.1468,1.1516,1.1427,1.1687,1.1776,1.1776,1.1776,1.1468,1.1135,1.1484,1.0875,1.0119,1.0538,1.0281,0.9925,0.9501,0.9894,1.0047,0.8566,0.8337,0.8116,0.6954,0.659,0.65,0.6521,0.6585,0.6722,0.7176,0.6458,0.5556,0.4696,0.4059,0.0,0.0,0.1305,0.0,0.0,0.0,0.0,0.0,0.0,0.0,0.0,0.0,0.0,0.0,0.0,0.0,0.0,0.0,0.0,0.0,0.0,0.0,0.0,0.0,0.0,0.0,0.0,0.0,0.0,0.0,0.0,0.0,0.0,0.0,0.0,0.0,0.0,0.0,0.0,0.0,-0.0247,0.7648,0.7263,0.6869,0.661,0.6593,0.6702,0.6729,0.7492,0.7691,0.685,0.729,0.737,0.6685,0.7886,0.8838,0.9117,1.0425,1.1078,1.0745,1.0333,1.0309,1.0712,0.9618,0.9314,0.9863,0.8482,0.762,0.7529,0.6625,0.6218,0.6218,0.5879,0.5721,0.5743,0.6261,0.7257,0.8695,0.9308,1.0461,1.1776,1.1776,1.1752,1.1727,1.176,1.133,1.0785,1.1516,1.1776,1.1776,1.1776,1.1776,1.1776,1.1768,1.1516,1.1256,1.1435,1.124,1.0899,1.0349,1.0272,1.0093,0.9061,0.8962,0.8794,0.7819,0.7756,0.7937,0.7771,0.734,0.7366,0.8683,0.6873,0.5331,0.5946,0.0,0.0,0.0,0.0,0.0,0.0,0.0,0.0,0.0,0.0,0.0,0.0,0.0,0.0,0.0,0.0,0.0,0.0,0.0,0.0,0.0,0.0,0.0,0.0,0.0,0.0,0.0,0.0,0.0,0.0,0.0,0.0,0.0,0.0,0.0,0.0,0.0,0.0,0.0,0.0,0.0,0.0,0.7273,0.7386,0.7349,0.6987,0.6746,0.6764,0.7386,0.7788,0.8284,0.8733,0.928,0.9682,0.989,1.0303,1.0591,1.0685,1.0962,1.1183,1.1094,1.0923,1.0907,1.1078,1.0297,1.0024,1.0257,0.8847,0.8045,0.7873,0.6919,0.644,0.6306,0.5978,0.5896,0.6015,0.637,0.732,0.8769,0.9356,1.0461,1.1776,1.1776,1.1451,1.1029,1.1573,1.133,1.0785,1.1516,1.1776,1.1776,1.1776,1.1776,1.1752,1.1614,1.1411,1.1232,1.1281,1.1143,1.1005,1.1175,1.1141,1.106,1.057,1.0071,0.9571,0.9044,0.8706,0.8573,0.8528,0.8555,0.8482,0.8063,0.7288,0.6423,0.0,0.0,0.0,0.0,0.0,0.0,0.0,0.0,0.0,0.0,0.0,0.0,0.0,0.0,0.0,0.1478,0.0,0.0,0.0,0.0,0.0,0.0,0.0,0.0,0.0,0.0,0.0,0.0,0.0,0.0,0.0,0.0,0.0,0.0,0.0,0.0,0.0,0.0,0.0,0.0,0.0,0.0,0.0,0.7663,0.7851,0.791,0.7483,0.7881,0.8194,0.8048,0.8188,0.8615,0.9415,0.9973,1.0468,1.0964,1.12,1.1378,1.1459,1.1468,1.1395,1.1232,1.1281,1.1289,1.1224,1.0997,1.0915,1.1021,0.9911,0.9092,0.8687,0.7824,0.7134,0.6659,0.6394,0.6217,0.624,0.6594,0.7326,0.8504,0.9573,1.0558,1.133,1.1646,1.1533,0.0,1.1622,1.1524,1.1216,1.163,1.1776,1.1776,1.1776,1.1776,1.1744,1.1557,1.137,1.1208,1.1135,1.1045,1.1013,1.1216,1.1378,1.1451,1.1248,1.0916,1.061,1.0104,0.9808,0.9627,0.9627,0.9447,0.9307,0.9422,0.8355,0.7,0.0,0.0,0.0,0.0,0.0,0.0,0.0,0.0,0.0,0.0,0.0,0.0,0.0,0.0,0.0,0.0,0.0,0.0588,0.0,0.0617,0.0617,0.0,0.0,0.0247,0.0864,0.0247,0.0,0.0,0.0,0.0,0.0,0.0,0.0,0.0,0.0,0.0,0.0,0.0,0.0,0.0,0.0,0.0,0.0,0.8227,0.8408,0.8426,0.8032,0.9405,1.0175,0.9029,0.9052,0.9235,0.9627,1.0118,1.0631,1.0777,1.124,1.1606,1.176,1.1776,1.1638,1.1313,1.1598,1.163,1.1313,1.1606,1.1776,1.1776,1.1062,1.0331,0.9592,0.8714,0.7821,0.6982,0.6765,0.6595,0.6432,0.679,0.7575,0.8581,1.0092,1.0855,1.1106,1.1635,1.1776,1.1776,1.1776,1.1776,1.1776,1.1776,1.1776,1.1776,1.1776,1.1776,1.1744,1.1557,1.137,1.1191,1.1045,1.0988,1.098,1.1029,1.1265,1.1508,1.1533,1.1654,1.1614,1.098,1.0834,1.0834,1.0834,1.0233,1.0047,1.1419,0.9484,0.7368,0.6207,0.0,0.0,0.0,0.0,0.0,0.0,0.0,0.0,0.0,0.0,0.0,0.0,0.0,0.0,0.0,0.0,0.1402,0.0247,0.1235,0.1358,0.0247,0.0123,0.0741,0.1853,0.0741,0.0247,0.0123,0.0123,0.0123,0.0123,0.0,0.0,0.0,0.0,0.0,0.0,0.0,0.0,0.0,0.0,0.0,0.0,0.8089,0.8593,0.881,0.8336,0.9902,1.1375,1.1438,1.1429,1.1212,1.0517,1.0997,1.1321,1.1354,1.1581,1.1744,1.1776,1.1776,1.1752,1.1687,1.1744,1.1744,1.1687,1.1744,1.1776,1.1776,1.1062,1.0266,0.9405,0.8658,0.7756,0.6725,0.6692,0.6587,0.6432,0.679,0.8471,1.0915,1.0721,1.1707,1.3113,1.22,1.1776,1.1776,1.1776,1.1776,1.1776,1.1776,1.1776,1.1776,1.1776,1.1776,1.1744,1.1557,1.137,1.1216,1.1183,1.1078,1.1029,1.133,1.1451,1.1533,1.1687,1.1752,1.1744,1.1614,1.1589,1.1589,1.1589,1.1484,1.1181,1.0723,0.9556,0.8261,0.7319,0.0,0.0,0.0,0.0,0.0,0.0,0.0,0.0,0.0,0.0,0.0,0.0,0.0,0.0,0.0,0.0,0.1242,0.0,0.1111,0.1358,0.1606,0.1111,0.0988,0.1235,0.1482,0.1358,0.0864,0.0864,0.0864,0.0741,0.0247,0.0,0.0,0.0,0.0,0.0,0.0,0.0,0.0,0.0,0.0,0.0,1.0377,1.0433,1.0389,1.0093,1.1094,1.2444,1.3837,1.4429,1.404,1.2045,1.1507,1.1224,1.1224,1.1557,1.1776,1.1776,1.1776,1.1776,1.1776,1.1776,1.1776,1.1776,1.1776,1.1776,1.1776,1.1435,1.068,0.9494,0.8966,0.8065,0.6814,0.6627,0.6497,0.6448,0.7906,0.9393,1.1076,1.219,1.2875,1.306,1.2913,1.2371,1.1776,1.1776,1.1776,1.1776,1.1776,1.1776,1.176,1.1663,1.163,1.1598,1.1411,1.1297,1.1224,1.1224,1.1232,1.1281,1.1451,1.1573,1.1663,1.1752,1.1776,1.1776,1.1776,1.1776,1.1776,1.1776,1.1776,1.1557,1.0612,0.9658,0.8737,0.8238,0.0,0.0,0.0,0.0,0.0,0.0,0.0,0.0,0.0,0.0,0.0,0.0,0.0,0.0,0.0,0.0,0.1564,0.0,0.0,0.3209,0.4074,0.2344,0.1973,0.2837,0.2222,0.1853,0.1482,0.1482,0.1482,0.1482,0.1235,0.0864,0.0494,0.0123,0.0,0.0,0.0,0.0,0.0,0.0,0.0,0.0,1.2309,1.2045,1.1726,1.1577,1.2495,1.3827,1.5568,1.6678,1.6287,1.381,1.2533,1.175,1.1532,1.1963,1.213,1.1776,1.1776,1.1776,1.1776,1.1776,1.1776,1.1776,1.1776,1.1897,1.2251,1.2251,1.1688,1.0588,0.9931,0.8888,0.7543,0.6813,0.6705,0.7207,0.936,1.0877,1.1907,1.3485,1.3905,1.3374,1.3348,1.2785,1.1833,1.1874,1.1866,1.1833,1.1833,1.1809,1.1752,1.1565,1.1524,1.1533,1.1386,1.1313,1.1281,1.1281,1.1386,1.1508,1.1549,1.1663,1.1776,1.1776,1.1776,1.1776,1.1776,1.1776,1.1776,1.1776,1.1776,1.1557,1.0612,1.0039,0.9485,0.912,0.0,0.0,0.0,0.0,0.0,0.0,0.0,0.0,0.0,0.0,0.0,0.0,0.0,0.0,0.2425,0.0,0.0,0.0,0.4029,0.5126,0.5863,0.3804,0.3569,0.4807,0.3207,0.2346,0.2346,0.2099,0.1977,0.1977,0.1977,0.173,0.1111,0.0494,0.0247,0.0247,0.0247,0.0123,0.0,0.0,0.0,0.0,1.1405,1.1783,1.2029,1.1429,1.3625,1.5561,1.574,1.6774,1.6844,1.5286,1.5023,1.4456,1.3306,1.3405,1.3075,1.1897,1.1776,1.1776,1.1776,1.1776,1.1776,1.1776,1.1776,1.2371,1.3545,1.3545,1.3585,1.38,1.2011,1.0534,0.9436,0.7539,0.7735,0.9637,1.0993,1.3286,1.6053,1.4056,1.4167,1.5523,1.3066,1.2127,1.202,1.219,1.215,1.2004,1.2004,1.1906,1.1752,1.1565,1.1614,1.1744,1.1727,1.1606,1.1476,1.1476,1.1484,1.1533,1.1703,1.176,1.1776,1.1776,1.1776,1.1776,1.1776,1.1776,1.1776,1.1776,1.1776,1.1557,1.0826,1.1159,1.1175,1.0022,0.9967,0.0,0.0,0.0,0.908,0.0,0.0,0.0,0.0,0.0,0.0,0.0,0.3817,0.0,0.0,0.0,0.0,0.5182,0.5307,0.5424,0.5542,0.5577,0.5651,0.5774,0.4429,0.3692,0.3692,0.2467,0.1977,0.1977,0.1977,0.1977,0.1853,0.1235,0.0864,0.0864,0.0864,0.0494,0.0,0.0,0.0,0.0,1.4988,1.4631,1.4548,1.5047,1.6658,1.7908,1.7917,1.8301,1.848,1.7786,1.6483,1.5312,1.4724,1.4806,1.4619,1.4152,1.4033,1.4033,1.4033,1.4033,1.4033,1.4033,1.4033,1.4272,1.4857,1.4857,1.4708,1.4423,1.2811,1.161,1.0659,0.9746,1.0363,1.2202,1.4087,1.5762,1.7104,1.7304,1.7245,1.7,1.6024,1.4499,1.3081,1.3161,1.2664,1.1874,1.1874,1.1833,1.1784,1.1809,1.1727,1.1614,1.1614,1.1557,1.1524,1.163,1.1663,1.1687,1.176,1.1776,1.1776,1.1776,1.1776,1.1776,1.1776,1.1776,1.1776,1.1776,1.1776,1.1687,1.1395,1.1224,1.1102,1.1029,1.0723,1.0763,0.0,0.0,0.0,0.0,0.0,0.0,0.0,0.0,0.0,0.0,0.0,0.0,0.0,0.0,0.0,0.505,0.6237,0.6812,0.6686,0.6895,0.7123,0.7123,0.5774,0.5039,0.5039,0.3694,0.2714,0.1977,0.1977,0.1977,0.1977,0.173,0.1606,0.1606,0.1606,0.1482,0.1111,0.0741,0.0617,0.0494,1.7034,1.67,1.675,1.7881,1.8843,1.9403,1.9394,1.9372,1.9372,1.9372,1.7818,1.6514,1.6161,1.6161,1.6042,1.5569,1.5569,1.5569,1.5569,1.5569,1.5688,1.5688,1.5688,1.5924,1.6397,1.6397,1.6391,1.621,1.4558,1.346,1.2951,1.2439,1.3003,1.46,1.6537,1.7636,1.8109,1.914,1.8879,1.7841,1.7481,1.6046,1.436,1.4429,1.3574,1.2457,1.2457,1.218,1.1792,1.1914,1.1784,1.1589,1.1638,1.1622,1.1606,1.1736,1.1776,1.1776,1.1776,1.1776,1.1776,1.1776,1.1776,1.1776,1.1776,1.1776,1.1776,1.1776,1.1776,1.1776,1.1776,1.1354,1.1126,1.1484,1.124,1.1135,0.0,1.1533,0.0,0.0,1.0854,1.0475,1.0461,0.9218,0.0,0.0,0.0,0.0,0.0,0.0,0.0,0.0,0.0,0.8272,0.7974,0.8342,0.8471,0.8471,0.7123,0.6508,0.6385,0.5039,0.3817,0.259,0.259,0.2346,0.1977,0.1977,0.1977,0.1977,0.1977,0.1977,0.1977,0.1482,0.1235,0.1235,1.6085,1.6818,1.797,1.9176,1.9359,1.9359,1.9372,1.9372,1.9372,1.9372,1.9372,1.8881,1.7572,1.7455,1.6985,1.5688,1.5569,1.5569,1.5569,1.5569,1.5688,1.602,1.602,1.6738,1.8389,1.8389,1.8971,2.0256,1.7899,1.665,1.6472,1.5316,1.5419,1.6617,1.7882,1.8971,1.9668,1.8451,1.7973,1.7721,1.6386,1.5782,1.5803,1.6049,1.5135,1.3854,1.3854,1.3004,1.1776,1.1776,1.1776,1.1801,1.1971,1.1906,1.1776,1.1776,1.1776,1.1776,1.1776,1.1776,1.1776,1.1776,1.1776,1.1776,1.1776,1.1776,1.1776,1.1776,1.1776,1.1776,1.1776,1.1768,1.1589,1.1062,1.1419,1.1581,1.1053,1.0747,0.0,1.098,0.947,0.9015,1.0397,0.9069,0.0,0.0,0.0,0.0,0.0,0.0,0.0,0.9238,0.9381,0.9381,0.9381,0.9673,0.9822,0.9822,0.8471,0.7856,0.7856,0.6508,0.5161,0.3937,0.3937,0.3204,0.1977,0.1977,0.1977,0.1977,0.1977,0.1977,0.1977,0.1977,0.1977,0.1977,1.8363,1.8594,1.8955,1.9345,1.9372,1.9372,1.9372,1.9372,1.9439,1.9639,1.9666,1.9535,1.9063,1.8881,1.8648,1.8181,1.8181,1.8181,1.8181,1.8402,1.8519,1.8622,1.8855,1.9203,1.9679,1.9679,1.9924,2.027,1.8906,1.8372,1.8589,1.7982,1.825,1.9386,1.9586,1.984,2.0094,1.9598,1.9361,1.9192,1.8703,1.7863,1.6984,1.7078,1.622,1.509,1.509,1.4799,1.4272,1.3435,1.3075,1.2964,1.2076,1.1817,1.1776,1.1776,1.1776,1.1776,1.1776,1.1776,1.1776,1.1776,1.1776,1.1776,1.1776,1.1776,1.1776,1.1776,1.1776,1.1776,1.1776,1.1776,1.1719,1.1549,1.1663,1.1719,1.1541,1.1516,1.1398,1.1516,1.1052,1.085,1.1366,1.0327,0.0,0.0,0.0,0.0,0.0,0.0,0.0,0.0,0.9415,0.9585,0.9381,0.9673,0.9822,0.9822,0.9329,0.8714,0.7856,0.749,0.6508,0.5284,0.5284,0.4551,0.3325,0.3325,0.2837,0.1977,0.1977,0.1977,0.1977,0.1977,0.1977,0.1977,2.0765,2.0399,2.0137,2.0309,2.0192,2.006,1.9929,1.9811,1.976,1.9933,1.996,1.996,1.996,1.9918,1.9717,1.9386,1.9372,1.9372,1.9372,1.9707,1.9809,1.9924,2.027,2.0557,2.08,2.08,2.0857,2.0985,2.0388,2.009,2.016,1.9932,2.0164,2.0653,2.0427,2.0133,2.0026,1.9907,1.98,1.9639,1.9639,1.905,1.8169,1.8169,1.7455,1.6279,1.6279,1.6042,1.5451,1.4738,1.45,1.4371,1.3665,1.3435,1.3195,1.213,1.213,1.2371,1.1897,1.213,1.2371,1.1897,1.1776,1.1776,1.1776,1.1776,1.1776,1.1776,1.1776,1.1776,1.1776,1.1776,1.1776,1.1776,1.1776,1.1776,1.1776,1.1776,1.1703,1.15,1.1476,1.1476,0.0,1.0956,1.0572,0.0,0.0,0.0,0.0,0.0,0.9028,0.9123,0.9578,0.9734,0.9551,0.9727,0.9822,0.9822,0.9822,0.9329,0.8593,0.8593,0.7856,0.663,0.663,0.5896,0.4671,0.4671,0.3937,0.2714,0.2714,0.2467,0.1977,0.1977,0.1977,0.1977,2.2932,2.2151,2.1329,2.1747,2.1506,2.1115,2.0832,2.047,2.0241,2.0254,2.0267,2.0267,2.0267,2.0618,2.0387,1.9596,1.9542,1.9542,1.9542,1.9761,2.0109,2.034,2.0672,2.1046,2.173,2.173,2.1891,2.2213,2.1958,2.1583,2.1343,2.1194,2.1026,2.0718,2.0364,2.0082,1.9822,1.9475,1.9372,1.9372,1.9372,1.9372,1.9372,1.9372,1.8648,1.7689,1.7689,1.6868,1.5924,1.5806,1.5913,1.6138,1.602,1.5902,1.5429,1.2724,1.2844,1.3435,1.213,1.2724,1.3315,1.213,1.1776,1.1776,1.1776,1.1776,1.1776,1.1776,1.1776,1.1776,1.1776,1.1776,1.1776,1.1776,1.1776,1.1776,1.1776,1.1776,1.1589,1.1086,1.1021,1.1021,1.1021,1.1021,1.1216,0.0,0.0,0.0,0.0,0.9687,0.9083,0.9802,0.9822,0.9822,0.9822,0.9822,0.9822,0.9822,0.9822,0.9822,0.9822,0.9822,0.9207,0.7978,0.7978,0.7245,0.6018,0.6018,0.5284,0.406,0.406,0.3325,0.2222,0.2222,0.2222,0.2099,2.3067,2.2377,2.1689,2.1449,2.1329,2.1208,2.1074,2.1074,2.1036,2.1271,2.1299,2.1299,2.1299,2.1422,2.1268,2.0773,2.0745,2.0745,2.0745,2.1089,2.1327,2.1327,2.1698,2.186,2.2067,2.2067,2.2213,2.252,2.2399,2.2384,2.2262,2.1775,2.1265,2.0718,2.0144,1.9775,1.9475,1.9488,1.9372,1.9372,1.9372,1.9372,1.9372,1.9372,1.9243,1.8997,1.9229,1.91,1.8752,1.804,1.7793,1.756,1.5795,1.5322,1.5084,1.3894,1.3655,1.3435,1.213,1.201,1.213,1.1897,1.1776,1.1776,1.1776,1.1776,1.1776,1.1776,1.1776,1.1776,1.1776,1.1776,1.1776,1.1776,1.1776,1.1776,1.1776,1.1776,1.1727,1.1598,1.1589,1.1589,1.1589,1.1589,1.1468,1.1183,1.1049,1.0825,1.07,1.0167,0.9982,1.0172,1.0186,1.0065,0.9822,0.9822,0.9822,0.9822,0.9822,0.9822,0.9822,0.9822,0.9579,0.9329,0.9329,0.8593,0.7368,0.7368,0.663,0.5406,0.5406,0.5284,0.492,0.492,0.4306,0.3448,2.4859,2.3551,2.2349,2.2105,2.1982,2.1859,2.1859,2.1737,2.167,2.1838,2.1866,2.1866,2.1866,2.199,2.2044,2.1874,2.1469,2.1194,2.1194,2.1555,2.1675,2.1675,2.2049,2.2242,2.2389,2.2389,2.2535,2.2842,2.2696,2.255,2.2418,2.1977,2.1421,2.0988,2.0456,2.004,1.9822,1.9707,1.9475,1.9372,1.9372,1.9475,1.9591,1.9591,1.9707,1.9822,1.9924,2.004,1.9924,1.9448,1.9332,1.9203,1.8015,1.7664,1.743,1.648,1.5192,1.3794,1.2251,1.2251,1.2483,1.1897,1.1776,1.1776,1.1776,1.1776,1.1776,1.1776,1.1776,1.1776,1.1776,1.1776,1.1776,1.1776,1.1776,1.1776,1.1776,1.1776,1.1776,1.1776,1.1776,1.1776,1.1776,1.1776,1.1654,1.1362,1.131,1.12,1.1113,1.1075,1.0852,1.0543,1.0543,1.0429,1.0065,0.9822,0.9822,0.9822,0.9822,0.9822,0.9822,0.9822,0.9822,0.9822,0.9822,0.9451,0.8714,0.8714,0.7978,0.6752,0.6752,0.6385,0.5896,0.5896,0.5406,0.4794,2.6527,2.458,2.3106,2.3106,2.2856,2.2731,2.2731,2.248,2.223,2.223,2.223,2.223,2.223,2.248,2.2731,2.2731,2.1996,2.1455,2.1455,2.1697,2.1925,2.1925,2.2195,2.2432,2.2696,2.2696,2.2813,2.3032,2.2754,2.2447,2.2096,2.1832,2.1525,2.1089,2.0845,2.0601,2.027,2.004,1.9707,1.9591,1.9591,1.9707,1.9924,1.9924,2.004,2.027,2.0385,2.0385,2.0385,2.0385,2.0615,2.0716,2.0601,2.0601,2.0256,1.8958,1.6856,1.4619,1.2964,1.3075,1.3435,1.2251,1.1897,1.1776,1.1897,1.1897,1.1776,1.1776,1.1776,1.1776,1.1776,1.1776,1.176,1.1703,1.1744,1.176,1.1703,1.1744,1.1897,1.201,1.213,1.213,1.2371,1.2371,1.2371,1.2371,1.2371,1.2371,1.2371,1.213,1.1889,1.1269,1.1027,1.0671,1.0422,1.0065,0.9822,0.9822,0.9822,0.9822,0.9822,0.9822,0.9822,0.9822,0.9822,0.9822,0.9822,0.9822,0.9207,0.8227,0.8227,0.749,0.6508,0.6508,0.6385,0.6141,2.4161,2.337,2.3106,2.3106,2.3106,2.2981,2.2981,2.2981,2.2981,2.2981,2.2981,2.2981,2.2981,2.2981,2.2981,2.2981,2.2893,2.2835,2.2835,2.2835,2.2835,2.2835,2.2959,2.2988,2.3032,2.3032,2.2915,2.2696,2.2652,2.233,2.1774,2.1715,2.1394,2.0831,2.0716,2.0601,2.027,2.027,2.0155,2.0155,2.0155,2.0155,2.027,2.027,2.027,2.027,2.0601,2.0601,2.0716,2.0974,2.1089,2.0974,2.0155,1.9924,1.9693,1.8027,1.7325,1.6738,1.5677,1.449,1.3545,1.2724,1.213,1.1897,1.2483,1.213,1.1776,1.1776,1.1776,1.1776,1.1776,1.1776,1.1671,1.1362,1.1573,1.1671,1.1354,1.1581,1.2251,1.3315,1.3435,1.3784,1.4857,1.4976,1.4976,1.4976,1.4976,1.4976,1.4976,1.4023,1.3306,1.3306,1.1872,1.1027,1.0785,1.0422,1.0186,1.0186,0.9943,0.9822,0.9822,0.9822,0.9822,0.9822,0.9822,0.9822,0.9822,0.9822,0.97,0.9451,0.9451,0.9329,0.9207,0.9207,0.8471,0.7612,2.5562,2.4857,2.4255,2.323,2.3106,2.3106,2.3106,2.3106,2.3106,2.3106,2.3106,2.3106,2.3106,2.3106,2.3106,2.3106,2.3106,2.3106,2.3106,2.3106,2.3106,2.3106,2.3106,2.3106,2.3106,2.3106,2.2945,2.2623,2.2462,2.2154,2.1686,2.1525,2.1234,2.096,2.096,2.0845,2.05,2.05,2.0385,2.027,2.027,2.0385,2.05,2.05,2.0615,2.0859,2.096,2.096,2.096,2.1203,2.1203,2.1089,2.0744,2.0515,2.0385,1.9679,1.826,1.6844,1.6374,1.5784,1.4955,1.4252,1.3784,1.3555,1.3324,1.2964,1.2853,1.2853,1.2492,1.2251,1.2251,1.201,1.1719,1.1549,1.1663,1.1952,1.2469,1.272,1.3315,1.4619,1.4738,1.4976,1.5569,1.5569,1.5569,1.5569,1.5569,1.5569,1.5569,1.5095,1.4381,1.3665,1.2113,1.1269,1.1035,1.0785,1.055,1.055,1.0186,1.0065,1.0065,0.9943,0.9822,0.9822,0.9822,0.9822,0.9822,0.9822,0.9822,0.9822,0.9822,0.9822,0.9822,0.9822,0.9451,0.8958,2.7539,2.676,2.5921,2.4518,2.3867,2.3604,2.3604,2.3355,2.3106,2.3106,2.3106,2.3106,2.3106,2.3106,2.3106,2.3106,2.3106,2.3106,2.3106,2.3106,2.3106,2.3106,2.3106,2.3106,2.3106,2.3032,2.2842,2.252,2.2213,2.1906,2.1584,2.132,2.1203,2.1203,2.1203,2.1089,2.0845,2.0845,2.073,2.05,2.05,2.0615,2.0845,2.0845,2.096,2.1203,2.1203,2.1203,2.1203,2.1203,2.1203,2.1203,2.1203,2.1203,2.1203,2.1203,1.9435,1.7547,1.7184,1.695,1.6727,1.5795,1.5558,1.5322,1.4748,1.4272,1.4043,1.4043,1.3444,1.2964,1.2964,1.2724,1.2577,1.249,1.2662,1.3048,1.4006,1.4074,1.4619,1.5924,1.6042,1.6161,1.6397,1.6514,1.6514,1.6514,1.6514,1.6514,1.6514,1.5924,1.4857,1.3315,1.2113,1.1398,1.1398,1.1035,1.0914,1.0906,1.055,1.0308,1.0308,0.9943,0.9822,0.9822,0.9822,0.9822,0.9822,0.9822,0.9822,0.9822,0.9863,0.9876,0.9876,0.9876,0.9876,0.9869,2.8474,2.8112,2.8112,2.7973,2.6255,2.4949,2.4949,2.3852,2.3106,2.3106,2.3106,2.3106,2.3106,2.3106,2.3106,2.3106,2.3106,2.3106,2.3106,2.3106,2.3106,2.3106,2.3106,2.3106,2.3106,2.2813,2.2506,2.2213,2.1891,2.1569,2.1247,2.1218,2.1203,2.1203,2.1203,2.1203,2.1203,2.1203,2.1203,2.1089,2.1089,2.1089,2.1203,2.1203,2.1203,2.1203,2.1203,2.1203,2.1203,2.1203,2.1203,2.1203,2.1203,2.1203,2.1203,2.1203,2.1089,2.05,1.9074,1.8493,1.804,1.7443,1.6844,1.6492,1.6973,1.6031,1.4976,1.4976,1.4272,1.3684,1.3684,1.4272,1.4713,1.4406,1.5035,1.5631,1.5421,1.5406,1.5924,1.722,1.7337,1.7806,1.901,1.9127,1.9127,1.9127,1.9127,1.9127,1.9127,1.6879,1.451,1.201,1.1776,1.1776,1.1776,1.1398,1.1269,1.1269,1.0671,1.0308,1.0308,0.9943,0.9822,0.9822,0.9822,0.9822,0.9822,0.9822,0.9822,0.9836,0.9978,1.0032,1.0032,1.0032,1.0032,1.0012,3.0005,2.8559,2.7367,2.681,2.5135,2.3852,2.3852,2.3479,2.3106,2.3106,2.3106,2.3106,2.3106,2.3106,2.3106,2.3106,2.3106,2.3106,2.3106,2.3106,2.3106,2.3106,2.3106,2.3018,2.2813,2.2681,2.2374,2.1876,2.1759,2.1525,2.1203,2.1203,2.1203,2.1203,2.1203,2.1203,2.1203,2.1203,2.1203,2.1203,2.1203,2.1203,2.1203,2.1203,2.1203,2.1203,2.1203,2.1203,2.1203,2.1203,2.1203,2.1203,2.1203,2.1203,2.1203,2.1203,2.1203,2.1089,2.05,2.0256,1.991,1.91,1.8739,1.8389,1.7806,1.7443,1.7091,1.6868,1.6397,1.6042,1.6042,1.6031,1.5954,1.5765,1.5898,1.6188,1.6934,1.6856,1.722,1.8532,1.8648,1.8881,1.9359,1.9372,1.9372,1.9372,1.9372,1.9372,1.9372,1.6997,1.5213,1.4152,1.2612,1.1776,1.1776,1.1647,1.1647,1.1647,1.1156,1.0914,1.0914,1.0407,1.0204,1.0211,1.0191,1.0107,1.0107,1.0107,1.0107,1.0114,1.0168,1.0195,1.0195,1.0195,1.0195,1.0181,3.0897,2.9443,2.8002,2.7453,2.5945,2.481,2.4332,2.3961,2.3604,2.3106,2.3106,2.3106,2.3106,2.3106,2.3106,2.3106,2.3106,2.3062,2.2959,2.2871,2.2857,2.2945,2.2959,2.2813,2.2491,2.2389,2.2125,2.1701,2.1598,2.1423,2.1203,2.1203,2.1203,2.1203,2.1203,2.1203,2.1203,2.1203,2.1203,2.1203,2.1203,2.1203,2.1203,2.1203,2.1203,2.1203,2.1203,2.1203,2.1203,2.1203,2.1203,2.1203,2.1203,2.1203,2.1203,2.1203,2.1203,2.1203,2.1203,2.1203,2.1089,2.0399,2.0284,2.004,1.91,1.8868,1.8752,1.8519,1.804,1.7677,1.7677,1.7677,1.7547,1.7547,1.743,1.7677,1.8493,1.8273,1.8415,1.9243,1.9372,1.9372,1.9372,1.9372,1.9372,1.9372,1.9372,1.9243,1.8765,1.7114,1.6042,1.5569,1.3555,1.2397,1.2457,1.2043,1.1776,1.1776,1.1398,1.13,1.1355,1.0863,1.0695,1.0753,1.0489,1.041,1.041,1.0283,1.0283,1.0283,1.0331,1.0344,1.0344,1.0344,1.0344,1.0337,3.0898,3.0898,3.0898,3.0898,2.9785,2.8444,2.7142,2.5928,2.4579,2.3355,2.3106,2.3106,2.3106,2.3106,2.3106,2.3106,2.3106,2.2974,2.2652,2.2345,2.2315,2.2608,2.2623,2.2476,2.2184,2.1862,2.1701,2.1686,2.1364,2.1203,2.1203,2.1203,2.1203,2.1203,2.1203,2.1203,2.1203,2.1203,2.1203,2.1203,2.1203,2.1203,2.1203,2.1203,2.1203,2.1203,2.1203,2.1203,2.1203,2.1203,2.1203,2.1203,2.1203,2.1203,2.1203,2.1203,2.1203,2.1203,2.1203,2.1203,2.1203,2.1203,2.1203,2.1203,2.1203,2.0515,1.9809,1.9809,1.91,1.8389,1.8389,1.9216,1.9809,1.9809,2.004,2.027,2.027,1.9822,1.9372,1.9372,1.9372,1.9372,1.9372,1.9372,1.9372,1.9372,1.9372,1.8894,1.7572,1.7455,1.6868,1.5688,1.4381,1.3769,1.3864,1.2465,1.1776,1.1784,1.1526,1.137,1.1534,1.117,1.1135,1.1292,1.0919,1.0792,1.0792,1.041,1.0283,1.0297,1.0439,1.0493,1.0493,1.0493,1.0493,1.0473,3.0898,3.0157,2.953,2.953,2.8444,2.7486,2.7021,2.6658,2.6277,2.5912,2.579,2.579,2.579,2.5561,2.5053,2.4221,2.4099,2.3673,2.2959,2.2667,2.2432,2.2315,2.2315,2.2169,2.1847,2.1745,2.1584,2.135,2.1262,2.1203,2.1203,2.1203,2.1203,2.1203,2.1203,2.1203,2.1203,2.1203,2.1203,2.1203,2.1203,2.1203,2.1203,2.1203,2.1203,2.1203,2.1203,2.1203,2.1203,2.1203,2.1203,2.1203,2.1203,2.1203,2.1203,2.1203,2.1203,2.1203,2.1203,2.1203,2.1203,2.1203,2.1203,2.1089,2.0845,2.0845,2.0744,2.05,2.0385,2.0385,2.0385,2.0615,2.0744,2.0744,2.0615,2.0601,2.0601,2.004,1.9707,1.9707,1.9475,1.9372,1.9372,1.9372,1.9372,1.9372,1.9372,1.9243,1.8881,1.8052,1.7421,1.7244,1.5926,1.4953,1.4194,1.2653,1.202,1.215,1.2017,1.2049,1.2097,1.1837,1.1795,1.1721,1.1583,1.1374,1.1112,1.0981,1.085,1.0595,1.0636,1.0649,1.0649,1.0649,1.0649,1.0643,3.0898,3.0274,2.9648,2.9648,2.9057,2.8343,2.7847,2.7727,2.7607,2.7021,2.7021,2.6779,2.6294,2.6077,2.5342,2.4146,2.3779,2.3384,2.274,2.2432,2.2125,2.1818,2.1803,2.1701,2.1511,2.1511,2.1408,2.1203,2.1203,2.1203,2.1203,2.1203,2.1203,2.1203,2.1203,2.1203,2.1203,2.1203,2.1203,2.1203,2.1203,2.1203,2.1203,2.1203,2.1203,2.1203,2.1203,2.1203,2.1203,2.1203,2.1203,2.1203,2.1203,2.1203,2.1203,2.1203,2.1203,2.1203,2.1203,2.1203,2.1203,2.1203,2.1203,2.1203,2.096,2.1089,2.1089,2.096,2.1089,2.1203,2.1203,2.1203,2.1203,2.1203,2.096,2.0716,2.0716,2.027,2.004,2.004,1.9707,1.9591,1.9591,1.9475,1.9372,1.9372,1.9372,1.9412,1.9533,1.8816,1.8576,1.8854,1.7514,1.6418,1.5282,1.3788,1.2758,1.2304,1.2304,1.2345,1.241,1.2258,1.2208,1.2287,1.2127,1.1909,1.1644,1.1512,1.138,1.1115,1.0982,1.085,1.085,1.0717,1.0717,1.0717,3.0898,3.0898,3.0898,3.0898,3.0898,3.0528,2.9294,2.9039,2.8683,2.7504,2.7383,2.69,2.5806,2.5529,2.5024,2.3668,2.3029,2.2642,2.2286,2.2083,2.1744,2.1306,2.1377,2.1347,2.1203,2.1203,2.1203,2.1203,2.1203,2.1203,2.1203,2.1203,2.1203,2.1203,2.1203,2.1203,2.1203,2.1203,2.1203,2.1203,2.1203,2.1203,2.1203,2.1203,2.1203,2.1203,2.1203,2.1203,2.1203,2.1203,2.1203,2.1203,2.1203,2.1203,2.1203,2.1203,2.1203,2.1203,2.1203,2.1203,2.1203,2.1203,2.1203,2.1203,2.1203,2.1203,2.1203,2.1203,2.1203,2.1203,2.1203,2.1203,2.1203,2.1203,2.096,2.0716,2.0716,2.05,2.0385,2.0385,2.004,1.9809,1.9809,1.9591,1.9372,1.9399,1.9412,1.9533,1.9826,1.984,1.9973,2.0267,1.9145,1.7901,1.6772,1.5503,1.4025,1.2353,1.2353,1.2434,1.2588,1.2588,1.2678,1.2832,1.2437,1.2305,1.2305,1.1916,1.1776,1.1784,1.138,1.1247,1.1247,1.085,1.0724,1.0717,3.0898,3.0898,3.0898,3.0898,3.0898,3.0762,3.0528,3.0528,3.0392,3.0039,3.0039,2.9922,2.9667,2.9367,2.856,2.737,2.5403,2.3794,2.3024,2.3566,2.3349,2.1979,2.2736,2.2475,2.1218,2.1203,2.1203,2.1203,2.1203,2.1203,2.1203,2.1203,2.1203,2.1203,2.1203,2.1203,2.1203,2.1203,2.1203,2.1203,2.1203,2.1203,2.1203,2.1203,2.1203,2.1203,2.1203,2.1203,2.1203,2.1203,2.1203,2.1203,2.1203,2.1203,2.1203,2.1203,2.1203,2.1203,2.1203,2.1203,2.1203,2.1203,2.1203,2.1203,2.1203,2.1203,2.1203,2.1203,2.1203,2.1203,2.1203,2.1203,2.1203,2.1203,2.1089,2.1089,2.1089,2.0845,2.0601,2.0601,2.0155,1.9809,1.9809,1.9591,1.9466,1.9693,1.9706,1.9826,2.012,2.0134,2.0281,2.0575,2.0328,1.9575,1.843,1.715,1.5206,1.2718,1.2718,1.2743,1.2775,1.2775,1.28,1.284,1.2708,1.2568,1.2305,1.218,1.2041,1.1776,1.1652,1.1644,1.1644,1.1644,1.138,1.0982,3.0898,3.0898,3.0898,3.0898,3.0898,3.0898,3.0898,3.0898,3.0898,3.0898,3.0898,3.0645,3.002,2.9695,2.9077,2.7902,2.6474,2.5391,2.4817,2.5066,2.4724,2.38,2.3991,2.3489,2.2101,2.2101,2.1759,2.1203,2.1203,2.1203,2.1203,2.1203,2.1203,2.1203,2.1203,2.1203,2.1203,2.1203,2.1203,2.1203,2.1203,2.1203,2.1203,2.1203,2.1203,2.1203,2.1203,2.1203,2.1203,2.1203,2.1203,2.1203,2.1203,2.1203,2.1203,2.1203,2.1203,2.1203,2.1203,2.1203,2.1203,2.1203,2.1203,2.1203,2.1203,2.1203,2.1203,2.1203,2.1203,2.1203,2.1203,2.1203,2.1203,2.1203,2.1203,2.1203,2.1203,2.1089,2.096,2.096,2.0385,1.9993,1.978,1.969,1.9693,1.9987,2.0,2.0134,2.0428,2.0441,2.0575,2.0869,2.0882,2.0307,1.9036,1.8267,1.6592,1.3744,1.3095,1.284,1.284,1.284,1.284,1.284,1.284,1.2708,1.2568,1.2568,1.2437,1.2312,1.2041,1.2041,1.2048,1.1916,1.1512,1.1115,3.0898,3.0898,3.0898,3.0898,3.0898,3.0898,3.0898,3.0898,3.0898,3.0898,3.0898,3.0528,2.9412,2.9294,2.8683,2.7486,2.7366,2.709,2.6473,2.6364,2.5887,2.5116,2.4889,2.4144,2.2765,2.2652,2.2199,2.1203,2.1203,2.1203,2.1203,2.1203,2.1203,2.1203,2.1203,2.1203,2.1203,2.1203,2.1203,2.1203,2.1203,2.1203,2.1203,2.1203,2.1203,2.1203,2.1203,2.1203,2.1203,2.1203,2.1203,2.1203,2.1203,2.1203,2.1203,2.1203,2.1203,2.1203,2.1203,2.1203,2.1203,2.1203,2.1203,2.1203,2.1203,2.1203,2.1203,2.1203,2.1203,2.1203,2.1203,2.1203,2.1203,2.1203,2.1203,2.1203,2.1203,2.1203,2.1203,2.1203,2.0672,2.0219,1.9891,1.984,2.0,2.0281,2.0307,2.0441,2.0735,2.0748,2.0855,2.1096,2.1109,2.0462,1.9036,1.878,1.7356,1.4912,1.3481,1.284,1.284,1.284,1.284,1.284,1.284,1.284,1.284,1.284,1.284,1.2708,1.2437,1.2437,1.2305,1.2048,1.1644,1.138,3.1015,3.0898,3.0898,3.0898,3.0898,3.0898,3.0898,3.0898,3.0898,3.0898,3.0898,3.0879,3.0645,3.0645,3.0039,2.8801,2.8683,2.8027,2.6456,2.7445,2.6742,2.3876,2.4708,2.4088,2.1546,2.1432,2.1318,2.1203,2.1203,2.1203,2.1203,2.1203,2.1203,2.1203,2.1203,2.1203,2.1203,2.1203,2.1203,2.1203,2.1203,2.1203,2.1203,2.1203,2.1203,2.1203,2.1203,2.1203,2.1203,2.1203,2.1203,2.1203,2.1203,2.1203,2.1203,2.1203,2.1203,2.1203,2.1203,2.1203,2.1203,2.1203,2.1203,2.1203,2.1203,2.1203,2.1203,2.1203,2.1203,2.1203,2.1203,2.1203,2.1203,2.1203,2.1203,2.1203,2.1203,2.1203,2.1203,2.1203,2.0857,2.0572,2.026,2.0147,2.0294,2.0601,2.0615,2.0748,2.1029,2.1056,2.1069,2.1109,2.1109,2.0462,1.9036,1.7882,1.6462,1.4912,1.3481,1.284,1.284,1.284,1.284,1.284,1.284,1.284,1.284,1.284,1.284,1.284,1.2708,1.27,1.27,1.2312,1.2173,1.2048,3.146,3.146,3.146,3.146,3.146,3.146,3.146,3.146,3.146,3.146,3.146,3.146,3.146,3.1228,3.0859,3.002,3.002,2.971,2.8917,2.8953,2.8408,2.7019,2.7031,2.626,2.462,2.4507,2.3926,2.2767,2.1725,2.1203,2.1203,2.1203,2.1203,2.1203,2.1203,2.1306,2.1481,2.1481,2.1481,2.1481,2.1481,2.1379,2.1203,2.1203,2.1203,2.1203,2.1203,2.1203,2.1203,2.1203,2.1203,2.1203,2.1203,2.1203,2.1203,2.1203,2.1203,2.1203,2.1203,2.1203,2.1203,2.1203,2.1203,2.1203,2.1203,2.1203,2.1203,2.1203,2.1203,2.1203,2.1203,2.1203,2.1203,2.1203,2.1203,2.1203,2.1203,2.1203,2.1161,2.1206,2.1274,2.1174,2.0874,2.0767,2.0848,2.0895,2.0922,2.0975,2.1096,2.1109,2.1109,2.1109,2.1109,2.0462,1.9036,1.8396,1.6969,1.4912,1.4259,1.3613,1.284,1.284,1.284,1.284,1.284,1.284,1.284,1.284,1.284,1.284,1.284,1.284,1.2832,1.2568,1.2444,1.2305]}]]